[[{"header":{"parameterUnit":"m.s-1","parameterCategory":1,"la1":30.6,"la2":29.2853,"lo1":-89.7004,"lo2":-87.6739,"dx":0.0162,"dy":0.0183,"nx":112,"ny":82,"refTime":"2023-01-19T06:00:00:Z","depth":0,"parameterNumber":2,"parameterNumberName":"U-component_of_WINDS"},"data":[0.0,0.0,0.0,0.0,0.0,0.0,0.0,0.0,0.0,0.0,0.0,0.0,0.0,0.0,0.0,0.0,0.0,0.0,0.0,0.0,0.0,0.0,0.0,0.0,0.0,0.0,0.0,0.0,0.0,0.0,0.0,0.0,0.0,0.0,0.0,0.0,0.0,0.0,0.0,0.0,0.0,0.0,0.0,0.0,0.0,0.0,0.0,0.0,0.0,0.0,0.0,0.0,0.0,0.0,0.0,0.0,0.0,0.0,0.0,0.0,0.0,0.0,0.0,0.0,0.0,0.0,0.0,0.0,0.0,0.0,0.0,0.0,0.0,0.0,0.0,0.0,0.0,0.0,0.0,0.0,0.0,0.0,0.0,0.0,0.0,0.0,0.0,0.0,0.0,0.0,0.0,2.4359,2.4359,2.4359,2.4359,2.4359,2.4772,2.5744,0.0,0.0,0.0,0.0,0.0,0.0,0.0,0.0,0.0,0.0,0.0,0.0,0.0,0.0,0.0,0.0,0.0,0.0,0.0,0.0,0.0,0.0,0.0,0.0,0.0,0.0,0.0,0.0,0.0,0.0,0.0,0.0,0.0,0.0,0.0,0.0,0.0,0.0,0.0,0.0,0.0,0.0,0.0,0.0,0.0,0.0,0.0,0.0,0.0,0.0,0.0,0.0,0.0,0.0,0.0,0.0,0.0,0.0,0.0,0.0,0.0,0.0,0.0,0.0,0.0,0.0,0.0,0.0,0.0,0.0,0.0,0.0,0.0,0.0,0.0,0.0,0.0,0.0,0.0,0.0,0.0,0.0,0.0,0.0,0.0,0.0,0.0,0.0,0.0,0.0,0.0,0.0,0.0,0.0,0.0,0.0,0.0,0.0,0.0,0.0,0.0,0.0,0.0,0.0,2.5042,2.5495,2.5547,2.5547,2.5547,2.5547,2.5625,2.5796,0.0,0.0,0.0,0.0,0.0,0.0,0.0,0.0,0.0,0.0,0.0,0.0,0.0,0.0,0.0,0.0,0.0,0.0,0.0,0.0,0.0,0.0,0.0,0.0,0.0,0.0,0.0,0.0,0.0,0.0,0.0,0.0,0.0,0.0,0.0,0.0,0.0,0.0,0.0,0.0,0.0,0.0,0.0,0.0,0.0,0.0,0.0,0.0,0.0,0.0,0.0,0.0,0.0,0.0,0.0,0.0,0.0,0.0,0.0,0.0,0.0,0.0,0.0,0.0,0.0,0.0,0.0,0.0,0.0,0.0,0.0,0.0,0.0,0.0,0.0,0.0,0.0,0.0,0.0,0.0,0.0,0.0,0.0,0.0,0.0,0.0,0.0,0.0,0.0,0.0,0.0,0.0,0.0,0.0,0.0,0.0,0.0,0.0,0.0,0.0,0.0,0.0,0.0,2.5432,2.5537,2.5767,2.5809,2.5809,2.5809,2.5809,2.5936,2.6263,2.5756,0.0,0.0,0.0,0.0,0.0,0.0,0.0,0.0,0.0,0.0,0.0,0.0,0.0,0.0,0.0,0.0,0.0,0.0,0.0,0.0,0.0,0.0,0.0,0.0,0.0,0.0,0.0,0.0,0.0,0.0,0.0,0.0,0.0,0.0,0.0,0.0,0.0,0.0,0.0,0.0,0.0,0.0,0.0,0.0,0.0,0.0,0.0,0.0,0.0,0.0,0.0,0.0,0.0,0.0,0.0,0.0,0.0,0.0,0.0,0.0,0.0,0.0,0.0,0.0,0.0,0.0,0.0,0.0,0.0,0.0,0.0,0.0,0.0,0.0,0.0,0.0,0.0,0.0,0.0,0.0,0.0,0.0,0.0,0.0,0.0,0.0,0.0,0.0,0.0,0.0,0.0,0.0,0.0,0.0,0.0,0.0,0.0,0.0,0.0,0.0,0.0,0.0,2.6122,2.6198,2.6198,2.6198,2.6198,2.6198,2.6198,2.6406,2.6863,2.6337,0.0,0.0,0.0,0.0,0.0,0.0,0.0,0.0,0.0,0.0,0.0,0.0,0.0,0.0,0.0,0.0,0.0,0.0,0.0,0.0,0.0,0.0,0.0,0.0,0.0,0.0,0.0,0.0,0.0,0.0,0.0,0.0,0.0,0.0,0.0,0.0,0.0,0.0,0.0,0.0,0.0,0.0,0.0,0.0,0.0,0.0,0.0,0.0,0.0,0.0,0.0,0.0,0.0,0.0,0.0,0.0,0.0,0.0,0.0,0.0,0.0,0.0,0.0,0.0,0.0,0.0,0.0,0.0,0.0,0.0,0.0,0.0,0.0,0.0,0.0,0.0,0.0,0.0,0.0,0.0,0.0,0.0,0.0,0.0,0.0,0.0,0.0,0.0,0.0,0.0,0.0,0.0,0.0,0.0,0.0,0.0,0.0,0.0,0.0,0.0,0.0,0.0,2.7079,2.7372,2.7372,2.7372,2.7372,2.7372,2.7372,2.7389,2.7439,2.6942,0.0,0.0,0.0,0.0,0.0,0.0,0.0,0.0,0.0,0.0,0.0,0.0,0.0,0.0,0.0,0.0,0.0,0.0,0.0,0.0,0.0,0.0,0.0,0.0,0.0,0.0,0.0,0.0,0.0,0.0,0.0,0.0,0.0,0.0,0.0,0.0,0.0,0.0,0.0,0.0,0.0,0.0,0.0,0.0,0.0,0.0,0.0,0.0,0.0,0.0,0.0,0.0,0.0,0.0,0.0,0.0,0.0,0.0,0.0,0.0,0.0,0.0,0.0,0.0,0.0,0.0,0.0,0.0,0.0,0.0,0.0,0.0,0.0,0.0,0.0,0.0,0.0,0.0,0.0,0.0,0.0,0.0,0.0,0.0,0.0,0.0,0.0,0.0,0.0,0.0,0.0,0.0,0.0,0.0,0.0,0.0,0.0,0.0,0.0,0.0,0.0,0.0,2.7376,2.749,0.0,2.749,2.749,2.749,2.749,2.749,2.749,0.0,0.0,0.0,0.0,0.0,0.0,0.0,0.0,0.0,0.0,0.0,0.0,0.0,0.0,0.0,0.0,0.0,0.0,0.0,0.0,0.0,0.0,0.0,0.0,0.0,0.0,0.0,0.0,0.0,0.0,0.0,0.0,0.0,0.0,0.0,0.0,0.0,0.0,0.0,0.0,0.0,0.0,0.0,0.0,0.0,0.0,0.0,0.0,0.0,0.0,0.0,0.0,0.0,0.0,0.0,0.0,0.0,0.0,0.0,0.0,0.0,0.0,0.0,0.0,0.0,0.0,0.0,0.0,0.0,0.0,0.0,0.0,0.0,0.0,0.0,0.0,0.0,0.0,0.0,0.0,0.0,0.0,0.0,0.0,0.0,0.0,0.0,0.0,0.0,0.0,0.0,0.0,0.0,0.0,0.0,0.0,0.0,0.0,0.0,0.0,0.0,0.0,2.749,2.749,2.749,0.0,2.749,2.749,2.749,2.749,2.749,2.749,0.0,0.0,0.0,0.0,0.0,0.0,0.0,0.0,0.0,0.0,0.0,0.0,0.0,0.0,0.0,0.0,0.0,0.0,0.0,0.0,0.0,0.0,0.0,0.0,0.0,0.0,0.0,0.0,0.0,0.0,0.0,0.0,0.0,0.0,0.0,0.0,0.0,0.0,0.0,0.0,0.0,0.0,0.0,0.0,0.0,0.0,0.0,0.0,0.0,0.0,0.0,0.0,0.0,0.0,0.0,0.0,0.0,0.0,0.0,0.0,0.0,0.0,0.0,0.0,0.0,0.0,0.0,0.0,0.0,0.0,0.0,0.0,0.0,0.0,0.0,0.0,0.0,0.0,0.0,0.0,0.0,0.0,0.0,0.0,0.0,0.0,0.0,0.0,0.0,0.0,0.0,0.0,0.0,0.0,0.0,0.0,0.0,0.0,0.0,0.0,0.0,0.0,2.749,2.749,2.749,2.749,2.749,2.749,2.749,2.749,2.749,0.0,0.0,0.0,0.0,0.0,0.0,0.0,0.0,0.0,0.0,0.0,0.0,0.0,0.0,0.0,0.0,0.0,0.0,0.0,0.0,0.0,0.0,0.0,0.0,0.0,0.0,0.0,0.0,0.0,0.0,0.0,0.0,0.0,0.0,0.0,0.0,0.0,0.0,0.0,0.0,0.0,0.0,0.0,0.0,0.0,0.0,0.0,0.0,0.0,0.0,0.0,0.0,0.0,0.0,0.0,0.0,0.0,0.0,0.0,0.0,0.0,0.0,0.0,0.0,0.0,0.0,0.0,0.0,0.0,0.0,0.0,0.0,0.0,0.0,0.0,0.0,0.0,0.0,0.0,0.0,0.0,0.0,0.0,0.0,0.0,0.0,0.0,0.0,0.0,0.0,0.0,0.0,0.0,0.0,0.0,0.0,0.0,0.0,0.0,0.0,0.0,0.0,0.0,0.0,2.749,2.749,2.749,2.749,2.749,2.749,2.749,2.749,2.749,0.0,0.0,0.0,0.0,0.0,0.0,0.0,0.0,0.0,0.0,0.0,0.0,0.0,0.0,0.0,0.0,0.0,0.0,0.0,0.0,0.0,0.0,0.0,0.0,0.0,0.0,0.0,0.0,0.0,0.0,0.0,0.0,0.0,0.0,0.0,0.0,0.0,0.0,0.0,0.0,0.0,0.0,0.0,0.0,0.0,0.0,0.0,0.0,0.0,0.0,0.0,0.0,0.0,0.0,0.0,0.0,0.0,0.0,0.0,0.0,0.0,0.0,0.0,0.0,0.0,0.0,0.0,0.0,0.0,0.0,0.0,0.0,0.0,0.0,0.0,0.0,0.0,0.0,0.0,0.0,0.0,0.0,0.0,0.0,0.0,0.0,0.0,0.0,0.0,0.0,0.0,0.0,0.0,0.0,0.0,0.0,0.0,0.0,0.0,0.0,0.0,0.0,2.8212,2.8212,2.8212,2.8212,2.8212,2.8212,2.8212,2.8212,2.8212,2.8212,0.0,0.0,0.0,0.0,0.0,0.0,0.0,0.0,0.0,0.0,0.0,0.0,0.0,0.0,0.0,0.0,0.0,0.0,0.0,0.0,0.0,0.0,0.0,0.0,0.0,0.0,0.0,0.0,0.0,0.0,0.0,0.0,0.0,0.0,0.0,0.0,0.0,0.0,0.0,0.0,0.0,0.0,0.0,0.0,0.0,0.0,0.0,0.0,0.0,0.0,0.0,0.0,0.0,0.0,0.0,0.0,0.0,0.0,0.0,0.0,0.0,0.0,0.0,0.0,0.0,0.0,0.0,0.0,0.0,0.0,0.0,0.0,0.0,0.0,0.0,0.0,0.0,0.0,0.0,0.0,0.0,0.0,0.0,0.0,0.0,0.0,0.0,0.0,0.0,0.0,0.0,0.0,0.0,0.0,0.0,0.0,0.0,0.0,0.0,0.0,0.0,0.0,2.9292,2.9292,2.9292,2.9292,2.9292,2.9292,2.9292,2.9292,2.9292,2.9292,0.0,0.0,0.0,0.0,0.0,0.0,0.0,0.0,0.0,0.0,0.0,0.0,0.0,0.0,0.0,0.0,0.0,0.0,0.0,0.0,0.0,0.0,0.0,0.0,0.0,0.0,0.0,0.0,0.0,0.0,0.0,0.0,0.0,0.0,0.0,0.0,0.0,0.0,0.0,0.0,0.0,0.0,0.0,0.0,0.0,0.0,0.0,0.0,0.0,0.0,0.0,0.0,0.0,0.0,0.0,0.0,0.0,0.0,0.0,0.0,2.205,0.0,0.0,0.0,0.0,0.0,0.0,0.0,0.0,0.0,0.0,0.0,0.0,0.0,0.0,0.0,0.0,0.0,0.0,0.0,0.0,0.0,0.0,0.0,0.0,0.0,0.0,0.0,0.0,0.0,0.0,0.0,0.0,0.0,0.0,0.0,0.0,0.0,0.0,0.0,0.0,0.0,2.9292,2.9292,2.9292,2.9292,2.9292,2.9292,2.9292,2.9292,2.9292,2.9292,0.0,0.0,0.0,0.0,0.0,0.0,0.0,0.0,0.0,0.0,0.0,0.0,0.0,0.0,0.0,0.0,0.0,0.0,0.0,0.0,0.0,0.0,0.0,0.0,0.0,0.0,0.0,0.0,0.0,0.0,0.0,0.0,0.0,0.0,0.0,0.0,0.0,0.0,0.0,0.0,0.0,0.0,0.0,0.0,0.0,0.0,0.0,0.0,0.0,0.0,0.0,0.0,0.0,0.0,0.0,0.0,0.0,0.0,0.0,0.0,0.0,2.2707,0.0,0.0,0.0,0.0,0.0,0.0,0.0,0.0,0.0,0.0,0.0,0.0,0.0,0.0,0.0,0.0,0.0,0.0,0.0,0.0,0.0,0.0,0.0,0.0,0.0,0.0,0.0,0.0,0.0,0.0,0.0,0.0,0.0,0.0,0.0,0.0,0.0,0.0,0.0,0.0,3.0116,3.0116,3.0116,3.0116,3.0116,3.0116,3.0116,3.0116,3.0116,3.0116,3.0116,0.0,0.0,0.0,0.0,0.0,0.0,0.0,0.0,0.0,0.0,0.0,0.0,0.0,0.0,0.0,0.0,0.0,0.0,0.0,0.0,0.0,0.0,0.0,0.0,0.0,0.0,0.0,0.0,0.0,0.0,0.0,0.0,0.0,0.0,0.0,0.0,0.0,0.0,0.0,0.0,0.0,0.0,0.0,0.0,0.0,0.0,0.0,0.0,0.0,0.0,0.0,0.0,0.0,0.0,2.0645,2.1317,2.1913,2.2602,2.3349,2.34,2.3422,2.3412,0.0,0.0,0.0,0.0,0.0,0.0,0.0,0.0,0.0,0.0,0.0,0.0,0.0,0.0,0.0,0.0,0.0,0.0,0.0,0.0,0.0,0.0,0.0,0.0,0.0,2.4298,2.4715,0.0,0.0,0.0,0.0,0.0,0.0,0.0,0.0,0.0,0.0,0.0,0.0,3.1005,3.0949,3.0917,3.0986,3.0968,3.0968,3.1005,3.1005,3.1005,3.1005,3.0968,3.0968,0.0,0.0,0.0,0.0,0.0,0.0,0.0,0.0,0.0,0.0,0.0,0.0,0.0,0.0,0.0,0.0,0.0,0.0,0.0,0.0,0.0,0.0,0.0,0.0,0.0,0.0,0.0,0.0,0.0,0.0,0.0,0.0,1.7793,1.7793,0.0,0.0,0.0,0.0,0.0,0.0,0.0,0.0,0.0,0.0,0.0,0.0,0.0,0.0,1.8662,1.9525,1.9593,1.889,2.1433,2.2287,2.1688,2.3357,2.4207,2.4315,2.432,0.0,2.429,2.395,0.0,0.0,0.0,0.0,0.0,0.0,0.0,0.0,0.0,0.0,0.0,0.0,0.0,0.0,0.0,0.0,0.0,0.0,0.0,0.0,0.0,0.0,2.4819,2.4756,2.4935,2.5073,0.0,2.4783,2.5013,2.6244,0.0,0.0,0.0,0.0,0.0,0.0,0.0,0.0,3.0986,3.0691,3.0615,3.0968,3.0849,3.0811,3.0986,3.1005,3.1005,3.1005,3.0849,3.083,3.0986,3.083,0.0,0.0,0.0,0.0,0.0,0.0,0.0,0.0,0.0,0.0,0.0,0.0,0.0,0.0,0.0,0.0,0.0,0.0,0.0,0.0,0.0,0.0,0.0,0.0,0.0,0.0,0.0,0.0,0.0,1.8367,1.8367,1.8367,1.8479,1.8574,0.0,0.0,0.0,0.0,0.0,0.0,0.0,0.0,0.0,1.8804,1.8804,1.8907,1.9129,1.9565,1.9935,2.0228,2.1488,2.2479,2.3195,2.4018,2.4721,2.5295,2.5295,2.5295,2.5233,2.454,2.4229,2.4208,0.0,0.0,0.0,0.0,0.0,2.3929,2.3929,0.0,0.0,0.0,0.0,0.0,0.0,0.0,0.0,0.0,0.0,0.0,0.0,0.0,0.0,2.5461,2.5527,2.5571,2.5483,2.5371,2.5357,0.0,2.6163,2.6739,2.7148,0.0,0.0,0.0,0.0,0.0,2.9851,2.9774,2.9922,3.0596,3.0577,3.0609,3.0798,3.083,3.0874,3.0986,3.0911,3.0911,3.1005,3.0911,3.0855,0.0,0.0,0.0,0.0,0.0,0.0,0.0,0.0,0.0,0.0,0.0,0.0,0.0,0.0,0.0,0.0,0.0,0.0,0.0,0.0,0.0,0.0,0.0,0.0,0.0,0.0,0.0,0.0,1.8804,1.8804,1.8804,1.8804,1.8804,0.0,0.0,0.0,0.0,0.0,0.0,1.909,1.9346,1.937,1.909,1.9346,1.9499,1.9519,1.9519,2.0141,2.134,2.1594,2.2628,2.4371,2.4602,2.5128,2.5897,2.5897,2.5897,2.5846,2.5161,2.486,2.486,2.486,2.486,2.486,2.486,2.486,2.486,2.486,2.486,2.486,2.486,0.0,2.486,2.486,0.0,0.0,0.0,0.0,2.5449,2.5815,0.0,2.5897,2.5897,2.5897,2.5897,2.5897,2.5897,2.5745,0.0,2.5851,2.6423,2.6423,0.0,0.0,0.0,0.0,2.869,2.9388,2.9599,2.9986,3.0733,3.0823,3.0933,3.1119,3.1182,3.1278,3.1431,3.1335,3.1335,3.1418,3.1335,3.1163,0.0,0.0,0.0,0.0,0.0,0.0,0.0,0.0,0.0,0.0,0.0,0.0,0.0,0.0,0.0,0.0,0.0,0.0,0.0,0.0,0.0,0.0,0.0,0.0,0.0,0.0,0.0,0.0,0.0,0.0,1.8804,1.8804,0.0,0.0,0.0,0.0,1.9344,1.9367,1.9511,1.9821,2.081,2.0906,1.9885,2.0834,2.089,1.9885,1.9861,2.0426,2.1507,2.2383,2.3415,2.451,2.5412,2.5852,2.5897,2.5897,2.5897,2.5897,2.5846,2.5835,2.5835,2.5835,2.5835,2.5835,2.5835,2.5835,2.5835,2.5835,2.5835,2.5835,2.5835,2.5835,2.5835,2.5835,2.5835,0.0,0.0,2.5866,2.5877,2.5897,2.5897,2.5897,2.5897,2.5897,2.5897,2.5897,2.5897,2.5887,0.0,2.605,2.6229,2.6229,0.0,2.7796,2.7796,2.9148,3.0254,3.0494,3.0959,3.1453,3.1877,3.1983,3.2096,3.2303,3.2488,3.2607,3.2607,3.2263,3.2216,3.2607,3.2243,3.1789,3.1273,3.1253,0.0,0.0,0.0,0.0,0.0,0.0,0.0,0.0,0.0,0.0,0.0,0.0,0.0,0.0,0.0,0.0,0.0,0.0,0.0,0.0,0.0,0.0,0.0,0.0,0.0,0.0,0.0,0.0,1.9177,1.9391,0.0,0.0,1.9519,1.9574,1.9702,1.9717,2.0071,2.0884,2.1292,2.1316,2.094,2.1292,2.1082,2.0226,2.0909,2.1557,2.2173,2.3179,2.4223,2.5282,2.5615,2.6145,2.6788,2.6788,2.6788,2.6788,2.6788,2.6447,2.5897,2.5897,2.5897,2.5897,2.5897,2.5897,2.5897,2.5897,2.5897,2.5897,2.5897,2.5897,2.5897,2.5897,2.5897,2.596,2.626,2.6343,2.6415,2.6716,2.6788,2.6788,2.6788,2.6788,2.6788,2.6788,2.6788,2.6788,2.6788,2.6381,2.601,2.601,2.6326,2.6584,2.6584,2.7084,2.7929,2.9211,2.8976,2.9444,3.1394,3.11,3.1141,3.2113,3.1671,3.1483,3.1787,3.1503,3.1198,3.0906,3.1805,3.1845,3.0869,3.0597,3.0431,0.0,0.0,0.0,0.0,0.0,0.0,0.0,0.0,0.0,0.0,0.0,0.0,0.0,0.0,0.0,0.0,0.0,0.0,0.0,0.0,0.0,0.0,0.0,0.0,0.0,0.0,1.9558,1.9558,1.9757,1.9892,1.9892,1.9892,1.994,2.0059,2.0067,2.0582,2.1764,2.2177,2.2395,2.2395,2.2395,2.2144,2.1636,2.1992,2.2642,2.3594,2.4295,2.5187,2.6235,2.6235,2.662,2.7309,2.7309,2.7309,2.7309,2.7309,2.6923,2.6364,2.6364,2.6364,2.6364,2.6364,2.6364,2.6364,2.6364,2.6364,2.6364,2.6364,2.6364,2.6364,2.6364,2.6364,2.6426,2.676,2.6853,2.6915,2.7226,2.7309,2.7309,2.7309,2.7309,2.7309,2.7309,2.7309,2.7309,2.7309,2.6812,2.6364,2.6364,2.6364,2.6364,2.6364,2.6628,2.729,2.8555,2.8422,2.905,3.1236,3.0983,3.1058,3.1984,3.1897,3.1726,3.163,3.1463,3.1199,3.0873,3.1822,3.1926,3.0958,3.0372,2.9945,2.9716,0.0,0.0,0.0,0.0,0.0,0.0,0.0,0.0,0.0,0.0,0.0,0.0,0.0,0.0,0.0,0.0,0.0,0.0,0.0,0.0,0.0,0.0,0.0,1.9892,1.9925,1.9933,1.9933,1.9916,1.9916,1.9916,1.9916,2.0067,2.0384,2.0408,2.1029,2.2434,2.3527,2.4088,2.4088,2.4137,2.4137,2.4088,2.3111,2.3635,2.5693,2.5742,2.6284,2.7309,2.7309,2.7309,2.7309,2.7309,2.7309,2.7309,2.7309,2.7309,2.7309,2.7309,2.7309,2.7309,2.7309,2.7309,2.7309,2.7309,2.7309,2.7309,2.7309,2.7309,2.7309,2.7309,2.7309,2.7309,2.7309,2.7309,2.7309,2.7309,2.7309,2.7309,2.7309,2.7309,2.7309,2.7309,2.7309,2.7309,2.7309,2.7309,2.7309,2.7309,2.7309,2.7309,2.7309,2.8058,0.0,2.8701,2.9555,3.0509,3.1492,3.1835,3.1989,3.2011,3.3224,3.3479,3.228,3.2215,3.2314,3.2553,3.2379,3.204,3.1577,3.0654,2.9466,2.8023,0.0,0.0,0.0,0.0,0.0,0.0,0.0,0.0,0.0,0.0,0.0,0.0,0.0,0.0,0.0,0.0,0.0,0.0,0.0,0.0,0.0,0.0,2.0187,1.9924,2.0107,2.0274,2.0274,2.048,2.0631,2.0631,2.0631,2.067,2.0766,2.0748,2.1263,2.2451,2.3527,2.4088,2.4088,2.4835,2.4894,2.4113,2.4575,2.5123,2.5718,2.6476,2.7013,2.7309,2.7309,2.7309,2.7309,2.7309,2.7309,2.7309,2.7309,2.7309,2.7309,2.7309,2.7309,2.7309,2.7309,2.7309,2.7309,2.7309,2.7309,2.7309,2.7309,2.7309,2.7309,2.7309,2.7309,2.7309,2.7309,2.7309,2.7309,2.7309,2.7309,2.7309,2.7309,2.7309,2.7309,2.7309,2.7309,2.7309,2.7309,2.7309,2.7309,2.7309,2.7309,2.7309,2.7309,0.0,0.0,2.8608,2.8945,2.9749,3.1426,3.1669,3.1779,3.1977,3.1855,3.1323,0.0,3.0238,3.0045,2.96,3.0666,3.1069,3.0587,3.0147,2.9464,0.0,0.0,0.0,0.0,0.0,0.0,0.0,0.0,0.0,0.0,0.0,0.0,0.0,0.0,0.0,0.0,0.0,0.0,0.0,0.0,0.0,0.0,2.0615,2.0543,2.0362,2.0488,2.0615,2.0615,2.0772,2.0899,2.0899,2.13,2.1573,2.1573,2.1988,2.2509,2.3136,2.3775,2.4319,2.4762,2.4943,2.5163,2.5445,2.5611,2.5936,2.638,2.6989,2.7309,2.7309,2.7309,2.7309,0.0,2.7309,2.7309,2.7309,2.7309,2.7309,0.0,0.0,0.0,0.0,0.0,2.7309,2.7309,2.7309,2.7309,2.7309,2.7309,2.7309,2.7309,2.7309,2.7309,2.7309,2.7309,2.7309,2.7309,2.7309,2.7309,2.7309,2.7309,2.7309,2.7309,2.7309,2.7309,2.7309,2.7309,0.0,0.0,2.7309,2.7309,2.7309,2.7309,2.7309,2.7489,0.0,2.8105,2.8701,3.0215,3.0385,3.0633,3.1192,3.0923,0.0,0.0,0.0,2.9175,2.884,2.9966,0.0,0.0,0.0,2.9566,0.0,0.0,0.0,0.0,2.8455,2.8411,0.0,0.0,0.0,0.0,0.0,0.0,0.0,0.0,0.0,0.0,0.0,0.0,0.0,0.0,0.0,0.0,2.0899,2.0899,2.0899,2.0899,2.0899,2.0899,2.1002,2.1019,2.0917,2.1869,2.2501,2.2501,2.3377,2.3964,2.4088,0.0,0.0,0.0,0.0,2.5373,2.7286,2.6356,2.6356,2.7309,2.7309,2.7309,2.7309,2.7309,2.7309,2.7309,2.7309,2.7309,2.7309,2.7309,2.7309,2.7309,2.7309,2.7309,2.7309,2.7309,2.7309,0.0,0.0,0.0,0.0,2.7309,2.7309,2.7309,2.7309,2.7309,2.7309,2.7309,2.7309,2.7309,2.7309,2.7309,2.7309,2.7309,2.7309,2.7309,2.7309,2.7309,2.7309,2.7309,2.7309,2.7309,2.7309,2.7309,2.7309,2.7309,2.7309,0.0,2.7309,2.7394,2.7786,2.8608,0.0,0.0,2.9966,3.0215,3.0215,2.9897,2.9314,2.9049,2.9223,2.9749,3.0034,3.0034,3.0034,2.9623,2.8803,2.8803,2.8803,2.8803,2.8803,2.8803,0.0,0.0,0.0,0.0,0.0,0.0,0.0,0.0,0.0,0.0,0.0,0.0,0.0,0.0,0.0,2.0883,2.0899,2.0899,2.0899,2.0899,2.0899,2.0899,2.1649,2.1844,2.0968,2.1869,2.2501,2.2501,2.2694,2.3186,2.4038,2.4918,0.0,2.5693,2.6346,2.6884,2.7309,2.7085,2.7085,2.7309,0.0,0.0,2.7309,2.7309,2.7309,2.7309,2.7309,2.7309,2.7309,2.7309,2.7309,2.7309,2.7309,2.7309,2.7309,2.7309,2.7309,2.7309,2.7309,2.7309,2.7309,2.7309,2.7309,2.7309,2.7309,2.7309,0.0,2.7309,2.7309,2.7309,2.7309,2.7309,2.7309,2.7309,2.7309,2.7309,2.7309,2.7309,2.7309,2.7309,2.7309,2.7309,2.7309,2.7309,2.7309,2.7309,2.7309,2.7309,2.7309,2.7974,2.8491,2.8678,2.9429,2.9647,2.9037,2.9211,2.8934,2.7917,2.8081,2.8245,2.8258,2.8781,2.9071,2.9071,2.9071,2.8978,2.8803,2.8803,2.8803,2.8803,2.8803,2.8803,0.0,0.0,0.0,0.0,0.0,0.0,0.0,0.0,0.0,0.0,0.0,2.0899,0.0,0.0,2.0899,2.0899,2.0899,2.0899,2.0899,2.1351,2.1496,2.0968,2.1852,2.2274,2.1751,2.317,2.4106,2.4106,2.4599,2.4894,2.4894,2.5619,2.604,2.604,2.6774,2.7411,2.7959,2.7959,2.7959,2.7959,2.7959,2.7959,2.7959,2.7959,2.7959,2.7959,2.7959,2.7959,2.7938,2.771,2.7593,2.7596,2.7368,2.7309,2.7309,2.7309,2.7309,2.7309,2.7309,2.7309,2.7309,2.7309,2.7309,2.7309,2.7309,2.7309,2.7309,2.7309,2.7309,2.7309,2.7309,2.7309,2.7309,2.7309,2.7309,2.7309,2.7309,2.7309,2.7309,2.7309,2.7309,2.7309,2.7309,2.7309,2.7309,2.7309,2.7309,2.7309,2.7309,2.7715,2.7998,2.7998,2.8445,2.8736,2.8701,2.8817,2.8445,2.7381,2.7739,2.7998,2.7998,2.8513,2.8803,2.8803,2.8803,2.8803,2.8803,2.8803,2.8803,2.8803,2.8803,2.8803,0.0,0.0,0.0,0.0,0.0,0.0,0.0,0.0,2.0899,2.0899,2.0899,2.0899,2.0899,2.0899,2.0899,2.0899,2.0955,2.0994,2.0994,2.1984,2.2409,2.1554,2.2528,2.3184,2.2958,2.4771,2.5947,2.5947,2.6752,2.6956,2.6314,2.6626,2.6824,2.6824,2.7125,2.7743,2.8582,2.8593,2.8593,2.8593,2.8593,2.8593,2.8593,2.8593,2.8593,2.8593,2.8593,2.8593,2.8562,2.8189,2.8034,2.7993,2.769,2.7545,2.7524,2.7348,2.7309,2.7309,2.7309,2.7309,2.7309,2.7309,2.7309,2.7309,2.7309,2.7309,2.7309,2.7309,2.7309,2.7309,2.7309,2.7309,2.7309,2.7309,2.7309,2.7309,2.7309,2.7309,2.7309,2.7309,2.7309,2.7309,2.7309,2.7309,2.7309,2.7309,2.7309,2.7309,2.7309,2.7309,2.7309,2.7309,2.7309,2.7607,2.8351,2.8421,2.8105,2.7357,2.7691,2.7951,2.7998,2.8477,2.8757,2.8803,2.8803,2.8803,2.8803,2.8803,2.8803,2.8803,2.8803,2.8803,1.9946,0.0,0.0,2.0789,2.0694,2.0624,0.0,0.0,2.0899,2.0899,2.0899,2.0899,2.0899,2.0899,2.0899,2.0899,2.1161,2.1341,2.1341,2.2634,2.3529,2.3397,2.4909,2.5578,2.4638,2.5936,2.6851,2.6851,2.6978,2.7392,2.8228,2.8329,2.836,2.836,2.8412,2.8482,2.8593,2.8593,2.8593,2.8593,2.8593,2.8593,2.8593,2.8593,2.8593,2.8593,2.8593,2.8593,2.8607,2.8531,2.851,2.851,2.8458,2.8462,2.8369,2.7586,2.7309,2.7309,2.7309,2.7309,2.7309,2.7309,2.7309,2.7309,2.7309,2.7309,2.7309,2.7309,2.7309,2.7309,2.7309,2.7309,2.7309,2.7309,2.7309,2.7309,2.7309,2.7309,2.7309,2.7309,2.7309,2.7309,2.7309,2.7309,2.7309,2.7309,2.7309,2.7309,2.7309,2.7309,2.7309,2.7309,2.7309,2.7333,2.7441,2.7465,2.7418,2.7309,2.7513,2.7749,2.7998,2.829,2.8558,2.8803,2.8803,2.8803,2.8803,2.8803,2.8803,2.8803,2.8803,2.8803,2.0248,0.0,0.0,0.0,2.0822,2.0771,2.0865,2.0899,2.0899,2.0899,2.0899,2.0899,2.0899,2.1066,2.1174,0.0,2.2056,2.2725,2.2725,2.441,2.5609,2.5609,2.7082,2.7576,2.6212,2.7194,2.792,2.792,2.792,2.8131,2.8593,2.8866,2.9021,2.9021,2.928,2.9415,2.9415,2.9415,2.9415,2.9415,2.9415,2.9415,2.9415,2.9415,2.9415,2.9415,2.9415,2.9415,2.9394,2.9125,2.9021,2.899,2.8721,2.8593,2.8566,2.8193,2.8048,2.8048,2.8048,2.8048,2.8048,2.8048,2.8048,2.8048,2.8048,2.8048,2.8048,2.8048,2.8048,2.8048,2.8048,2.8048,2.8048,2.8048,2.8048,2.8048,2.8048,2.8048,2.8048,2.8048,2.8048,2.8048,2.8048,2.8048,2.8048,2.8048,2.7617,2.7309,2.7309,2.7309,2.7309,2.7309,2.7309,2.7309,2.7309,2.7309,2.7357,2.7476,2.7702,2.7951,2.822,2.8477,2.8687,2.8803,2.8803,2.8803,2.8803,2.8803,2.8803,2.8803,2.8803,2.8803,2.0359,0.0,0.0,2.0719,2.0796,2.0796,2.0796,2.0848,2.0923,2.1026,2.1042,2.1169,2.1593,2.1619,2.1663,2.1972,2.3044,2.3838,2.3838,2.5843,2.7314,2.7314,2.8603,2.9044,2.794,2.8523,2.9001,2.9001,2.9001,2.9001,2.9001,2.9311,2.9497,2.9497,2.9818,2.9994,2.9994,2.9994,2.9994,2.9994,2.9994,2.9994,2.9994,2.9994,2.9994,2.9994,2.9994,2.9994,2.9973,2.9632,2.9497,2.9466,2.9125,2.9001,2.9001,2.9001,2.881,2.8593,2.8593,2.8593,2.8593,2.8593,2.8593,2.8593,2.8593,2.8593,2.8593,2.8593,2.8593,2.8593,2.8593,2.8593,2.8593,2.8593,2.8593,2.8593,2.8593,2.8593,2.8593,2.8593,2.8593,2.8593,2.8593,2.8593,2.8593,2.8593,2.8048,2.7659,2.7659,2.7659,2.7659,2.7659,2.7659,2.7659,2.7659,2.7659,2.7731,2.7875,2.8057,2.8232,2.8363,2.8625,2.8748,2.8687,2.8757,2.8803,2.8803,2.8803,2.8869,2.9,2.9,2.9053,0.0,0.0,2.0189,2.0437,2.0514,2.0514,2.0514,2.0719,2.0994,2.1309,2.1381,2.1836,2.3344,2.272,2.2336,2.3455,2.3957,2.417,2.417,2.6474,2.8157,2.8157,2.925,2.9973,0.0,2.9953,2.9953,2.9953,2.9953,2.9953,2.9953,2.9963,2.9973,2.9973,2.9984,2.9994,2.9994,2.9994,2.9994,2.9994,2.9994,2.9994,2.9994,2.9994,2.9994,2.9994,2.9994,2.9994,2.9994,2.9984,2.9973,2.9973,2.9953,2.9953,2.9953,2.9953,2.9384,2.8593,2.8593,2.8593,2.8593,2.8593,2.8593,2.8593,2.8593,2.8593,2.8593,2.8593,2.8593,2.8593,2.8593,2.8593,2.8593,2.8593,2.8593,2.8593,2.8593,2.8593,2.8593,2.8593,2.8593,2.8593,2.8593,2.8593,2.8593,2.8593,2.8587,2.8566,2.8566,2.8566,2.8566,2.8566,2.8566,2.8566,2.8566,2.8566,2.8566,2.8576,2.8576,2.8503,2.831,2.8569,2.8609,2.8429,2.8664,2.8803,2.8803,2.8803,2.9021,2.9491,2.9491,2.9718,0.0,0.0,2.0163,2.0437,2.0617,2.0834,2.1036,2.117,2.1343,2.1711,2.2405,2.2861,2.2622,2.3703,2.4516,2.4106,2.5621,2.6853,2.6853,2.833,2.9524,2.9829,3.0226,0.0,0.0,0.0,0.0,3.045,3.0766,3.0942,3.0942,3.0942,3.0942,3.0942,3.0942,3.0942,3.0942,3.0942,3.0942,3.0942,3.0942,3.0942,3.0942,3.0942,3.0942,3.0922,3.0611,3.045,3.0429,3.0118,2.9994,2.9994,2.9994,2.9994,2.9994,2.9994,2.9798,2.9528,2.9528,2.9528,2.9528,2.9528,2.9528,2.9528,2.9528,2.9528,2.9528,2.9528,2.9528,2.9528,2.9528,2.9528,2.9528,2.9528,2.9528,2.9528,2.9528,2.9528,2.9528,2.9528,2.9528,2.9528,2.9528,2.9528,2.9528,2.9528,2.9011,2.8593,2.8593,2.8593,2.8593,2.8593,2.8593,2.8593,2.8593,2.8593,2.8668,2.8853,2.8877,2.8989,2.9273,2.9385,2.9481,2.9585,2.967,2.9718,2.9718,2.9718,2.9805,2.9969,2.9969,3.0057,0.0,2.0086,2.0305,2.048,2.0745,2.1021,2.1402,2.1446,2.1567,2.2077,2.2754,2.3344,2.3577,2.469,2.546,2.5091,2.658,2.78,2.7827,2.8954,3.0092,3.0868,3.0963,0.0,0.0,0.0,0.0,3.0973,3.1232,3.1408,3.1408,3.1408,3.1408,3.1408,3.1408,3.1408,3.1408,3.1408,3.1408,3.1408,3.1408,3.1408,3.1408,3.1408,3.1408,3.1388,3.1087,3.0963,3.0942,3.0605,3.0491,3.0491,3.0491,3.0491,3.0491,3.0491,3.0491,3.0439,3.0108,2.9994,2.9994,2.9994,2.9994,2.9994,2.9994,2.9994,2.9994,2.9994,2.9994,2.9994,2.9994,2.9994,2.9994,2.9994,2.9994,2.9994,2.9994,2.9994,2.9994,2.9994,2.9994,2.9994,2.9994,2.9994,2.9994,2.9994,2.9487,2.9104,2.9104,2.9104,2.9104,2.9104,2.9104,2.9104,2.9104,2.9104,2.9165,2.9353,2.9197,2.9253,2.9604,2.9544,2.9656,2.9916,3.0014,3.0087,3.0185,3.0185,3.0297,3.0461,3.0461,3.0548,1.9732,2.0109,2.0511,2.0592,2.0824,2.1126,2.1541,2.1611,2.1724,2.2387,2.2569,2.3393,0.0,0.0,2.5376,2.6436,2.6967,2.7262,2.7401,2.862,2.9968,0.0,0.0,0.0,0.0,0.0,0.0,3.1512,0.0,3.1471,3.1471,3.1471,3.1471,3.1471,3.1471,3.1471,3.1471,3.1471,3.1471,3.1471,3.1471,3.1471,3.1471,3.1471,3.1471,3.1471,3.145,3.144,3.144,3.1419,3.1408,3.1408,3.1408,3.1408,3.1408,3.1408,3.1408,3.1274,3.0367,3.0067,3.0067,3.0036,3.0036,3.0025,3.0005,2.9994,2.9994,2.9994,2.9994,2.9994,2.9994,2.9994,2.9994,2.9994,2.9994,2.9994,2.9994,2.9994,2.9994,2.9994,2.9994,2.9994,2.9994,2.9994,2.9994,2.9994,2.9994,2.9994,2.9994,2.9994,2.9994,2.9994,2.9994,2.9994,2.9994,2.9994,2.9994,2.9994,2.958,2.9342,2.9368,2.918,2.9225,2.9487,2.9745,3.0027,3.0261,3.0261,3.0504,3.093,3.093,3.1181,1.9931,2.0269,2.0614,2.0849,2.1146,2.1541,2.2139,2.2272,2.2367,2.2779,2.3597,2.4418,0.0,0.0,0.0,2.8239,2.9421,0.0,3.0316,3.0637,0.0,3.1771,0.0,3.1984,3.2326,3.246,0.0,0.0,3.2357,3.2357,3.2357,3.2357,3.2357,3.2357,3.2357,3.2357,3.2357,3.2357,3.2357,3.2357,3.2357,3.2357,3.2357,3.2357,3.2357,3.2336,3.1995,3.184,3.1819,3.1516,3.1408,3.1408,3.1408,3.1408,3.1408,3.1408,3.1408,3.1377,3.1139,3.1056,3.0994,3.0652,3.0512,3.045,3.0098,2.9994,2.9994,2.9994,2.9994,2.9994,2.9994,2.9994,2.9994,2.9994,2.9994,2.9994,2.9994,2.9994,2.9994,2.9994,2.9994,2.9994,2.9994,2.9994,2.9994,2.9994,2.9994,2.9994,2.9994,2.9994,2.9994,2.9994,2.9994,2.9994,2.9994,2.9994,2.9994,2.9994,2.988,2.9912,3.0109,3.0247,3.0466,3.0736,3.1016,3.1168,3.1233,3.1233,3.1298,3.1407,3.1407,3.1484,2.0261,2.0628,2.1162,2.2012,2.2371,2.2822,2.3995,2.3739,2.3529,2.4358,2.4686,0.0,0.0,0.0,0.0,0.0,0.0,0.0,3.0919,3.1024,3.1426,0.0,3.2315,0.0,3.2677,3.2698,3.2698,0.0,3.2698,3.2698,3.2698,3.2698,3.2698,3.2698,3.2698,3.2698,3.2698,3.2698,3.2698,3.2698,3.2698,3.2698,3.2698,3.2698,3.2698,3.2688,0.0,3.2315,3.2295,3.2047,3.1971,3.1971,3.1971,3.1971,3.1971,3.1971,3.1971,3.1971,3.1971,3.1971,3.1857,3.1232,3.1015,3.0973,3.0677,3.0605,3.0605,3.0605,3.0487,3.0294,3.0294,3.0149,2.9994,2.9994,2.9994,2.9994,2.9994,2.9994,2.9994,2.9994,2.9994,2.9994,2.9994,2.9994,2.9994,2.9994,3.017,3.0294,3.0294,3.0118,2.9994,2.9994,2.9994,2.9994,2.9994,2.9994,2.9994,2.9994,2.9927,3.0026,3.038,3.0471,3.0717,3.1204,3.1347,3.1476,3.1593,3.1593,3.1593,3.1593,3.1593,3.1593,2.0724,2.132,2.2242,2.353,2.3959,2.4505,2.6127,2.5507,2.4937,2.6236,0.0,2.5876,2.8417,2.9002,2.9262,2.9839,0.0,3.0492,3.0606,3.0884,3.145,3.2584,3.2698,3.2698,3.2698,3.2698,3.2698,3.2698,3.2698,3.2698,3.2698,3.2698,3.2698,3.2698,3.2698,3.2698,3.2698,3.2698,3.2698,3.2698,3.2698,3.2698,3.2698,3.2698,3.2698,3.2698,0.0,0.0,3.2698,3.2698,3.2698,3.2698,3.2698,3.2698,3.2698,3.2698,3.2698,3.2698,3.2698,3.2698,3.2564,3.1743,3.1464,3.1481,3.1419,3.1408,3.1408,3.1408,3.1118,3.0781,3.0781,3.0481,3.018,3.018,3.018,3.018,3.018,3.018,3.018,3.018,3.018,3.018,3.018,3.018,3.018,3.018,3.0522,3.0781,3.0781,3.0429,3.018,3.018,3.018,3.018,3.018,3.018,3.0149,3.0087,2.9927,2.9983,3.0328,3.0244,3.0478,3.1116,3.123,3.1373,3.1593,3.1593,3.1593,3.1593,3.1593,3.1593,2.147,2.2982,2.4685,2.4243,2.4864,2.5756,2.6363,2.6291,0.0,0.0,0.0,2.7207,2.8639,2.9518,3.0376,3.1414,0.0,0.0,0.0,0.0,3.2459,0.0,0.0,0.0,0.0,0.0,0.0,0.0,0.0,0.0,3.2698,3.2698,3.2698,3.2698,3.2698,3.2698,3.2698,3.2698,3.2698,3.2698,3.2698,3.2698,3.2698,3.2698,3.2698,3.2698,0.0,0.0,3.2698,3.2698,3.2698,3.2698,3.2698,3.2698,3.2698,3.2698,3.2698,3.2698,3.2698,3.2698,3.2615,3.2067,3.1902,3.1829,3.1485,3.1408,3.1408,3.1408,3.1346,3.1284,3.1284,3.1222,3.117,3.117,3.117,3.117,3.117,3.117,3.117,3.117,3.117,3.117,3.117,3.117,3.117,3.117,3.1232,3.1284,3.1284,3.1212,3.117,3.117,3.117,3.117,3.117,3.117,3.1004,3.0594,3.0544,3.0384,3.0083,3.0468,3.0742,3.0879,3.1296,3.1542,3.1593,3.1593,3.1593,3.1593,3.1593,3.1593,2.334,2.4562,2.5843,2.6178,2.6712,2.7346,2.8152,0.0,0.0,0.0,2.8377,2.8592,3.0214,3.0878,0.0,0.0,0.0,0.0,0.0,0.0,0.0,0.0,0.0,0.0,0.0,0.0,0.0,0.0,0.0,0.0,3.2698,3.2698,3.2698,3.2698,3.2698,3.2698,3.2698,3.2698,3.2698,3.2698,3.2698,3.2698,3.2698,3.2698,3.2698,3.2698,3.2698,0.0,3.2698,3.2698,3.2698,3.2698,3.2698,3.2698,3.2698,3.2698,3.2698,3.2698,3.2698,3.2698,3.2667,3.245,3.2367,3.2336,3.2147,3.2085,3.2085,3.2085,3.1909,3.1723,3.1723,3.1557,3.1408,3.1408,3.1408,3.1408,3.1408,3.1408,3.1408,3.1408,3.1408,3.1408,3.1408,3.1408,3.1408,3.1408,3.1578,3.1723,3.1723,3.194,3.1899,3.145,3.1408,3.1408,3.1408,3.1408,3.1305,3.1087,3.1202,3.1222,3.1152,3.154,3.1804,3.1989,3.2252,3.2372,3.2372,3.2372,3.2372,3.2372,3.2372,3.2372,2.506,2.6059,2.7083,2.7985,2.8392,2.8827,2.9774,2.928,0.0,0.0,3.0029,2.9966,3.1683,0.0,3.2284,0.0,3.2698,0.0,0.0,0.0,0.0,0.0,0.0,0.0,0.0,0.0,0.0,0.0,0.0,0.0,3.2698,3.2698,3.2698,3.2698,3.2698,3.2698,3.2698,3.2698,3.2698,3.2698,3.2698,3.2698,3.2698,3.2698,3.2698,3.2698,3.2698,0.0,0.0,3.2698,3.2698,3.2698,3.2698,3.2698,3.2698,3.2698,3.2698,3.2698,3.2698,3.2698,3.2698,3.2698,3.2698,3.2698,3.2698,3.2698,3.2698,3.2698,3.2439,3.216,3.216,3.193,3.1671,3.1671,3.1671,3.1671,3.1671,3.1671,3.1671,3.1671,3.1671,3.1671,3.1671,3.1671,3.1671,3.1671,3.1961,3.216,3.216,3.2481,3.2429,3.1743,3.1671,3.1671,3.1671,3.1671,3.1657,3.1526,3.1735,3.1919,3.2113,3.2362,3.2685,3.3017,3.3071,3.3098,3.3098,3.3098,3.3098,3.3098,3.3098,3.3098,2.5557,2.7412,2.9398,2.8436,2.9022,2.9853,2.9968,0.0,0.0,3.0594,3.0965,3.1344,3.1895,3.2357,0.0,0.0,3.2698,3.2698,0.0,0.0,0.0,0.0,0.0,0.0,0.0,0.0,0.0,0.0,0.0,0.0,0.0,3.2698,3.2698,3.2698,3.2698,3.2698,3.2698,3.2698,3.2698,3.2698,3.2698,3.2698,3.2698,3.2698,3.2698,3.2698,0.0,0.0,0.0,3.2698,3.2698,3.2698,3.2698,3.2698,3.2698,3.2698,3.2698,3.2698,3.2698,3.2698,3.2698,3.2698,3.2698,3.2698,3.2698,3.2698,3.2698,3.2698,3.2667,3.2636,3.2636,3.2605,3.2574,3.2574,3.2574,3.2574,3.2574,3.2574,3.2574,3.2574,3.2574,3.2574,3.2574,3.2574,3.2574,3.2574,3.2615,3.2636,3.2636,3.2677,3.2667,3.2584,3.2574,3.2574,3.2574,3.2574,3.2398,3.1974,3.1981,3.1923,3.1835,3.2102,3.2399,3.2733,3.2991,3.3098,3.3098,3.3098,3.3098,3.3098,3.3098,3.3098,2.7568,2.8831,2.9879,2.9412,2.9633,2.9994,2.9994,0.0,3.0212,3.0973,3.1274,3.1598,3.2295,3.2574,3.2698,3.2698,3.2698,3.2698,3.2698,0.0,0.0,0.0,0.0,0.0,0.0,0.0,0.0,0.0,0.0,0.0,0.0,3.2698,3.2698,3.2698,3.2698,3.2698,3.2698,3.2698,3.2698,3.2698,3.2698,3.2698,3.2698,3.2698,3.2698,3.2698,0.0,0.0,0.0,3.2698,3.2698,3.2698,3.2698,3.2698,3.2698,3.2698,3.2698,3.2698,3.2698,3.2698,3.2698,3.2698,3.2698,3.2698,3.2698,3.2698,3.2698,3.2698,3.2698,3.2698,3.2698,3.2698,3.2698,3.2698,3.2698,3.2698,3.2698,3.2698,3.2698,3.2698,3.2698,3.2698,3.2698,3.2698,3.2698,3.2698,3.2698,3.2698,3.2698,3.2698,3.2698,3.2698,3.2698,3.2698,3.2698,3.2698,3.2626,3.2439,3.2429,3.2572,3.2888,3.2988,3.3283,3.378,3.389,3.3945,3.3945,3.3945,3.3945,3.3945,3.3945,3.3945,2.8973,2.9642,2.9994,2.9994,2.9994,2.9994,0.0,0.0,3.0263,3.1212,3.1408,3.1678,3.2533,3.2698,3.2698,3.2698,3.2698,3.2698,3.2698,0.0,0.0,0.0,0.0,0.0,0.0,0.0,0.0,0.0,0.0,0.0,0.0,3.2894,3.2832,3.2708,3.2698,3.2698,3.2698,3.2698,3.2698,3.2698,3.2698,3.2698,3.2698,3.2698,3.2698,3.2698,0.0,0.0,0.0,3.2698,3.2698,3.2698,3.2698,3.2698,3.2698,3.2698,3.2698,3.2698,3.2698,3.2698,3.2698,3.2698,3.2698,3.2698,3.2698,3.2698,3.2698,3.2698,3.2698,3.2698,3.2698,3.2698,3.2698,3.2698,3.2698,3.2698,3.2698,3.2698,3.2698,3.2698,3.2698,3.2698,3.2698,3.2698,3.2698,3.2698,3.2698,3.2698,3.2698,3.2698,3.2698,3.2698,3.2698,3.2698,3.2698,3.2698,3.2698,3.2698,3.2698,3.2926,3.3466,3.3494,3.3777,3.4367,3.4384,3.4412,3.4496,3.4496,3.4496,3.4496,3.4496,3.4496,2.9177,2.9642,2.9994,2.9994,2.9994,2.9994,0.0,0.0,3.0263,3.1212,3.1408,3.1678,3.2533,3.2698,3.2698,3.2698,3.2698,3.2698,3.2698,0.0,0.0,0.0,0.0,0.0,0.0,0.0,0.0,0.0,0.0,0.0,0.0,3.3397,3.3172,3.2719,3.2698,3.2698,3.2698,3.2698,3.2698,3.2698,3.2698,3.2698,3.2698,3.2698,3.2698,0.0,0.0,0.0,0.0,3.2698,3.2698,3.2698,3.2698,3.2698,3.2698,3.2698,3.2698,3.2698,3.2698,3.2698,3.2698,3.2698,3.2698,3.2698,3.2698,3.2698,3.2698,3.2698,3.2698,3.2698,3.2698,3.2698,3.2698,3.2698,3.2698,3.2698,3.2698,3.2698,3.2698,3.2698,3.2698,3.2698,3.2698,3.2698,3.2698,3.2698,3.2698,3.2698,3.2698,3.2698,3.2698,3.2698,3.2698,3.2698,3.2698,3.2698,3.2698,3.2698,3.2698,3.2851,3.3193,3.3193,3.3505,3.4086,3.4086,3.4227,3.4496,3.4496,3.4496,3.4496,3.4496,3.4496,2.9559,2.988,2.9994,2.9994,2.9994,2.9994,2.9994,0.0,3.0263,3.1212,3.1408,3.1678,3.2533,3.2698,3.2698,3.2698,3.2698,3.2698,0.0,0.0,0.0,0.0,0.0,0.0,0.0,0.0,0.0,0.0,0.0,0.0,0.0,3.3874,3.3532,3.2729,3.2698,3.2698,3.2698,3.2698,3.2698,3.2698,3.2698,3.2698,3.2698,3.2698,0.0,0.0,0.0,0.0,0.0,3.2698,3.2698,3.2698,3.2698,3.2698,3.2698,3.2698,3.2698,3.2698,3.2698,3.2698,3.2698,3.2698,3.2698,3.2698,3.2698,3.2698,3.2698,3.2698,3.2698,3.2698,3.2698,3.2698,3.2698,3.2698,3.2698,3.2698,3.2698,3.2698,3.2698,3.2698,3.2698,3.2698,3.2698,3.2698,3.2698,3.2698,3.2698,3.2698,3.2698,3.2698,3.2698,3.2698,3.2698,3.2698,3.2698,3.2698,3.2698,3.2698,3.2698,3.2851,3.3193,3.3193,3.3477,3.4097,3.4086,3.4227,3.4496,3.4496,3.4496,3.4496,3.4496,3.4496,0.0,2.9994,2.9994,2.9994,2.9994,0.0,0.0,0.0,3.047,3.1243,3.1505,3.1857,3.2564,3.2698,3.2698,3.2698,3.2698,3.2698,0.0,0.0,0.0,0.0,0.0,0.0,0.0,0.0,0.0,0.0,0.0,0.0,0.0,0.0,3.4029,3.3254,3.3234,3.3234,3.3234,3.3234,3.3234,3.3234,3.3234,3.3234,3.3223,3.3047,0.0,0.0,0.0,0.0,0.0,3.2698,3.2698,3.2698,3.2698,3.2698,3.2698,3.2698,3.2698,3.2698,3.2698,3.2698,3.2698,3.2698,3.2698,3.2698,3.2698,3.2698,3.2698,3.2698,3.2698,3.2698,3.2698,3.2698,3.2698,3.2698,3.2698,3.2698,3.2698,3.2698,3.2698,3.2698,3.2698,3.2698,3.2698,3.2698,3.2698,3.2698,3.2698,3.2698,3.2698,3.2698,3.2698,3.2698,3.2698,3.2698,3.2698,3.2698,3.2698,3.2698,3.2698,3.2784,3.2994,3.3022,3.3296,3.3889,3.3918,3.4114,3.4496,3.4496,3.4496,3.4496,3.4496,3.4496,0.0,0.0,0.0,0.0,0.0,0.0,0.0,0.0,0.0,3.1305,3.1733,3.2122,3.2615,3.2698,3.2698,3.2698,3.2698,0.0,0.0,0.0,0.0,0.0,0.0,0.0,0.0,0.0,0.0,0.0,0.0,0.0,0.0,0.0,3.464,3.4205,3.4195,3.4164,3.4102,3.4102,3.4102,3.4102,3.4102,3.4102,3.4081,3.3656,0.0,0.0,0.0,0.0,0.0,3.276,3.275,3.275,3.2719,3.2698,3.2698,3.2698,3.2698,3.2698,3.2698,3.2698,3.2698,3.2698,3.2698,3.2698,3.2698,3.2698,3.2698,3.2698,3.2698,3.2698,3.2698,3.2698,3.2698,3.2698,3.2698,3.2698,3.2698,3.2698,3.2698,3.2698,3.2698,3.2698,3.2698,3.2698,3.2698,3.2698,3.2698,3.2698,3.2698,3.2698,3.2698,3.2698,3.2698,3.2698,3.2698,3.2698,3.2698,3.2698,3.2698,3.2698,3.2698,3.2737,3.3012,3.3597,3.3653,3.3935,3.4496,3.4496,3.4496,3.4496,3.4496,3.4496,0.0,0.0,0.0,0.0,0.0,0.0,0.0,0.0,0.0,0.0,0.0,3.2122,3.2615,3.2698,3.2698,3.2698,3.2698,0.0,0.0,0.0,0.0,0.0,0.0,0.0,0.0,0.0,0.0,0.0,0.0,0.0,0.0,0.0,3.5211,3.5107,3.5097,3.4766,3.4102,3.4102,3.4102,3.4102,3.4102,3.4102,3.4091,3.3988,0.0,0.0,0.0,0.0,3.375,3.3368,3.3252,3.3192,3.2832,3.2698,3.2698,3.2698,3.2698,3.2698,3.2698,3.2698,3.2698,3.2698,3.2698,3.2698,3.2698,3.2698,3.2698,3.2698,3.2698,3.2698,3.2698,3.2698,3.2698,3.2698,3.2698,3.2698,3.2698,3.2698,3.2698,3.2698,3.2698,3.2698,3.2698,3.2698,3.2698,3.2698,3.2698,3.2698,3.2698,3.2698,3.2698,3.2698,3.2698,3.2698,3.2698,3.2698,3.2698,3.2698,3.2698,3.2698,3.2698,3.2965,3.3239,3.3597,3.4047,3.4356,3.4496,3.4496,3.4496,3.4496,3.4496,3.4496,0.0,0.0,0.0,0.0,0.0,0.0,0.0,0.0,0.0,0.0,0.0,3.2408,3.2657,3.2698,3.2698,3.2698,3.2698,0.0,0.0,0.0,0.0,0.0,0.0,0.0,0.0,0.0,0.0,0.0,0.0,0.0,0.0,0.0,3.5387,3.5387,3.5387,3.5159,3.4693,3.4693,3.4693,3.4693,3.4693,3.4693,3.4683,3.4506,0.0,0.0,0.0,0.0,3.4081,3.3832,3.3719,3.3677,3.3203,3.3027,3.3006,3.277,3.2698,3.2698,3.2698,3.2698,3.2698,3.2698,3.2698,3.2698,3.2698,3.2698,3.2698,3.2698,3.2698,3.2698,3.2698,3.2698,3.2698,3.2698,3.2698,3.2698,3.2698,3.2698,3.2698,3.2698,3.2698,3.2698,3.2698,3.2698,3.2698,3.2698,3.2698,3.2698,3.2698,3.2698,3.2698,3.2698,3.2698,3.2698,3.2698,3.2698,3.2698,3.2698,3.2698,3.2698,3.2698,3.3022,3.3392,3.3833,3.4272,3.4496,3.4496,3.4496,3.4496,3.4496,3.4496,3.4496,0.0,0.0,0.0,0.0,0.0,0.0,0.0,0.0,0.0,0.0,0.0,0.0,0.0,3.2698,0.0,0.0,0.0,0.0,0.0,0.0,0.0,0.0,0.0,0.0,0.0,0.0,0.0,0.0,0.0,0.0,0.0,0.0,0.0,3.5387,3.5387,3.5387,3.5387,3.5387,3.5387,3.5387,3.5387,3.5387,3.5376,3.5065,0.0,0.0,0.0,0.0,3.4299,3.4226,3.4205,3.4154,3.3698,3.3511,3.347,3.3068,3.2863,3.2791,3.2729,3.2698,3.2698,3.2698,3.2698,3.2698,3.2698,3.2698,3.2698,3.2698,3.2698,3.2698,3.2698,3.2698,3.2698,3.2698,3.2698,3.2698,3.2698,3.2698,3.2698,3.2698,3.2698,3.2698,3.2698,3.2698,3.2698,3.2698,3.2698,3.2698,3.2698,3.2698,3.2698,3.2698,3.2698,3.2698,3.2698,3.2698,3.2698,3.2698,3.2698,3.2727,3.2841,3.3097,3.3551,3.4142,3.4384,3.4496,3.4496,3.4496,3.4496,3.4496,3.4496,3.4496,2.9746,2.9994,2.9994,0.0,0.0,0.0,0.0,0.0,0.0,0.0,0.0,0.0,0.0,0.0,0.0,0.0,0.0,0.0,0.0,0.0,0.0,0.0,0.0,0.0,0.0,0.0,0.0,0.0,0.0,0.0,0.0,0.0,0.0,3.5387,3.5387,3.5387,3.5387,3.5387,3.5387,3.5387,3.5387,3.5387,3.5387,3.5355,3.5324,0.0,0.0,3.5211,3.518,3.4837,3.4682,3.464,3.4174,3.3988,3.3988,3.3915,3.3646,3.3234,3.2832,3.2698,3.2698,3.2698,3.2698,3.2698,3.2698,3.2698,3.2698,3.2698,3.2698,3.2698,3.2698,3.2698,3.2698,3.2698,3.2698,3.2698,3.2698,3.2698,3.2698,3.2698,3.2698,3.2698,3.2698,3.2698,3.2698,3.2698,3.2698,3.2698,3.2698,3.2698,3.2698,3.2698,3.2698,3.2698,3.2698,3.2698,3.2698,3.2698,3.2698,3.2926,3.3438,3.3512,3.3822,3.444,3.4468,3.4496,3.4496,3.4496,3.4496,3.4496,3.4496,3.4496,2.9746,2.9994,2.9994,2.9994,0.0,0.0,0.0,0.0,0.0,0.0,0.0,0.0,0.0,0.0,0.0,0.0,0.0,0.0,0.0,0.0,0.0,0.0,0.0,0.0,0.0,0.0,0.0,0.0,0.0,0.0,0.0,0.0,0.0,0.0,3.5387,3.5387,3.5387,3.5387,3.5387,3.5387,3.5387,3.5387,3.5387,3.5387,3.5387,3.5387,0.0,3.5387,3.5407,3.52,3.5117,3.5076,3.4651,3.4475,3.4444,3.4195,3.3967,3.375,3.3524,3.3451,3.341,3.3161,3.3078,3.3037,3.277,3.2698,3.2698,3.2698,3.2698,3.2698,3.2698,3.2698,3.2698,3.2698,3.2698,3.2698,3.2698,3.2698,3.2698,3.2698,3.2698,3.2698,3.2698,3.2698,3.2698,3.2698,3.2698,3.2698,3.2698,3.2698,3.2698,3.2698,3.2698,3.2698,3.2698,3.2698,3.2698,3.2698,3.2698,3.2983,3.3579,3.3597,3.3879,3.4496,3.4496,3.4496,3.4496,3.4496,3.4496,3.4496,3.4496,3.4496,2.9777,2.9994,3.0025,3.0129,0.0,0.0,0.0,0.0,0.0,0.0,0.0,0.0,0.0,0.0,0.0,0.0,0.0,0.0,0.0,0.0,0.0,0.0,0.0,0.0,0.0,0.0,0.0,0.0,0.0,0.0,0.0,0.0,0.0,0.0,3.5387,3.5387,3.5387,3.5387,3.5387,3.5387,3.5387,3.5387,3.5387,3.5387,3.5387,3.5387,3.5387,3.5387,3.5387,3.5387,3.5387,3.5356,3.5045,3.4941,3.4889,3.4433,3.4257,3.4247,3.4133,3.4102,3.404,3.3687,3.3563,3.3491,3.3016,3.2853,3.2832,3.2729,3.2698,3.2698,3.2698,3.2698,3.2698,3.2698,3.2698,3.2698,3.2698,3.2698,3.2698,3.2698,3.2698,3.2698,3.2698,3.2698,3.2698,3.2698,3.2698,3.2698,3.2698,3.2698,3.2698,3.2698,3.2698,3.2698,3.2698,3.2698,3.2698,3.2698,3.2698,3.2983,3.3579,3.3597,3.3879,3.4496,3.4496,3.4496,3.4496,3.4496,3.4496,3.4496,3.4496,3.4496,2.986,2.9994,3.0098,3.0532,3.0694,0.0,3.1295,3.1723,0.0,3.2605,0.0,0.0,0.0,0.0,0.0,0.0,0.0,0.0,0.0,0.0,0.0,0.0,0.0,0.0,0.0,0.0,0.0,0.0,0.0,0.0,0.0,0.0,0.0,0.0,0.0,3.5387,3.5387,3.5387,3.5387,3.5387,3.5387,3.5387,3.5387,3.5387,3.5387,3.5387,3.5387,3.5387,3.5387,3.5387,3.5387,3.5387,3.5356,3.5376,3.5324,3.4899,3.4744,3.4682,3.4247,3.4102,3.4091,3.406,3.405,3.3957,3.3501,3.3356,3.3244,3.2812,3.2698,3.2698,3.2698,3.2698,3.2698,3.2698,3.2698,3.2698,3.2698,3.2698,3.2698,3.2698,3.2698,3.2698,3.2698,3.2698,3.2698,3.2698,3.2698,3.2698,3.2698,3.2698,3.2698,3.2698,3.2698,3.2698,3.2698,3.2698,3.2698,3.2698,3.2698,3.2983,3.3579,3.3597,3.3879,3.4496,3.4496,3.4496,3.4496,3.4496,3.4496,3.4496,3.4496,3.4496,2.987,2.9994,3.0108,3.0574,3.0932,0.0,0.0,3.2109,3.2491,0.0,0.0,0.0,0.0,0.0,0.0,0.0,0.0,0.0,0.0,0.0,0.0,0.0,0.0,0.0,0.0,0.0,0.0,0.0,0.0,0.0,0.0,0.0,0.0,0.0,0.0,3.5387,3.5387,3.5387,3.5387,3.5387,3.5387,3.5387,3.5387,3.5387,3.5387,3.5387,3.5387,3.5387,3.5387,3.5387,3.5387,3.5387,3.5387,3.5387,3.5376,3.5231,3.5169,3.5148,3.4973,3.491,3.4859,3.462,3.4527,3.4444,3.3978,3.3636,3.3377,3.3182,3.2944,3.2698,3.2698,3.2698,3.2698,3.2698,3.2698,3.2698,3.2698,3.2698,3.2698,3.2698,3.2698,3.2698,3.2698,3.2698,3.2698,3.2698,3.2698,3.2698,3.2698,3.2698,3.2698,3.2698,3.2698,3.2698,3.2698,3.2698,3.2698,3.2698,3.2698,3.2908,3.3324,3.3523,3.3805,3.4255,3.4412,3.4496,3.4496,3.4496,3.4496,3.4496,3.4496,3.4496,2.9911,3.0098,3.0325,3.0818,0.0,0.0,3.2129,3.2481,3.2698,0.0,0.0,0.0,0.0,0.0,0.0,0.0,0.0,0.0,0.0,0.0,0.0,0.0,0.0,0.0,0.0,0.0,0.0,0.0,0.0,0.0,0.0,0.0,0.0,0.0,0.0,0.0,3.4787,3.5201,3.5201,3.4777,3.5201,3.5387,3.5387,3.5387,3.5387,3.5387,3.5387,3.5387,3.5387,3.5387,3.5387,3.5387,3.5387,3.5387,3.5387,3.5387,3.5387,3.5387,3.5387,3.5387,3.5345,3.5066,3.5003,3.491,3.4454,3.3988,3.3594,3.3449,3.3068,3.2698,3.2698,3.2698,3.2698,3.2698,3.2698,3.2698,3.2698,3.2698,3.2698,3.2698,3.2698,3.2698,3.2698,3.2698,3.2698,3.2698,3.2698,3.2698,3.2698,3.2698,3.2698,3.2698,3.2698,3.2698,3.2698,3.2698,3.2698,3.2698,3.2698,3.2851,3.3193,3.3466,3.3749,3.4086,3.4356,3.4496,3.4496,3.4496,3.4496,3.4496,3.4496,3.4496,2.9994,3.0336,3.0801,0.0,0.0,0.0,3.2595,3.2698,3.2698,0.0,0.0,0.0,0.0,0.0,0.0,0.0,0.0,0.0,0.0,0.0,0.0,0.0,0.0,0.0,0.0,0.0,0.0,0.0,0.0,0.0,0.0,0.0,0.0,0.0,0.0,0.0,3.341,3.4725,3.4725,3.341,3.4746,3.5387,3.5387,3.5387,3.5387,3.5387,3.5387,3.5387,3.5387,3.5387,3.5387,3.5387,3.5387,3.5387,3.5387,3.5397,3.5387,3.5387,3.5387,3.5387,3.5387,3.5387,3.5387,3.5335,3.4931,3.4475,3.3998,3.3542,3.3068,3.2698,3.2698,3.2698,3.2669,3.2698,3.2698,3.2698,3.2698,3.2698,3.2698,3.2698,3.2698,3.2698,3.2698,3.2698,3.2698,3.2698,3.2698,3.2698,3.2698,3.2698,3.2698,3.2698,3.2698,3.2698,3.2698,3.2698,3.2698,3.2698,3.2698,3.2851,3.3193,3.3466,3.3749,3.4097,3.4356,3.4496,3.4496,3.4496,3.4496,3.4496,3.4496,3.4496,2.9994,3.0336,0.0,3.1295,0.0,0.0,0.0,3.2698,0.0,0.0,0.0,0.0,0.0,0.0,0.0,0.0,0.0,0.0,0.0,0.0,0.0,0.0,0.0,0.0,0.0,0.0,0.0,0.0,0.0,0.0,0.0,0.0,0.0,0.0,0.0,0.0,3.341,3.4725,3.4725,3.341,3.4746,3.5387,3.5387,3.5387,3.5387,3.5387,3.5387,3.5387,3.5387,3.5387,3.5387,3.5387,3.5387,3.5387,3.5294,3.433,3.3986,3.3986,3.3986,3.3986,3.4143,3.5098,3.5387,3.5366,3.5262,3.4683,3.4071,3.3936,3.3317,3.2698,3.2698,3.2047,3.1594,3.2498,3.2698,3.2698,3.2698,3.2698,3.2698,3.2698,3.2698,3.2698,3.2698,3.2698,3.2698,3.2698,3.2698,3.2698,3.2698,3.2698,3.2698,3.2698,3.2698,3.2698,3.2698,3.2698,3.2698,3.2698,3.2698,3.2727,3.2841,3.3314,3.3653,3.3749,3.4244,3.4496,3.4496,3.4496,3.4496,3.4496,3.4496,3.4496,3.0222,3.0605,0.0,3.1526,3.1953,0.0,0.0,0.0,0.0,0.0,0.0,0.0,0.0,0.0,0.0,0.0,0.0,0.0,0.0,0.0,0.0,0.0,0.0,0.0,0.0,0.0,0.0,0.0,0.0,0.0,0.0,0.0,0.0,0.0,0.0,0.0,3.1771,3.3107,3.3369,3.2568,3.3945,3.488,3.5387,3.5387,3.5387,3.5387,3.5387,3.5387,3.5387,3.5387,3.5387,3.5356,3.4808,3.4621,3.4434,3.3085,3.2578,3.2641,3.3221,3.341,3.3631,3.4974,3.5387,3.5387,3.5387,3.4786,3.4102,3.4102,3.3059,3.196,3.196,3.1392,3.1005,3.1777,3.196,3.196,3.196,3.2344,3.2698,3.2698,3.2698,3.2698,3.2698,3.2698,3.2698,3.2698,3.2698,3.2698,3.2698,3.2698,3.2698,3.2698,3.2698,3.2698,3.2698,3.2698,3.2698,3.2698,3.2698,3.2698,3.2698,3.3182,3.3494,3.3597,3.4076,3.4384,3.4496,3.4496,3.4496,3.4496,3.4496,3.4496,3.0563,0.0,0.0,3.1902,3.2357,0.0,0.0,0.0,0.0,0.0,0.0,0.0,0.0,0.0,0.0,0.0,0.0,0.0,0.0,0.0,0.0,0.0,0.0,0.0,0.0,0.0,0.0,0.0,0.0,0.0,0.0,0.0,0.0,0.0,0.0,0.0,2.9493,3.0807,3.1442,0.0,3.2727,3.4111,3.5387,3.5387,3.5387,3.5387,3.5387,3.5387,3.5397,3.5263,3.5232,3.5067,3.3725,3.3221,3.3053,3.1634,3.112,3.1313,3.2568,3.3022,3.3284,3.4746,3.5232,3.5232,3.5356,3.4725,3.3943,3.3943,3.2323,3.0616,3.0616,3.0616,3.0587,3.047,3.0733,3.0976,3.0976,3.1864,3.2698,3.2698,3.2698,3.2698,3.2698,3.2698,3.2698,3.2698,3.2698,3.2698,3.2698,3.2698,3.2698,3.2698,3.2698,3.2698,3.2698,3.2698,3.2698,3.2698,3.2698,3.2698,3.2698,3.3022,3.3296,3.3568,3.3918,3.4227,3.4468,3.4496,3.4496,3.4496,3.4496,3.4496,3.0563,3.1056,0.0,0.0,3.2357,0.0,0.0,0.0,0.0,0.0,0.0,0.0,0.0,0.0,0.0,0.0,0.0,0.0,0.0,0.0,0.0,0.0,0.0,0.0,0.0,0.0,0.0,0.0,0.0,0.0,0.0,0.0,0.0,0.0,0.0,3.1153,3.0872,3.225,3.2378,0.0,3.2727,3.4111,3.5387,3.5387,3.5387,3.5387,3.5387,3.5387,3.5325,3.4268,3.3819,3.3694,3.2314,3.1762,3.1602,3.0234,2.9713,2.9778,3.0071,3.0169,3.059,3.3022,3.3819,3.4017,3.5077,3.4085,3.2604,3.2604,3.1018,2.9305,2.9305,2.9305,2.9068,2.8056,3.0109,3.2287,3.2287,3.2526,3.2698,3.2698,3.2698,3.2698,3.2698,3.2698,3.2698,3.2698,3.2698,3.2698,3.2698,3.2698,3.2698,3.2698,3.2698,3.2698,3.2698,3.2698,3.2698,3.2698,3.2698,3.2698,3.2698,3.3022,3.3221,3.3278,3.3805,3.4114,3.4199,3.4395,3.4496,3.4496,3.4496,3.4496,3.0859,0.0,0.0,3.2171,0.0,0.0,0.0,0.0,0.0,0.0,0.0,0.0,0.0,0.0,0.0,0.0,0.0,0.0,0.0,0.0,0.0,0.0,0.0,0.0,0.0,0.0,0.0,0.0,0.0,0.0,0.0,0.0,0.0,0.0,2.9321,2.9321,2.9321,3.0062,3.0387,3.0354,3.1739,3.3117,3.4455,3.5108,3.5387,3.5387,3.5387,3.5036,3.4403,3.3694,3.299,3.225,3.0872,3.0322,3.0169,2.8814,2.8304,2.8403,2.9077,2.9306,2.9755,3.2514,3.2927,3.2625,3.3831,3.2782,3.1171,3.1011,2.9508,2.7996,2.7996,2.7996,2.7817,2.7164,2.8979,3.0704,3.0109,3.0937,3.1777,3.1777,3.1777,3.1989,3.2584,3.2698,3.2698,3.2698,3.2698,3.2698,3.2698,3.2698,3.2698,3.2698,3.2698,3.2698,3.2698,3.2698,3.2698,3.2698,3.2698,3.2698,3.2698,3.288,3.3051,3.3193,3.3636,3.3946,3.4086,3.4367,3.4496,3.4496,3.4496,3.4496,3.1149,0.0,3.1795,3.2522,3.2698,0.0,0.0,0.0,0.0,0.0,0.0,0.0,0.0,0.0,0.0,0.0,0.0,0.0,0.0,0.0,0.0,0.0,0.0,0.0,0.0,0.0,0.0,0.0,0.0,0.0,0.0,0.0,2.7425,2.7882,2.7683,2.7658,2.7915,2.7691,2.8139,2.9339,3.0678,3.1922,3.3085,3.4205,3.4683,3.4683,3.4683,3.4049,3.3022,3.28,3.1995,3.083,2.9461,2.8945,2.879,2.7625,2.72,2.7367,2.8526,2.8945,2.933,3.1867,3.1853,3.1052,3.22,3.1185,2.963,2.9343,2.8034,2.6658,2.6658,2.684,2.6922,2.6719,2.7645,2.8355,2.7525,2.8979,3.0461,3.0461,3.0461,3.0888,3.2133,3.2373,3.2459,3.2669,3.2698,3.2698,3.2698,3.2698,3.2698,3.2698,3.2698,3.2698,3.2698,3.2698,3.2698,3.2698,3.2698,3.2698,3.2698,3.2698,3.2812,3.3108,3.3438,3.3749,3.4002,3.4339,3.4496,3.4496,3.4496,3.4496,3.1149,0.0,3.2543,0.0,3.2698,3.2698,0.0,0.0,0.0,0.0,0.0,0.0,0.0,0.0,0.0,0.0,0.0,0.0,0.0,0.0,0.0,0.0,0.0,0.0,0.0,0.0,0.0,0.0,0.0,0.0,0.0,2.72,2.8296,3.0669,2.9615,2.9591,3.0734,2.9591,2.9109,2.9339,3.0678,3.141,3.1602,3.1762,3.1858,3.1858,3.1858,3.1762,3.1474,3.0331,2.9755,2.9428,2.8048,2.7492,2.7467,2.7267,2.72,2.7234,2.7434,2.7492,2.7758,2.933,2.9487,2.9288,3.0663,2.9667,2.8008,2.7965,2.6708,2.5349,2.5349,2.6181,2.6719,2.5617,2.6333,2.7525,2.8444,2.892,2.9157,2.9157,2.9157,2.9571,3.082,3.1063,3.1421,3.2526,3.2698,3.2698,3.2698,3.2698,3.2698,3.2698,3.2698,3.2698,3.2698,3.2698,3.2698,3.2698,3.2698,3.2698,3.2698,3.2698,3.2737,3.2765,3.3324,3.3625,3.3653,3.4244,3.4496,3.4496,3.4496,3.4496,3.1149,3.2043,3.2698,0.0,3.2698,3.2698,0.0,0.0,0.0,0.0,0.0,0.0,0.0,0.0,0.0,0.0,0.0,0.0,0.0,0.0,0.0,0.0,0.0,0.0,0.0,0.0,0.0,0.0,0.0,0.0,2.7234,2.72,2.775,2.897,2.8427,2.8394,2.9003,2.8427,2.8526,2.9306,2.9909,3.0169,3.0169,3.0169,3.0581,3.1313,3.1313,3.0863,3.0136,2.9526,2.8855,2.8048,2.7425,2.72,2.72,2.72,2.72,2.72,2.72,2.7073,2.7162,2.8535,2.8209,2.7521,2.8691,2.7874,2.6477,2.6302,2.5677,2.5111,2.5111,2.5525,2.5792,2.5226,2.5525,2.6097,2.6658,2.7315,2.8056,2.8772,2.889,2.9305,3.0587,3.0791,3.1237,3.2526,3.2698,3.2698,3.2698,3.2698,3.2698,3.2698,3.2698,3.2698,3.2698,3.2698,3.2698,3.2698,3.2698,3.2698,3.2698,3.2698,3.2698,3.2698,3.3285,3.3597,3.3597,3.4216,3.4496,3.4496,3.4496,3.4496,0.0,0.0,3.2553,3.2667,3.2698,3.2698,0.0,0.0,0.0,0.0,0.0,0.0,0.0,0.0,0.0,0.0,0.0,0.0,0.0,0.0,0.0,0.0,0.0,0.0,0.0,0.0,0.0,0.0,0.0,0.0,2.72,2.72,2.7359,2.7724,2.74,2.7367,2.7716,2.7367,2.7716,2.8757,2.8757,2.8757,2.8748,2.8689,2.9184,3.0148,3.0213,2.9681,2.8757,2.8757,2.8139,2.72,2.72,2.72,2.72,2.72,2.7145,2.7073,2.7073,2.6835,2.6728,2.7729,2.7137,2.6192,2.6935,2.6367,2.5414,2.5183,2.5111,2.5111,2.5111,2.5111,2.5111,2.5111,2.5111,2.5111,2.5111,2.5853,2.681,2.7766,2.7937,2.8325,2.96,2.9845,3.0373,3.1989,3.2219,3.2344,3.2669,3.2698,3.2698,3.2698,3.2698,3.2698,3.2698,3.2698,3.2698,3.2698,3.2698,3.2698,3.2698,3.2698,3.2698,3.2698,3.3239,3.3512,3.3597,3.4216,3.4496,3.4496,3.4496,3.4496,0.0,3.1723,0.0,3.2595,3.2698,0.0,0.0,0.0,0.0,0.0,0.0,0.0,0.0,0.0,0.0,0.0,0.0,0.0,0.0,0.0,0.0,0.0,0.0,0.0,0.0,0.0,0.0,0.0,0.0,0.0,2.72,2.72,2.7816,2.9142,2.7882,2.7849,2.9175,2.7882,2.7234,2.73,2.73,2.73,2.7292,2.6982,2.6855,2.6977,2.7281,2.7367,2.73,2.73,2.7267,2.72,2.72,2.72,2.72,2.72,2.6994,2.6733,2.6733,2.6502,2.624,2.6296,2.6001,2.5628,2.5706,2.5436,2.5127,2.5111,2.5111,2.5111,2.5111,2.5111,2.5111,2.5111,2.5111,2.5111,2.5111,2.5134,2.5226,2.5288,2.5288,2.57,2.6983,2.7194,2.8026,3.0529,3.0917,3.1334,3.2555,3.2698,3.2698,3.2698,3.2698,3.2698,3.2698,3.2698,3.2698,3.2698,3.2698,3.2698,3.2698,3.2698,3.2698,3.2698,3.3051,3.3353,3.3597,3.4216,3.4496,3.4496,3.4496,3.4496,0.0,0.0,0.0,3.2584,3.2698,0.0,0.0,0.0,0.0,0.0,0.0,0.0,0.0,0.0,0.0,0.0,0.0,0.0,0.0,0.0,0.0,0.0,0.0,0.0,0.0,0.0,0.0,0.0,0.0,0.0,2.72,2.72,2.7434,2.7948,2.7459,2.7425,2.7948,2.7459,2.72,2.72,2.72,2.72,2.7193,2.6835,2.6709,2.6701,2.6597,2.6558,2.6558,2.6558,2.6558,2.6558,2.6558,2.6558,2.6558,2.6558,2.6478,2.6367,2.6367,2.6136,2.5818,2.5818,2.5588,2.5271,2.5271,2.5214,2.5111,2.5111,2.5111,2.5111,2.5111,2.5111,2.5111,2.5111,2.5111,2.5111,2.5111,2.5111,2.5349,2.615,2.5647,2.5762,2.7847,2.7555,2.7847,3.0402,3.0791,3.1266,3.2526,3.2698,3.2698,3.2698,3.2698,3.2698,3.2698,3.2698,3.2698,3.2698,3.2698,3.2698,3.2698,3.2698,3.2698,3.2698,3.3022,3.325,3.3324,3.3946,3.4255,3.4255,3.4412,3.4496,3.1232,0.0,0.0,0.0,0.0,0.0,0.0,0.0,0.0,0.0,0.0,0.0,0.0,0.0,0.0,0.0,0.0,0.0,0.0,0.0,0.0,0.0,0.0,0.0,0.0,0.0,0.0,0.0,0.0,0.0,2.72,2.72,2.72,2.72,2.72,2.72,2.72,2.72,2.72,2.72,2.72,2.7145,2.701,2.6693,2.647,2.6303,2.5985,2.5961,2.6208,2.6208,2.6208,2.6208,2.6208,2.6208,2.6208,2.6208,2.6104,2.6009,2.6009,2.5747,2.543,2.543,2.5271,2.5111,2.5111,2.5111,2.5111,2.5111,2.5111,2.5111,2.5111,2.5111,2.5111,2.5111,2.5111,2.5111,2.5111,2.5111,2.5349,2.6211,2.5678,2.5647,2.7345,2.6922,2.7224,2.9786,3.0168,3.0791,3.2469,3.2698,3.2698,3.2698,3.2698,3.2698,3.2698,3.2698,3.2698,3.2698,3.2698,3.2698,3.2698,3.2698,3.2698,3.2698,3.2908,3.3022,3.3022,3.3636,3.3974,3.4086,3.4283,3.4412,0.0,0.0,0.0,0.0,0.0,0.0,0.0,0.0,0.0,0.0,0.0,0.0,0.0,0.0,0.0,0.0,0.0,0.0,0.0,0.0,0.0,0.0,0.0,0.0,0.0,0.0,0.0,0.0,0.0,2.72,2.72,2.72,2.72,2.72,2.72,2.72,2.72,2.72,2.72,2.72,2.7193,2.701,2.6693,2.6327,2.5985,2.5588,2.5262,2.5524,2.6176,2.6176,2.6176,2.6176,2.6176,2.6176,2.6176,2.6176,2.5906,2.5588,2.5588,2.5366,2.5111,2.5111,2.5111,2.5111,2.5111,2.5111,2.5111,2.5111,2.5111,2.5111,2.5111,2.5111,2.5111,2.5111,2.5111,2.5111,2.5111,2.5111,2.5111,2.5111,2.5111,2.5111,2.5111,2.5134,2.6006,2.8534,2.892,2.9865,3.2373,3.2698,3.2698,3.2698,3.2698,3.2698,3.2698,3.2698,3.2698,3.2698,3.2698,3.2698,3.2698,3.2698,3.2698,3.2698,3.2698,3.2698,3.2698,3.3296,3.3749,3.4058,3.4086,3.4227,3.0719,0.0,0.0,0.0,0.0,0.0,0.0,0.0,0.0,0.0,0.0,0.0,0.0,0.0,0.0,0.0,0.0,0.0,0.0,0.0,0.0,0.0,0.0,0.0,0.0,0.0,0.0,0.0,2.72,2.72,2.72,2.72,2.72,2.72,2.72,2.72,2.72,2.72,2.72,2.72,2.6938,2.6804,2.6685,2.6049,2.5691,2.5588,2.5262,2.5214,2.5397,2.5397,2.5397,2.5397,2.5397,2.5397,2.5397,2.5397,2.5334,2.5254,2.5254,2.5191,2.5111,2.5111,2.5111,2.5111,2.5111,2.5111,2.5111,2.5111,2.5111,2.5111,2.5111,2.5111,2.5111,2.5111,2.5111,2.5111,2.5111,2.5111,2.5111,2.5111,2.5111,2.5111,2.5111,2.5853,2.7021,2.8653,2.9688,3.0849,3.2498,3.2698,3.2698,3.2698,3.2698,3.2698,3.2698,3.2698,3.2698,3.2698,3.2698,3.2698,3.2698,3.2698,3.2698,3.2698,3.2698,3.2698,3.2698,3.3097,3.3363,3.3448,3.3664,3.3918,0.0,0.0,0.0,0.0,0.0,0.0,0.0,3.2698,0.0,0.0,0.0,0.0,0.0,0.0,0.0,0.0,0.0,0.0,0.0,0.0,0.0,0.0,0.0,0.0,0.0,0.0,0.0,0.0,2.72,2.72,2.72,2.72,2.72,2.72,2.72,2.72,2.72,2.72,2.7129,2.6978,2.6804,2.6558,2.6231,2.5794,2.5525,2.5374,2.5168,2.5111,2.5111,2.5111,2.5111,2.5111,2.5111,2.5111,2.5111,2.5111,2.5111,2.5111,2.5111,2.5111,2.5111,2.5111,2.5111,2.5111,2.5111,2.5111,2.5111,2.5111,2.5111,2.5111,2.5111,2.5111,2.5111,2.5111,2.5111,2.5111,2.5111,2.5111,2.5111,2.5111,2.5111,2.5111,2.5111,2.5709,2.681,2.8623,2.9541,3.0675,3.2459,3.2698,3.2698,3.2698,3.2698,3.2698,3.2698,3.2698,3.2698,3.2698,3.2698,3.2698,3.2698,3.2698,3.2698,3.2698,3.2698,3.2698,3.2698,3.2908,3.3051,3.3193,3.3494,3.3777,0.0,0.0,0.0,0.0,0.0,0.0,3.2688,3.2698,3.2698,0.0,0.0,0.0,0.0,0.0,0.0,0.0,0.0,0.0,0.0,0.0,0.0,0.0,0.0,0.0,0.0,0.0,2.678,2.7065,2.7121,2.7145,2.7145,2.7185,2.72,2.72,2.72,2.7185,2.7145,2.7145,2.6962,2.6645,2.6605,2.6239,2.5604,2.5564,2.5374,2.5111,2.5111,2.5111,2.5111,2.5111,2.5111,2.5111,2.5111,2.5111,2.5111,2.5111,2.5111,2.5111,2.5111,2.5111,2.5111,2.5111,2.5111,2.5111,2.5111,2.5111,2.5111,2.5111,2.5111,2.5111,2.5111,2.5111,2.5111,2.5111,2.5111,2.5111,2.5111,2.5111,2.5111,2.5111,2.5111,2.5111,2.5111,2.5318,2.6302,2.8564,2.9128,3.0139,3.2402,3.2698,3.2698,3.2698,3.2698,3.2698,3.2698,3.2698,3.2698,3.2698,3.2698,3.2698,3.2698,3.2698,3.2698,3.2698,3.2698,3.2698,3.2698,3.2698,3.2851,3.3136,3.3381,3.3692,0.0,0.0,0.0,0.0,0.0,0.0,3.2615,3.2698,3.2698,0.0,0.0,0.0,0.0,0.0,0.0,0.0,0.0,0.0,0.0,0.0,0.0,0.0,0.0,0.0,0.0,0.0,2.6311,2.6383,2.6653,2.6812,2.6812,2.705,2.72,2.72,2.72,2.7065,2.6812,2.6812,2.6629,2.6279,2.5969,2.5739,2.5596,2.531,2.5175,2.5111,2.5111,2.5111,2.5111,2.5111,2.5111,2.5111,2.5111,2.5111,2.5111,2.5111,2.5111,2.5111,2.5111,2.5111,2.5111,2.5111,2.5111,2.5111,2.5111,2.5111,2.5111,2.5111,2.5111,2.5111,2.5111,2.5111,2.5111,2.5111,2.5111,2.5111,2.5111,2.5111,2.5111,2.5111,2.5111,2.5111,2.5111,2.681,2.8325,2.8831,3.0645,3.2133,3.2641,3.2698,3.2698,3.2698,3.2698,3.2698,3.2698,3.2698,3.2698,3.2698,3.2698,3.2698,3.2698,3.2698,3.2698,3.2698,3.2698,3.2698,3.2698,3.2698,3.2727,3.2794,3.2841,3.3051,0.0,0.0,0.0,3.165,0.0,0.0,0.0,3.2698,3.2698,0.0,0.0,0.0,0.0,0.0,0.0,0.0,0.0,0.0,0.0,0.0,0.0,0.0,0.0,0.0,0.0,0.0,2.5993,2.6192,2.6375,2.6438,2.6438,2.678,2.6859,2.6717,2.6843,2.6804,2.6446,2.6438,2.6263,2.589,2.5691,2.5517,2.5334,2.5191,2.5111,2.5111,2.5111,2.5111,2.5111,2.5111,2.5111,2.5111,2.5111,2.5111,2.5111,2.5111,2.5111,2.5111,2.5111,2.5111,2.5111,2.5111,2.5111,2.5111,2.5111,2.5111,2.5111,2.5111,2.5111,2.5111,2.5111,2.5111,2.5111,2.5111,2.5111,2.5111,2.5111,2.5111,2.5111,2.5111,2.5111,2.5111,2.5111,2.6689,2.8176,2.8801,3.0529,3.1989,3.2612,3.2698,3.2698,3.2698,3.2698,3.2698,3.2698,3.2698,3.2698,3.2698,3.2698,3.2698,3.2698,3.2698,3.2698,3.2698,3.2698,3.2698,3.2698,3.2698,3.2698,3.2698,3.2698,3.288,0.0,0.0,0.0,0.0,0.0,3.2595,0.0,0.0,0.0,0.0,0.0,0.0,0.0,0.0,0.0,0.0,0.0,0.0,0.0,0.0,0.0,0.0,0.0,0.0,0.0,0.0,2.5651,2.5953,2.6041,2.608,2.608,2.6415,2.647,2.6216,2.6454,2.6438,2.6088,2.608,2.5874,2.5501,2.5501,2.5358,2.5111,2.5111,2.5111,2.5111,2.5111,2.5111,2.5111,2.5111,2.5111,2.5111,2.5111,2.5111,2.5111,2.5111,2.5111,2.5111,2.5111,2.5111,2.5111,2.5111,2.5111,2.5111,2.5111,2.5111,2.5111,2.5111,2.5111,2.5111,2.5111,2.5111,2.5111,2.5111,2.5111,2.5111,2.5111,2.5111,2.5111,2.5111,2.5111,2.5173,2.5402,2.6507,2.7787,2.9068,3.0353,3.1536,3.2584,3.2698,3.2698,3.2698,3.2698,3.2698,3.2698,3.2698,3.2698,3.2698,3.2698,3.2698,3.2698,3.2698,3.2698,3.2698,3.2698,3.2698,3.2698,3.2698,3.2698,3.2698,3.2698,3.2851,0.0,0.0,0.0,0.0,3.2047,0.0,0.0,0.0,0.0,0.0,0.0,0.0,0.0,0.0,0.0,0.0,0.0,0.0,0.0,0.0,0.0,0.0,0.0,0.0,0.0,0.0,0.0,2.5222,2.5485,2.566,2.566,2.6049,2.6248,2.6208,2.6248,2.6073,2.5668,2.566,2.5485,2.5175,2.5175,2.5151,2.5111,2.5111,2.5111,2.5111,2.5111,2.5111,2.5111,2.5111,2.5111,2.5111,2.5111,2.5111,2.5111,2.5111,2.5111,2.5111,2.5111,2.5111,2.5111,2.5111,2.5111,2.5111,2.5111,2.5111,2.5111,2.5111,2.5111,2.5111,2.5111,2.5111,2.5111,2.5111,2.5111,2.5111,2.5111,2.5111,2.5111,2.5111,2.5111,2.5464,2.6598,2.7847,2.9128,3.0402,3.1662,3.2526,3.2669,3.2698,3.2698,3.2698,3.2698,3.2698,3.2698,3.2698,3.2698,3.2698,3.2698,3.2698,3.2698,3.2698,3.2698,3.2698,3.2698,3.2698,3.2698,3.2698,3.2698,3.2698,3.2698,3.2737,0.0,0.0,0.0,0.0,0.0,0.0,0.0,0.0,3.2698,0.0,0.0,0.0,0.0,0.0,0.0,0.0,0.0,0.0,0.0,0.0,0.0,0.0,0.0,0.0,0.0,0.0,0.0,0.0,0.0,2.5295,2.5295,2.5659,2.5755,2.5579,2.5747,2.5683,2.5303,2.5295,2.5254,2.5111,2.5111,2.5111,2.5111,2.5111,2.5111,2.5111,2.5111,2.5111,2.5111,2.5111,2.5111,2.5111,2.5111,2.5111,2.5111,2.5111,2.5111,2.5111,2.5111,2.5111,2.5111,2.5111,2.5111,2.5111,2.5111,2.5111,2.5111,2.5111,2.5111,2.5111,2.5111,2.5111,2.5111,2.5111,2.5111,2.5111,2.5111,2.5111,2.5111,2.5111,2.5709,2.6598,2.7877,2.8534,2.9335,3.0616,3.1864,3.2698,3.2698,3.2698,3.2698,3.2698,3.2698,3.2698,3.2698,3.2698,3.2698,3.2698,3.2698,3.2698,3.2698,3.2698,3.2698,3.2698,3.2698,3.2698,3.2698,3.2698,3.2698,3.2698,3.2698,3.2698,3.2526,0.0,0.0,0.0,0.0,0.0,0.0,0.0,0.0,0.0,0.0,0.0,0.0,0.0,0.0,0.0,0.0,0.0,0.0,0.0,0.0,0.0,0.0,0.0,0.0,0.0,0.0,0.0,2.5111,0.0,2.5111,2.5318,2.5342,2.5119,2.5326,2.5342,2.5111,2.5111,2.5111,2.5111,2.5111,2.5111,2.5111,2.5111,2.5111,2.5111,2.5111,2.5111,2.5111,2.5111,2.5111,2.5111,2.5111,2.5111,2.5111,2.5111,2.5111,2.5111,2.5111,2.5111,2.5111,2.5111,2.5111,2.5111,2.5111,2.5111,2.5111,2.5111,2.5111,2.5111,2.5111,2.5111,2.5111,2.5111,2.5111,2.5111,2.5111,2.5111,2.5111,2.5111,2.612,2.7405,2.8683,2.9187,2.9845,3.1121,3.2104,3.2698,3.2698,3.2698,3.2698,3.2698,3.2698,3.2698,3.2698,3.2698,3.2698,3.2698,3.2698,3.2698,3.2698,3.2698,3.2698,3.2698,3.2698,3.2698,3.2698,3.2698,3.2698,3.2698,3.2698,3.2698,0.0,0.0,0.0,0.0,0.0,0.0,0.0,0.0,3.2698,0.0,0.0,0.0,0.0,0.0,3.2698,3.2698,0.0,0.0,0.0,0.0,0.0,0.0,0.0,0.0,0.0,0.0,0.0,2.5111,2.5111,2.5111,2.5111,2.5119,2.5119,2.5111,2.5119,2.5119,2.5111,2.5111,2.5111,2.5111,2.5111,2.5111,2.5111,2.5111,2.5111,2.5111,2.5111,2.5111,2.5111,2.5111,2.5111,2.5111,2.5111,2.5111,2.5111,2.5111,2.5111,2.5111,2.5111,2.5111,2.5111,2.5111,2.5111,2.5111,2.5111,2.5111,2.5111,2.5111,2.5111,2.5111,2.5111,2.5111,2.5111,2.5111,2.5111,2.5111,2.5111,2.5111,2.5111,2.5111,2.612,2.7405,2.8683,2.9933,3.1179,3.2459,3.2669,3.2698,3.2698,3.2698,3.2698,3.2698,3.2698,3.2698,3.2698,3.2698,3.2698,3.2698,3.2698,3.2698,3.2698,3.2698,3.2698,3.2698,3.2698,3.2698,3.2698,3.2698,3.2698,3.2698,3.2698,3.2698,0.0,0.0,2.9845,3.1121,0.0,0.0,0.0,0.0,0.0,0.0,0.0,0.0,0.0,0.0,3.2698,3.2698,3.2698,0.0,0.0,0.0,0.0,0.0,0.0,0.0,0.0,0.0,0.0,2.5111,2.5111,2.5111,0.0,2.5111,2.5111,2.5111,2.5111,2.5111,2.5111,2.5111,2.5111,2.5111,2.5111,2.5111,2.5111,2.5111,2.5111,2.5111,2.5111,2.5111,2.5111,2.5111,2.5111,2.5111,2.5111,2.5111,2.5111,2.5111,2.5111,2.5111,2.5111,2.5111,2.5111,2.5111,2.5111,2.5111,2.5111,2.5111,2.5111,2.5111,2.5111,2.5111,2.5111,2.5111,2.5111,2.5111,2.5111,2.5111,2.5111,2.5111,2.5349,2.6181,2.7375,2.8385,2.8831,3.0645,3.219,3.2641,3.2698,3.2698,3.2698,3.2698,3.2698,3.2698,3.2698,3.2698,3.2698,3.2698,3.2698,3.2698,3.2698,3.2698,3.2698,3.2698,3.2698,3.2698,3.2698,3.2698,3.2698,3.2698,3.2698,3.2698,3.2698,3.2698,2.8653,2.8564,0.0,0.0,3.0109,0.0,0.0,0.0,0.0,0.0,0.0,0.0,0.0,0.0,3.2555,3.2104,3.2402,3.2555,0.0,0.0,0.0,0.0,0.0,0.0,0.0,0.0,2.5111,2.5111,2.5111,2.5111,0.0,0.0,2.5111,2.5111,2.5111,2.5111,2.5111,2.5111,2.5111,2.5111,2.5111,2.5111,2.5111,2.5111,2.5111,2.5111,2.5111,2.5111,2.5111,2.5111,2.5111,2.5111,2.5111,2.5111,2.5111,2.5111,2.5111,2.5111,2.5111,2.5111,2.5111,2.5111,2.5111,2.5111,2.5111,2.5111,2.5159,2.5405,2.5302,2.5167,2.5413,2.5294,2.5111,2.5111,2.5111,2.5111,2.5111,2.5111,2.5349,2.615,2.7345,2.8385,2.8831,3.0645,3.2018,3.2018,3.2402,3.2698,3.2698,3.2698,3.2698,3.2698,3.2698,3.2698,3.2698,3.2698,3.2698,3.2698,3.2698,3.2698,3.2698,3.2698,3.277,3.2954,3.2781,3.2781,3.2965,3.2781,3.2698,3.2698,3.2698,3.2698]},{"header":{"parameterUnit":"m.s-1","parameterCategory":1,"la1":30.6,"la2":29.2853,"lo1":-89.7004,"lo2":-87.6739,"dx":0.0162,"dy":0.0183,"nx":112,"ny":82,"refTime":"2023-01-19T06:00:00:Z","depth":0,"parameterNumber":3,"parameterNumberName":"V-component_of_WINDS"},"data":[0.0,0.0,0.0,0.0,0.0,0.0,0.0,0.0,0.0,0.0,0.0,0.0,0.0,0.0,0.0,0.0,0.0,0.0,0.0,0.0,0.0,0.0,0.0,0.0,0.0,0.0,0.0,0.0,0.0,0.0,0.0,0.0,0.0,0.0,0.0,0.0,0.0,0.0,0.0,0.0,0.0,0.0,0.0,0.0,0.0,0.0,0.0,0.0,0.0,0.0,0.0,0.0,0.0,0.0,0.0,0.0,0.0,0.0,0.0,0.0,0.0,0.0,0.0,0.0,0.0,0.0,0.0,0.0,0.0,0.0,0.0,0.0,0.0,0.0,0.0,0.0,0.0,0.0,0.0,0.0,0.0,0.0,0.0,0.0,0.0,0.0,0.0,0.0,0.0,0.0,0.0,2.7083,2.7083,2.7083,2.7083,2.7083,2.6652,2.5632,0.0,0.0,0.0,0.0,0.0,0.0,0.0,0.0,0.0,0.0,0.0,0.0,0.0,0.0,0.0,0.0,0.0,0.0,0.0,0.0,0.0,0.0,0.0,0.0,0.0,0.0,0.0,0.0,0.0,0.0,0.0,0.0,0.0,0.0,0.0,0.0,0.0,0.0,0.0,0.0,0.0,0.0,0.0,0.0,0.0,0.0,0.0,0.0,0.0,0.0,0.0,0.0,0.0,0.0,0.0,0.0,0.0,0.0,0.0,0.0,0.0,0.0,0.0,0.0,0.0,0.0,0.0,0.0,0.0,0.0,0.0,0.0,0.0,0.0,0.0,0.0,0.0,0.0,0.0,0.0,0.0,0.0,0.0,0.0,0.0,0.0,0.0,0.0,0.0,0.0,0.0,0.0,0.0,0.0,0.0,0.0,0.0,0.0,0.0,0.0,0.0,0.0,0.0,0.0,2.7782,2.8346,2.8404,2.8404,2.8404,2.8404,2.8335,2.8152,0.0,0.0,0.0,0.0,0.0,0.0,0.0,0.0,0.0,0.0,0.0,0.0,0.0,0.0,0.0,0.0,0.0,0.0,0.0,0.0,0.0,0.0,0.0,0.0,0.0,0.0,0.0,0.0,0.0,0.0,0.0,0.0,0.0,0.0,0.0,0.0,0.0,0.0,0.0,0.0,0.0,0.0,0.0,0.0,0.0,0.0,0.0,0.0,0.0,0.0,0.0,0.0,0.0,0.0,0.0,0.0,0.0,0.0,0.0,0.0,0.0,0.0,0.0,0.0,0.0,0.0,0.0,0.0,0.0,0.0,0.0,0.0,0.0,0.0,0.0,0.0,0.0,0.0,0.0,0.0,0.0,0.0,0.0,0.0,0.0,0.0,0.0,0.0,0.0,0.0,0.0,0.0,0.0,0.0,0.0,0.0,0.0,0.0,0.0,0.0,0.0,0.0,0.0,2.8245,2.8361,2.868,2.8695,2.8695,2.8695,2.8695,2.8553,2.8226,2.7711,0.0,0.0,0.0,0.0,0.0,0.0,0.0,0.0,0.0,0.0,0.0,0.0,0.0,0.0,0.0,0.0,0.0,0.0,0.0,0.0,0.0,0.0,0.0,0.0,0.0,0.0,0.0,0.0,0.0,0.0,0.0,0.0,0.0,0.0,0.0,0.0,0.0,0.0,0.0,0.0,0.0,0.0,0.0,0.0,0.0,0.0,0.0,0.0,0.0,0.0,0.0,0.0,0.0,0.0,0.0,0.0,0.0,0.0,0.0,0.0,0.0,0.0,0.0,0.0,0.0,0.0,0.0,0.0,0.0,0.0,0.0,0.0,0.0,0.0,0.0,0.0,0.0,0.0,0.0,0.0,0.0,0.0,0.0,0.0,0.0,0.0,0.0,0.0,0.0,0.0,0.0,0.0,0.0,0.0,0.0,0.0,0.0,0.0,0.0,0.0,0.0,0.0,2.9043,2.9159,2.9159,2.9159,2.9159,2.9159,2.9159,2.8944,2.8494,2.8742,0.0,0.0,0.0,0.0,0.0,0.0,0.0,0.0,0.0,0.0,0.0,0.0,0.0,0.0,0.0,0.0,0.0,0.0,0.0,0.0,0.0,0.0,0.0,0.0,0.0,0.0,0.0,0.0,0.0,0.0,0.0,0.0,0.0,0.0,0.0,0.0,0.0,0.0,0.0,0.0,0.0,0.0,0.0,0.0,0.0,0.0,0.0,0.0,0.0,0.0,0.0,0.0,0.0,0.0,0.0,0.0,0.0,0.0,0.0,0.0,0.0,0.0,0.0,0.0,0.0,0.0,0.0,0.0,0.0,0.0,0.0,0.0,0.0,0.0,0.0,0.0,0.0,0.0,0.0,0.0,0.0,0.0,0.0,0.0,0.0,0.0,0.0,0.0,0.0,0.0,0.0,0.0,0.0,0.0,0.0,0.0,0.0,0.0,0.0,0.0,0.0,0.0,3.0074,3.0467,3.0467,3.0467,3.0467,3.0467,3.0467,3.0452,3.0407,2.9856,0.0,0.0,0.0,0.0,0.0,0.0,0.0,0.0,0.0,0.0,0.0,0.0,0.0,0.0,0.0,0.0,0.0,0.0,0.0,0.0,0.0,0.0,0.0,0.0,0.0,0.0,0.0,0.0,0.0,0.0,0.0,0.0,0.0,0.0,0.0,0.0,0.0,0.0,0.0,0.0,0.0,0.0,0.0,0.0,0.0,0.0,0.0,0.0,0.0,0.0,0.0,0.0,0.0,0.0,0.0,0.0,0.0,0.0,0.0,0.0,0.0,0.0,0.0,0.0,0.0,0.0,0.0,0.0,0.0,0.0,0.0,0.0,0.0,0.0,0.0,0.0,0.0,0.0,0.0,0.0,0.0,0.0,0.0,0.0,0.0,0.0,0.0,0.0,0.0,0.0,0.0,0.0,0.0,0.0,0.0,0.0,0.0,0.0,0.0,0.0,0.0,0.0,3.0437,3.0598,0.0,3.0598,3.0598,3.0598,3.0598,3.0598,3.0598,0.0,0.0,0.0,0.0,0.0,0.0,0.0,0.0,0.0,0.0,0.0,0.0,0.0,0.0,0.0,0.0,0.0,0.0,0.0,0.0,0.0,0.0,0.0,0.0,0.0,0.0,0.0,0.0,0.0,0.0,0.0,0.0,0.0,0.0,0.0,0.0,0.0,0.0,0.0,0.0,0.0,0.0,0.0,0.0,0.0,0.0,0.0,0.0,0.0,0.0,0.0,0.0,0.0,0.0,0.0,0.0,0.0,0.0,0.0,0.0,0.0,0.0,0.0,0.0,0.0,0.0,0.0,0.0,0.0,0.0,0.0,0.0,0.0,0.0,0.0,0.0,0.0,0.0,0.0,0.0,0.0,0.0,0.0,0.0,0.0,0.0,0.0,0.0,0.0,0.0,0.0,0.0,0.0,0.0,0.0,0.0,0.0,0.0,0.0,0.0,0.0,0.0,3.0598,3.0598,3.0598,0.0,3.0598,3.0598,3.0598,3.0598,3.0598,3.0598,0.0,0.0,0.0,0.0,0.0,0.0,0.0,0.0,0.0,0.0,0.0,0.0,0.0,0.0,0.0,0.0,0.0,0.0,0.0,0.0,0.0,0.0,0.0,0.0,0.0,0.0,0.0,0.0,0.0,0.0,0.0,0.0,0.0,0.0,0.0,0.0,0.0,0.0,0.0,0.0,0.0,0.0,0.0,0.0,0.0,0.0,0.0,0.0,0.0,0.0,0.0,0.0,0.0,0.0,0.0,0.0,0.0,0.0,0.0,0.0,0.0,0.0,0.0,0.0,0.0,0.0,0.0,0.0,0.0,0.0,0.0,0.0,0.0,0.0,0.0,0.0,0.0,0.0,0.0,0.0,0.0,0.0,0.0,0.0,0.0,0.0,0.0,0.0,0.0,0.0,0.0,0.0,0.0,0.0,0.0,0.0,0.0,0.0,0.0,0.0,0.0,0.0,3.0598,3.0598,3.0598,3.0598,3.0598,3.0598,3.0598,3.0598,3.0598,0.0,0.0,0.0,0.0,0.0,0.0,0.0,0.0,0.0,0.0,0.0,0.0,0.0,0.0,0.0,0.0,0.0,0.0,0.0,0.0,0.0,0.0,0.0,0.0,0.0,0.0,0.0,0.0,0.0,0.0,0.0,0.0,0.0,0.0,0.0,0.0,0.0,0.0,0.0,0.0,0.0,0.0,0.0,0.0,0.0,0.0,0.0,0.0,0.0,0.0,0.0,0.0,0.0,0.0,0.0,0.0,0.0,0.0,0.0,0.0,0.0,0.0,0.0,0.0,0.0,0.0,0.0,0.0,0.0,0.0,0.0,0.0,0.0,0.0,0.0,0.0,0.0,0.0,0.0,0.0,0.0,0.0,0.0,0.0,0.0,0.0,0.0,0.0,0.0,0.0,0.0,0.0,0.0,0.0,0.0,0.0,0.0,0.0,0.0,0.0,0.0,0.0,0.0,0.0,3.0598,3.0598,3.0598,3.0598,3.0598,3.0598,3.0598,3.0598,3.0598,0.0,0.0,0.0,0.0,0.0,0.0,0.0,0.0,0.0,0.0,0.0,0.0,0.0,0.0,0.0,0.0,0.0,0.0,0.0,0.0,0.0,0.0,0.0,0.0,0.0,0.0,0.0,0.0,0.0,0.0,0.0,0.0,0.0,0.0,0.0,0.0,0.0,0.0,0.0,0.0,0.0,0.0,0.0,0.0,0.0,0.0,0.0,0.0,0.0,0.0,0.0,0.0,0.0,0.0,0.0,0.0,0.0,0.0,0.0,0.0,0.0,0.0,0.0,0.0,0.0,0.0,0.0,0.0,0.0,0.0,0.0,0.0,0.0,0.0,0.0,0.0,0.0,0.0,0.0,0.0,0.0,0.0,0.0,0.0,0.0,0.0,0.0,0.0,0.0,0.0,0.0,0.0,0.0,0.0,0.0,0.0,0.0,0.0,0.0,0.0,0.0,0.0,3.1367,3.1367,3.1367,3.1367,3.1367,3.1367,3.1367,3.1367,3.1367,3.1367,0.0,0.0,0.0,0.0,0.0,0.0,0.0,0.0,0.0,0.0,0.0,0.0,0.0,0.0,0.0,0.0,0.0,0.0,0.0,0.0,0.0,0.0,0.0,0.0,0.0,0.0,0.0,0.0,0.0,0.0,0.0,0.0,0.0,0.0,0.0,0.0,0.0,0.0,0.0,0.0,0.0,0.0,0.0,0.0,0.0,0.0,0.0,0.0,0.0,0.0,0.0,0.0,0.0,0.0,0.0,0.0,0.0,0.0,0.0,0.0,0.0,0.0,0.0,0.0,0.0,0.0,0.0,0.0,0.0,0.0,0.0,0.0,0.0,0.0,0.0,0.0,0.0,0.0,0.0,0.0,0.0,0.0,0.0,0.0,0.0,0.0,0.0,0.0,0.0,0.0,0.0,0.0,0.0,0.0,0.0,0.0,0.0,0.0,0.0,0.0,0.0,0.0,3.2497,3.2497,3.2497,3.2497,3.2497,3.2497,3.2497,3.2497,3.2497,3.2497,0.0,0.0,0.0,0.0,0.0,0.0,0.0,0.0,0.0,0.0,0.0,0.0,0.0,0.0,0.0,0.0,0.0,0.0,0.0,0.0,0.0,0.0,0.0,0.0,0.0,0.0,0.0,0.0,0.0,0.0,0.0,0.0,0.0,0.0,0.0,0.0,0.0,0.0,0.0,0.0,0.0,0.0,0.0,0.0,0.0,0.0,0.0,0.0,0.0,0.0,0.0,0.0,0.0,0.0,0.0,0.0,0.0,0.0,0.0,0.0,3.7016,0.0,0.0,0.0,0.0,0.0,0.0,0.0,0.0,0.0,0.0,0.0,0.0,0.0,0.0,0.0,0.0,0.0,0.0,0.0,0.0,0.0,0.0,0.0,0.0,0.0,0.0,0.0,0.0,0.0,0.0,0.0,0.0,0.0,0.0,0.0,0.0,0.0,0.0,0.0,0.0,0.0,3.2497,3.2497,3.2497,3.2497,3.2497,3.2497,3.2497,3.2497,3.2497,3.2497,0.0,0.0,0.0,0.0,0.0,0.0,0.0,0.0,0.0,0.0,0.0,0.0,0.0,0.0,0.0,0.0,0.0,0.0,0.0,0.0,0.0,0.0,0.0,0.0,0.0,0.0,0.0,0.0,0.0,0.0,0.0,0.0,0.0,0.0,0.0,0.0,0.0,0.0,0.0,0.0,0.0,0.0,0.0,0.0,0.0,0.0,0.0,0.0,0.0,0.0,0.0,0.0,0.0,0.0,0.0,0.0,0.0,0.0,0.0,0.0,0.0,3.7327,0.0,0.0,0.0,0.0,0.0,0.0,0.0,0.0,0.0,0.0,0.0,0.0,0.0,0.0,0.0,0.0,0.0,0.0,0.0,0.0,0.0,0.0,0.0,0.0,0.0,0.0,0.0,0.0,0.0,0.0,0.0,0.0,0.0,0.0,0.0,0.0,0.0,0.0,0.0,0.0,3.3411,3.3411,3.3411,3.3411,3.3411,3.3411,3.3411,3.3411,3.3411,3.3411,3.3411,0.0,0.0,0.0,0.0,0.0,0.0,0.0,0.0,0.0,0.0,0.0,0.0,0.0,0.0,0.0,0.0,0.0,0.0,0.0,0.0,0.0,0.0,0.0,0.0,0.0,0.0,0.0,0.0,0.0,0.0,0.0,0.0,0.0,0.0,0.0,0.0,0.0,0.0,0.0,0.0,0.0,0.0,0.0,0.0,0.0,0.0,0.0,0.0,0.0,0.0,0.0,0.0,0.0,0.0,4.0138,3.983,4.0307,4.0306,3.9788,3.8186,3.7483,3.7466,0.0,0.0,0.0,0.0,0.0,0.0,0.0,0.0,0.0,0.0,0.0,0.0,0.0,0.0,0.0,0.0,0.0,0.0,0.0,0.0,0.0,0.0,0.0,0.0,0.0,3.7551,3.7652,0.0,0.0,0.0,0.0,0.0,0.0,0.0,0.0,0.0,0.0,0.0,0.0,3.4397,3.4448,3.445,3.4414,3.4431,3.4431,3.4397,3.4397,3.4397,3.4397,3.4431,3.4431,0.0,0.0,0.0,0.0,0.0,0.0,0.0,0.0,0.0,0.0,0.0,0.0,0.0,0.0,0.0,0.0,0.0,0.0,0.0,0.0,0.0,0.0,0.0,0.0,0.0,0.0,0.0,0.0,0.0,0.0,0.0,0.0,3.9904,3.9904,0.0,0.0,0.0,0.0,0.0,0.0,0.0,0.0,0.0,0.0,0.0,0.0,0.0,0.0,4.1976,4.1517,4.1485,4.1874,4.0631,4.0258,4.0628,3.9851,3.9455,3.9388,3.911,0.0,3.8967,3.8328,0.0,0.0,0.0,0.0,0.0,0.0,0.0,0.0,0.0,0.0,0.0,0.0,0.0,0.0,0.0,0.0,0.0,0.0,0.0,0.0,0.0,0.0,3.8818,3.8719,3.8674,3.8655,0.0,3.7981,3.7478,3.7393,0.0,0.0,0.0,0.0,0.0,0.0,0.0,0.0,3.4414,3.4652,3.4719,3.4431,3.4563,3.4597,3.4414,3.4397,3.4397,3.4397,3.4563,3.458,3.4414,3.458,0.0,0.0,0.0,0.0,0.0,0.0,0.0,0.0,0.0,0.0,0.0,0.0,0.0,0.0,0.0,0.0,0.0,0.0,0.0,0.0,0.0,0.0,0.0,0.0,0.0,0.0,0.0,0.0,0.0,4.1252,4.1252,4.1252,4.1566,4.178,0.0,0.0,0.0,0.0,0.0,0.0,0.0,0.0,0.0,4.2297,4.2297,4.2529,4.2965,4.2747,4.2813,4.3193,4.2515,4.1999,4.163,4.1184,4.0789,4.0481,4.0481,4.0481,4.0382,3.9272,3.8821,3.8788,0.0,0.0,0.0,0.0,0.0,3.8341,3.8341,0.0,0.0,0.0,0.0,0.0,0.0,0.0,0.0,0.0,0.0,0.0,0.0,0.0,0.0,4.0354,4.0312,4.0284,4.034,4.0064,3.9564,0.0,3.8067,3.7617,3.7323,0.0,0.0,0.0,0.0,0.0,3.5301,3.5366,3.5267,3.4735,3.4752,3.475,3.4582,3.458,3.4515,3.4414,3.4481,3.4481,3.4397,3.4481,3.4532,0.0,0.0,0.0,0.0,0.0,0.0,0.0,0.0,0.0,0.0,0.0,0.0,0.0,0.0,0.0,0.0,0.0,0.0,0.0,0.0,0.0,0.0,0.0,0.0,0.0,0.0,0.0,0.0,4.2297,4.2297,4.2297,4.2297,4.2297,0.0,0.0,0.0,0.0,0.0,0.0,4.2876,4.2761,4.275,4.2876,4.2761,4.3035,4.3775,4.3775,4.3815,4.3875,4.3728,4.318,4.2266,4.2132,4.182,4.1394,4.1394,4.1394,4.1312,4.0266,3.9832,3.9832,3.9832,3.9832,3.9832,3.9832,3.9832,3.9832,3.9832,3.9832,3.9832,3.9832,0.0,3.9832,3.9832,0.0,0.0,0.0,0.0,4.0776,4.1262,0.0,4.1394,4.1394,4.1394,4.1394,4.1394,4.1394,4.1052,0.0,3.9102,3.8671,3.8671,0.0,0.0,0.0,0.0,3.697,3.6494,3.6348,3.6054,3.5471,3.5419,3.535,3.5212,3.5129,3.5044,3.4907,3.4993,3.4993,3.4893,3.4993,3.5146,0.0,0.0,0.0,0.0,0.0,0.0,0.0,0.0,0.0,0.0,0.0,0.0,0.0,0.0,0.0,0.0,0.0,0.0,0.0,0.0,0.0,0.0,0.0,0.0,0.0,0.0,0.0,0.0,0.0,0.0,4.2297,4.2297,0.0,0.0,0.0,0.0,4.3383,4.3436,4.3757,4.4453,4.3999,4.3953,4.4467,4.3987,4.3982,4.4531,4.4542,4.4307,4.3793,4.3286,4.2736,4.2186,4.1672,4.1423,4.1394,4.1394,4.1394,4.1394,4.1312,4.1295,4.1295,4.1295,4.1295,4.1295,4.1295,4.1295,4.1295,4.1295,4.1295,4.1295,4.1295,4.1295,4.1295,4.1295,4.1295,0.0,0.0,4.1345,4.1361,4.1394,4.1394,4.1394,4.1394,4.1394,4.1394,4.1394,4.1394,4.1378,0.0,4.1137,4.1023,4.1023,0.0,3.9835,3.9835,3.8857,3.8077,3.791,3.7556,3.7195,3.6832,3.6792,3.6719,3.6512,3.632,3.6214,3.6214,3.6547,3.6614,3.6214,3.6564,3.6934,3.727,3.7287,0.0,0.0,0.0,0.0,0.0,0.0,0.0,0.0,0.0,0.0,0.0,0.0,0.0,0.0,0.0,0.0,0.0,0.0,0.0,0.0,0.0,0.0,0.0,0.0,0.0,0.0,0.0,0.0,4.3072,4.349,0.0,0.0,4.3775,4.39,4.4185,4.4221,4.4169,4.4093,4.3898,4.3886,4.4088,4.3898,4.4324,4.5363,4.5031,4.5006,4.5337,4.4765,4.4209,4.368,4.3485,4.3191,4.2818,4.2818,4.2818,4.2818,4.2818,4.2272,4.1394,4.1394,4.1394,4.1394,4.1394,4.1394,4.1394,4.1394,4.1394,4.1394,4.1394,4.1394,4.1394,4.1394,4.1394,4.1494,4.1974,4.2106,4.2222,4.2702,4.2818,4.2818,4.2818,4.2818,4.2818,4.2818,4.2818,4.2818,4.2818,4.2014,4.1324,4.1324,4.1077,4.0887,4.0887,4.0534,3.9933,3.9029,3.9204,3.8853,3.7372,3.7643,3.7609,3.686,3.7164,3.7272,3.7013,3.7254,3.7511,3.7701,3.7075,3.704,3.7782,3.7953,3.8086,0.0,0.0,0.0,0.0,0.0,0.0,0.0,0.0,0.0,0.0,0.0,0.0,0.0,0.0,0.0,0.0,0.0,0.0,0.0,0.0,0.0,0.0,0.0,0.0,0.0,0.0,4.3864,4.3864,4.431,4.4614,4.4614,4.4614,4.4721,4.4988,4.5006,4.4902,4.4624,4.442,4.4311,4.4311,4.4311,4.472,4.5617,4.5468,4.5476,4.5628,4.5214,4.4746,4.4207,4.4207,4.3977,4.3598,4.3598,4.3598,4.3598,4.3598,4.3034,4.2139,4.2139,4.2139,4.2139,4.2139,4.2139,4.2139,4.2139,4.2139,4.2139,4.2139,4.2139,4.2139,4.2139,4.2139,4.2239,4.2721,4.287,4.2969,4.3466,4.3598,4.3598,4.3598,4.3598,4.3598,4.3598,4.3598,4.3598,4.3598,4.2804,4.2139,4.2139,4.2139,4.2139,4.2139,4.195,4.1476,4.0591,4.0685,4.0214,3.8616,3.882,3.8784,3.8075,3.8098,3.8189,3.8243,3.8381,3.8571,3.8857,3.8135,3.8048,3.8789,3.9226,3.938,3.9211,0.0,0.0,0.0,0.0,0.0,0.0,0.0,0.0,0.0,0.0,0.0,0.0,0.0,0.0,0.0,0.0,0.0,0.0,0.0,0.0,0.0,0.0,0.0,4.4614,4.4621,4.4638,4.4638,4.4667,4.4667,4.4667,4.4667,4.5006,4.5784,4.5838,4.5943,4.6188,4.5619,4.5303,4.5303,4.5276,4.5276,4.5303,4.5852,4.5585,4.4502,4.4474,4.4179,4.3598,4.3598,4.3598,4.3598,4.3598,4.3598,4.3598,4.3598,4.3598,4.3598,4.3598,4.3598,4.3598,4.3598,4.3598,4.3598,4.3598,4.3598,4.3598,4.3598,4.3598,4.3598,4.3598,4.3598,4.3598,4.3598,4.3598,4.3598,4.3598,4.3598,4.3598,4.3598,4.3598,4.3598,4.3598,4.3598,4.3598,4.3598,4.3598,4.3598,4.3598,4.3598,4.3598,4.3598,4.3051,0.0,4.2601,4.1965,4.1277,4.0581,4.0337,4.0216,4.0198,3.9202,3.8984,3.9907,3.996,3.9905,3.971,3.9852,4.01,4.0416,4.1145,4.1549,4.1644,0.0,0.0,0.0,0.0,0.0,0.0,0.0,0.0,0.0,0.0,0.0,0.0,0.0,0.0,0.0,0.0,0.0,0.0,0.0,0.0,0.0,0.0,4.5274,4.4685,4.5095,4.547,4.547,4.5998,4.6337,4.6337,4.6337,4.6427,4.6641,4.667,4.6523,4.6223,4.5619,4.5303,4.5303,4.492,4.491,4.529,4.5085,4.4804,4.4488,4.4064,4.3759,4.3598,4.3598,4.3598,4.3598,4.3598,4.3598,4.3598,4.3598,4.3598,4.3598,4.3598,4.3598,4.3598,4.3598,4.3598,4.3598,4.3598,4.3598,4.3598,4.3598,4.3598,4.3598,4.3598,4.3598,4.3598,4.3598,4.3598,4.3598,4.3598,4.3598,4.3598,4.3598,4.3598,4.3598,4.3598,4.3598,4.3598,4.3598,4.3598,4.3598,4.3598,4.3598,4.3598,4.3598,0.0,0.0,4.2663,4.2412,4.1852,4.0633,4.0443,4.0357,4.02,4.0272,4.0638,0.0,4.1476,4.164,4.1981,4.116,4.0857,4.1195,4.1542,4.1933,0.0,0.0,0.0,0.0,0.0,0.0,0.0,0.0,0.0,0.0,0.0,0.0,0.0,0.0,0.0,0.0,0.0,0.0,0.0,0.0,0.0,0.0,4.6302,4.6141,4.5666,4.6016,4.6302,4.6302,4.6723,4.7009,4.7009,4.6807,4.6661,4.6661,4.6423,4.6151,4.584,4.549,4.5201,4.496,4.4882,4.4759,4.4577,4.4527,4.4361,4.4121,4.3774,4.3598,4.3598,4.3598,4.3598,0.0,4.3598,4.3598,4.3598,4.3598,4.3598,0.0,0.0,0.0,0.0,0.0,4.3598,4.3598,4.3598,4.3598,4.3598,4.3598,4.3598,4.3598,4.3598,4.3598,4.3598,4.3598,4.3598,4.3598,4.3598,4.3598,4.3598,4.3598,4.3598,4.3598,4.3598,4.3598,4.3598,4.3598,0.0,0.0,4.3598,4.3598,4.3598,4.3598,4.3598,4.3462,0.0,4.302,4.2601,4.1492,4.1392,4.1209,4.0788,4.0943,0.0,0.0,0.0,4.2301,4.2507,4.1673,0.0,0.0,0.0,4.1981,0.0,0.0,0.0,0.0,4.097,4.1001,0.0,0.0,0.0,0.0,0.0,0.0,0.0,0.0,0.0,0.0,0.0,0.0,0.0,0.0,0.0,0.0,4.7009,4.7009,4.7009,4.7009,4.7009,4.7009,4.6963,4.6934,4.698,4.6501,4.6198,4.6198,4.5695,4.5368,4.5303,0.0,0.0,0.0,0.0,4.4618,4.3613,4.4136,4.4136,4.3598,4.3598,4.3598,4.3598,4.3598,4.3598,4.3598,4.3598,4.3598,4.3598,4.3598,4.3598,4.3598,4.3598,4.3598,4.3598,4.3598,4.3598,0.0,0.0,0.0,0.0,4.3598,4.3598,4.3598,4.3598,4.3598,4.3598,4.3598,4.3598,4.3598,4.3598,4.3598,4.3598,4.3598,4.3598,4.3598,4.3598,4.3598,4.3598,4.3598,4.3598,4.3598,4.3598,4.3598,4.3598,4.3598,4.3598,0.0,4.3598,4.3522,4.325,4.2663,0.0,0.0,4.1673,4.1444,4.1444,4.1722,4.2158,4.2317,4.2125,4.1804,4.1624,4.1624,4.1624,4.1965,4.2602,4.2602,4.2602,4.2602,4.2602,4.2602,0.0,0.0,0.0,0.0,0.0,0.0,0.0,0.0,0.0,0.0,0.0,0.0,0.0,0.0,0.0,4.6973,4.7009,4.7009,4.7009,4.7009,4.7009,4.7009,4.6625,4.6513,4.6957,4.6501,4.6198,4.6198,4.6082,4.5814,4.5329,4.4896,0.0,4.4502,4.4119,4.3816,4.3598,4.3715,4.3715,4.3598,0.0,0.0,4.3598,4.3598,4.3598,4.3598,4.3598,4.3598,4.3598,4.3598,4.3598,4.3598,4.3598,4.3598,4.3598,4.3598,4.3598,4.3598,4.3598,4.3598,4.3598,4.3598,4.3598,4.3598,4.3598,4.3598,0.0,4.3598,4.3598,4.3598,4.3598,4.3598,4.3598,4.3598,4.3598,4.3598,4.3598,4.3598,4.3598,4.3598,4.3598,4.3598,4.3598,4.3598,4.3598,4.3598,4.3598,4.3598,4.3598,4.3128,4.2741,4.2617,4.2077,4.19,4.2349,4.2205,4.2396,4.3142,4.3035,4.2928,4.2896,4.257,4.2397,4.2397,4.2397,4.246,4.2602,4.2602,4.2602,4.2602,4.2602,4.2602,0.0,0.0,0.0,0.0,0.0,0.0,0.0,0.0,0.0,0.0,0.0,4.7009,0.0,0.0,4.7009,4.7009,4.7009,4.7009,4.7009,4.6784,4.6696,4.6957,4.653,4.6308,4.6578,4.5844,4.5337,4.5337,4.5072,4.491,4.491,4.4995,4.5046,4.5046,4.5114,4.5005,4.4689,4.4689,4.4689,4.4689,4.4689,4.4689,4.4689,4.4689,4.4689,4.4689,4.4689,4.4689,4.4656,4.4292,4.4158,4.411,4.3746,4.3598,4.3598,4.3598,4.3598,4.3598,4.3598,4.3598,4.3598,4.3598,4.3598,4.3598,4.3598,4.3598,4.3598,4.3598,4.3598,4.3598,4.3598,4.3598,4.3598,4.3598,4.3598,4.3598,4.3598,4.3598,4.3598,4.3598,4.3598,4.3598,4.3598,4.3598,4.3598,4.3598,4.3598,4.3598,4.3598,4.3295,4.3113,4.3113,4.2772,4.2553,4.2601,4.2522,4.2772,4.3553,4.328,4.3113,4.3113,4.2774,4.2602,4.2602,4.2602,4.2602,4.2602,4.2602,4.2602,4.2602,4.2602,4.2602,0.0,0.0,0.0,0.0,0.0,0.0,0.0,0.0,4.7009,4.7009,4.7009,4.7009,4.7009,4.7009,4.7009,4.7009,4.7134,4.7223,4.7223,4.6878,4.6785,4.7228,4.6576,4.6122,4.6235,4.5445,4.4942,4.4942,4.4468,4.4367,4.4728,4.5315,4.5652,4.5652,4.6222,4.6287,4.5797,4.5813,4.5813,4.5813,4.5813,4.5813,4.5813,4.5813,4.5813,4.5813,4.5813,4.5813,4.5764,4.5167,4.4919,4.4852,4.4259,4.4027,4.3994,4.3712,4.3598,4.3598,4.3598,4.3598,4.3598,4.3598,4.3598,4.3598,4.3598,4.3598,4.3598,4.3598,4.3598,4.3598,4.3598,4.3598,4.3598,4.3598,4.3598,4.3598,4.3598,4.3598,4.3598,4.3598,4.3598,4.3598,4.3598,4.3598,4.3598,4.3598,4.3598,4.3598,4.3598,4.3598,4.3598,4.3598,4.3598,4.3387,4.2834,4.2788,4.302,4.3568,4.331,4.3143,4.3113,4.2821,4.2634,4.2602,4.2602,4.2602,4.2602,4.2602,4.2602,4.2602,4.2602,4.2602,4.7061,0.0,0.0,4.7037,4.71,4.7151,0.0,0.0,4.7009,4.7009,4.7009,4.7009,4.7009,4.7009,4.7009,4.7009,4.7598,4.8074,4.8074,4.8127,4.8174,4.8238,4.6724,4.5848,4.6337,4.6431,4.645,4.645,4.6376,4.6156,4.5672,4.5724,4.5774,4.5774,4.5857,4.5859,4.5813,4.5813,4.5813,4.5813,4.5813,4.5813,4.5813,4.5813,4.5813,4.5813,4.5813,4.5813,4.5781,4.5714,4.5681,4.5681,4.5598,4.5549,4.54,4.4093,4.3598,4.3598,4.3598,4.3598,4.3598,4.3598,4.3598,4.3598,4.3598,4.3598,4.3598,4.3598,4.3598,4.3598,4.3598,4.3598,4.3598,4.3598,4.3598,4.3598,4.3598,4.3598,4.3598,4.3598,4.3598,4.3598,4.3598,4.3598,4.3598,4.3598,4.3598,4.3598,4.3598,4.3598,4.3598,4.3598,4.3598,4.3583,4.3492,4.3477,4.3507,4.3598,4.3447,4.3296,4.3113,4.2945,4.2791,4.2602,4.2602,4.2602,4.2602,4.2602,4.2602,4.2602,4.2602,4.2602,4.7272,0.0,0.0,0.0,4.7043,4.7066,4.7002,4.7009,4.7009,4.7009,4.7009,4.7009,4.7009,4.7384,4.7699,0.0,4.8051,4.8321,4.8321,4.7778,4.7412,4.7412,4.679,4.6409,4.6567,4.634,4.6181,4.6181,4.6181,4.6075,4.5813,4.6195,4.6444,4.6444,4.6858,4.7073,4.7073,4.7073,4.7073,4.7073,4.7073,4.7073,4.7073,4.7073,4.7073,4.7073,4.7073,4.7073,4.704,4.6609,4.6444,4.6394,4.5963,4.5813,4.5715,4.5119,4.4887,4.4887,4.4887,4.4887,4.4887,4.4887,4.4887,4.4887,4.4887,4.4887,4.4887,4.4887,4.4887,4.4887,4.4887,4.4887,4.4887,4.4887,4.4887,4.4887,4.4887,4.4887,4.4887,4.4887,4.4887,4.4887,4.4887,4.4887,4.4887,4.4887,4.4143,4.3598,4.3598,4.3598,4.3598,4.3598,4.3598,4.3598,4.3598,4.3598,4.3568,4.3494,4.3327,4.3143,4.2991,4.2821,4.2681,4.2602,4.2602,4.2602,4.2602,4.2602,4.2602,4.2602,4.2602,4.2602,4.7245,0.0,0.0,4.7088,4.7054,4.7054,4.7054,4.7032,4.7062,4.7294,4.733,4.7338,4.7382,4.7992,4.8443,4.8282,4.8516,4.8741,4.8741,4.7908,4.731,4.731,4.7252,4.7165,4.708,4.666,4.6411,4.6411,4.6411,4.6411,4.6411,4.6908,4.7206,4.7206,4.7719,4.8001,4.8001,4.8001,4.8001,4.8001,4.8001,4.8001,4.8001,4.8001,4.8001,4.8001,4.8001,4.8001,4.7968,4.7421,4.7206,4.7156,4.6609,4.6411,4.6411,4.6411,4.6161,4.5813,4.5813,4.5813,4.5813,4.5813,4.5813,4.5813,4.5813,4.5813,4.5813,4.5813,4.5813,4.5813,4.5813,4.5813,4.5813,4.5813,4.5813,4.5813,4.5813,4.5813,4.5813,4.5813,4.5813,4.5813,4.5813,4.5813,4.5813,4.5813,4.4887,4.4209,4.4209,4.4209,4.4209,4.4209,4.4209,4.4209,4.4209,4.4209,4.4164,4.4073,4.3934,4.3682,4.3364,4.3145,4.2922,4.2681,4.2634,4.2602,4.2602,4.2602,4.2699,4.2894,4.2894,4.3023,0.0,0.0,4.7276,4.7212,4.7178,4.7178,4.7178,4.7088,4.7223,4.8002,4.8163,4.8194,4.8329,4.8863,4.9082,4.8492,4.9052,4.9556,4.9556,4.9143,4.8831,4.8831,4.8321,4.7968,0.0,4.7934,4.7934,4.7934,4.7934,4.7934,4.7934,4.7951,4.7968,4.7968,4.7984,4.8001,4.8001,4.8001,4.8001,4.8001,4.8001,4.8001,4.8001,4.8001,4.8001,4.8001,4.8001,4.8001,4.8001,4.7984,4.7968,4.7968,4.7934,4.7934,4.7934,4.7934,4.7023,4.5813,4.5813,4.5813,4.5813,4.5813,4.5813,4.5813,4.5813,4.5813,4.5813,4.5813,4.5813,4.5813,4.5813,4.5813,4.5813,4.5813,4.5813,4.5813,4.5813,4.5813,4.5813,4.5813,4.5813,4.5813,4.5813,4.5813,4.5813,4.5813,4.5748,4.5715,4.5715,4.5715,4.5715,4.5715,4.5715,4.5715,4.5715,4.5715,4.5715,4.5732,4.5732,4.5339,4.4491,4.4256,4.374,4.29,4.2696,4.2602,4.2602,4.2602,4.2974,4.367,4.367,4.4059,0.0,0.0,4.7287,4.7212,4.7133,4.7209,4.7738,4.7829,4.8008,4.8764,4.86,4.8473,4.893,4.8937,4.8971,4.9153,4.9153,4.9137,4.9137,4.864,4.8475,4.8975,4.8845,0.0,0.0,0.0,0.0,4.873,4.9177,4.9458,4.9458,4.9458,4.9458,4.9458,4.9458,4.9458,4.9458,4.9458,4.9458,4.9458,4.9458,4.9458,4.9458,4.9458,4.9458,4.9425,4.8928,4.873,4.8696,4.8199,4.8001,4.8001,4.8001,4.8001,4.8001,4.8001,4.7686,4.7255,4.7255,4.7255,4.7255,4.7255,4.7255,4.7255,4.7255,4.7255,4.7255,4.7255,4.7255,4.7255,4.7255,4.7255,4.7255,4.7255,4.7255,4.7255,4.7255,4.7255,4.7255,4.7255,4.7255,4.7255,4.7255,4.7255,4.7255,4.7255,4.6427,4.5813,4.5813,4.5813,4.5813,4.5813,4.5813,4.5813,4.5813,4.5813,4.5767,4.5673,4.5658,4.5448,4.4916,4.482,4.4593,4.4172,4.4091,4.4059,4.4059,4.4059,4.4188,4.4431,4.4431,4.4561,0.0,4.732,4.7332,4.7597,4.7568,4.7703,4.8495,4.8668,4.887,4.9585,4.9428,4.9217,4.9431,4.9453,4.95,4.9644,4.9662,4.964,4.9625,4.9339,4.9226,4.9459,4.9491,0.0,0.0,0.0,0.0,4.9508,4.9922,5.0203,5.0203,5.0203,5.0203,5.0203,5.0203,5.0203,5.0203,5.0203,5.0203,5.0203,5.0203,5.0203,5.0203,5.0203,5.0203,5.017,4.969,4.9491,4.9458,4.8978,4.8796,4.8796,4.8796,4.8796,4.8796,4.8796,4.8796,4.8713,4.8183,4.8001,4.8001,4.8001,4.8001,4.8001,4.8001,4.8001,4.8001,4.8001,4.8001,4.8001,4.8001,4.8001,4.8001,4.8001,4.8001,4.8001,4.8001,4.8001,4.8001,4.8001,4.8001,4.8001,4.8001,4.8001,4.8001,4.8001,4.7189,4.6576,4.6576,4.6576,4.6576,4.6576,4.6576,4.6576,4.6576,4.6576,4.6561,4.6466,4.6218,4.5974,4.5749,4.5439,4.5179,4.4984,4.4919,4.487,4.4804,4.4804,4.4917,4.516,4.516,4.5289,4.749,4.7374,4.7456,4.8293,4.847,4.8659,4.9394,4.9555,4.974,5.043,5.0541,5.0381,0.0,0.0,5.0551,4.9916,5.0452,5.0937,5.0862,5.1039,5.094,0.0,0.0,0.0,0.0,0.0,0.0,5.0369,0.0,5.0302,5.0302,5.0302,5.0302,5.0302,5.0302,5.0302,5.0302,5.0302,5.0302,5.0302,5.0302,5.0302,5.0302,5.0302,5.0302,5.0302,5.0269,5.0253,5.0253,5.022,5.0203,5.0203,5.0203,5.0203,5.0203,5.0203,5.0203,4.9988,4.8597,4.8117,4.8117,4.8067,4.8067,4.805,4.8017,4.8001,4.8001,4.8001,4.8001,4.8001,4.8001,4.8001,4.8001,4.8001,4.8001,4.8001,4.8001,4.8001,4.8001,4.8001,4.8001,4.8001,4.8001,4.8001,4.8001,4.8001,4.8001,4.8001,4.8001,4.8001,4.8001,4.8001,4.8001,4.8001,4.8001,4.8001,4.8001,4.8001,4.7338,4.6957,4.6941,4.6136,4.5599,4.5406,4.5261,4.5098,4.4917,4.4917,4.5225,4.5856,4.5856,4.6228,4.7385,4.7751,4.8198,4.831,4.8778,4.9394,5.0091,5.0246,5.046,5.1239,5.1039,5.0695,0.0,0.0,0.0,4.9976,5.0197,0.0,5.0392,5.0426,0.0,5.0967,0.0,5.1248,5.1795,5.201,0.0,0.0,5.1845,5.1845,5.1845,5.1845,5.1845,5.1845,5.1845,5.1845,5.1845,5.1845,5.1845,5.1845,5.1845,5.1845,5.1845,5.1845,5.1845,5.1811,5.1265,5.1016,5.0983,5.0436,5.0203,5.0203,5.0203,5.0203,5.0203,5.0203,5.0203,5.0153,4.9773,4.964,4.9541,4.8994,4.8829,4.873,4.8166,4.8001,4.8001,4.8001,4.8001,4.8001,4.8001,4.8001,4.8001,4.8001,4.8001,4.8001,4.8001,4.8001,4.8001,4.8001,4.8001,4.8001,4.8001,4.8001,4.8001,4.8001,4.8001,4.8001,4.8001,4.8001,4.8001,4.8001,4.8001,4.8001,4.8001,4.8001,4.8001,4.8001,4.7819,4.7637,4.749,4.7194,4.6913,4.6713,4.6528,4.6426,4.6359,4.6359,4.6456,4.6618,4.6618,4.6731,4.7733,4.8086,4.8451,4.8865,4.9302,4.9719,5.0096,5.0477,5.0748,5.0854,5.0826,0.0,0.0,0.0,0.0,0.0,0.0,0.0,5.1078,5.1379,5.1661,0.0,5.1778,0.0,5.2358,5.2391,5.2391,0.0,5.2391,5.2391,5.2391,5.2391,5.2391,5.2391,5.2391,5.2391,5.2391,5.2391,5.2391,5.2391,5.2391,5.2391,5.2391,5.2391,5.2391,5.2375,0.0,5.1778,5.1745,5.1347,5.1164,5.1164,5.1164,5.1164,5.1164,5.1164,5.1164,5.1164,5.1164,5.1164,5.0982,4.9922,4.9574,4.9508,4.9094,4.8978,4.8978,4.8978,4.8729,4.8481,4.8481,4.8249,4.8001,4.8001,4.8001,4.8001,4.8001,4.8001,4.8001,4.8001,4.8001,4.8001,4.8001,4.8001,4.8001,4.8001,4.8282,4.8481,4.8481,4.8199,4.8001,4.8001,4.8001,4.8001,4.8001,4.8001,4.8001,4.8001,4.7605,4.7473,4.7688,4.7259,4.7075,4.72,4.7081,4.6996,4.6893,4.6893,4.6893,4.6893,4.6893,4.6893,4.8236,4.8382,4.8524,4.954,4.9811,4.9828,4.9792,5.0331,5.0638,4.9933,0.0,5.0648,5.0099,5.017,5.0493,5.1038,0.0,5.2286,5.2219,5.2826,5.3059,5.2463,5.2391,5.2391,5.2391,5.2391,5.2391,5.2391,5.2391,5.2391,5.2391,5.2391,5.2391,5.2391,5.2391,5.2391,5.2391,5.2391,5.2391,5.2391,5.2391,5.2391,5.2391,5.2391,5.2391,5.2391,0.0,0.0,5.2391,5.2391,5.2391,5.2391,5.2391,5.2391,5.2391,5.2391,5.2391,5.2391,5.2391,5.2391,5.2176,5.08,5.0353,5.0319,5.022,5.0203,5.0203,5.0203,4.9739,4.926,4.926,4.8779,4.8299,4.8299,4.8299,4.8299,4.8299,4.8299,4.8299,4.8299,4.8299,4.8299,4.8299,4.8299,4.8299,4.8299,4.8845,4.926,4.926,4.8696,4.8299,4.8299,4.8299,4.8299,4.8299,4.8299,4.8249,4.815,4.7374,4.7177,4.7721,4.6963,4.6765,4.7235,4.7183,4.7064,4.6893,4.6893,4.6893,4.6893,4.6893,4.6893,4.808,4.8524,4.8908,4.9499,4.9802,4.9941,4.9844,4.9904,0.0,0.0,0.0,5.07,5.0108,5.0999,5.1697,5.1325,0.0,0.0,0.0,0.0,5.2517,0.0,0.0,0.0,0.0,0.0,0.0,0.0,0.0,0.0,5.2391,5.2391,5.2391,5.2391,5.2391,5.2391,5.2391,5.2391,5.2391,5.2391,5.2391,5.2391,5.2391,5.2391,5.2391,5.2391,0.0,0.0,5.2391,5.2391,5.2391,5.2391,5.2391,5.2391,5.2391,5.2391,5.2391,5.2391,5.2391,5.2391,5.2259,5.1381,5.1116,5.1,5.0386,5.0203,5.0203,5.0203,5.0104,5.0004,5.0004,4.9905,4.9822,4.9822,4.9822,4.9822,4.9822,4.9822,4.9822,4.9822,4.9822,4.9822,4.9822,4.9822,4.9822,4.9822,4.9922,5.0004,5.0004,4.9889,4.9822,4.9822,4.9822,4.9822,4.9822,4.9822,4.9557,4.8961,4.8762,4.8448,4.7968,4.7539,4.7339,4.7436,4.7115,4.6928,4.6893,4.6893,4.6893,4.6893,4.6893,4.6893,4.7788,4.8336,4.886,4.9169,4.9325,4.9334,4.8946,0.0,0.0,0.0,4.9965,5.0472,5.0659,5.1262,0.0,0.0,0.0,0.0,0.0,0.0,0.0,0.0,0.0,0.0,0.0,0.0,0.0,0.0,0.0,0.0,5.2391,5.2391,5.2391,5.2391,5.2391,5.2391,5.2391,5.2391,5.2391,5.2391,5.2391,5.2391,5.2391,5.2391,5.2391,5.2391,5.2391,0.0,5.2391,5.2391,5.2391,5.2391,5.2391,5.2391,5.2391,5.2391,5.2391,5.2391,5.2391,5.2391,5.2342,5.1994,5.1861,5.1811,5.1446,5.1347,5.1347,5.1347,5.1065,5.0767,5.0767,5.0502,5.0203,5.0203,5.0203,5.0203,5.0203,5.0203,5.0203,5.0203,5.0203,5.0203,5.0203,5.0203,5.0203,5.0203,5.0535,5.0767,5.0767,5.1115,5.1048,5.0269,5.0203,5.0203,5.0203,5.0203,5.0038,4.969,4.9572,4.9305,4.884,4.8567,4.8395,4.8273,4.8098,4.7993,4.7993,4.7993,4.7993,4.7993,4.7993,4.7993,4.7506,4.8057,4.8609,4.8839,4.8807,4.8574,4.8115,4.8371,0.0,0.0,4.9608,5.0306,5.1137,0.0,5.1729,0.0,5.2391,0.0,0.0,0.0,0.0,0.0,0.0,0.0,0.0,0.0,0.0,0.0,0.0,0.0,5.2391,5.2391,5.2391,5.2391,5.2391,5.2391,5.2391,5.2391,5.2391,5.2391,5.2391,5.2391,5.2391,5.2391,5.2391,5.2391,5.2391,0.0,0.0,5.2391,5.2391,5.2391,5.2391,5.2391,5.2391,5.2391,5.2391,5.2391,5.2391,5.2391,5.2391,5.2391,5.2391,5.2391,5.2391,5.2391,5.2391,5.2391,5.1977,5.153,5.153,5.1098,5.0684,5.0684,5.0684,5.0684,5.0684,5.0684,5.0684,5.0684,5.0684,5.0684,5.0684,5.0684,5.0684,5.0684,5.1148,5.153,5.153,5.2043,5.1961,5.08,5.0684,5.0684,5.0684,5.0684,5.06,5.0452,5.0298,5.0042,4.9686,4.9477,4.9265,4.9066,4.903,4.9012,4.9012,4.9012,4.9012,4.9012,4.9012,4.9012,4.744,4.784,4.8208,4.8759,4.8481,4.8066,4.8017,0.0,0.0,4.8961,4.9674,5.0405,5.1166,5.1845,0.0,0.0,5.2391,5.2391,0.0,0.0,0.0,0.0,0.0,0.0,0.0,0.0,0.0,0.0,0.0,0.0,0.0,5.2391,5.2391,5.2391,5.2391,5.2391,5.2391,5.2391,5.2391,5.2391,5.2391,5.2391,5.2391,5.2391,5.2391,5.2391,0.0,0.0,0.0,5.2391,5.2391,5.2391,5.2391,5.2391,5.2391,5.2391,5.2391,5.2391,5.2391,5.2391,5.2391,5.2391,5.2391,5.2391,5.2391,5.2391,5.2391,5.2391,5.2342,5.2292,5.2292,5.2242,5.2192,5.2192,5.2192,5.2192,5.2192,5.2192,5.2192,5.2192,5.2192,5.2192,5.2192,5.2192,5.2192,5.2192,5.2259,5.2292,5.2292,5.2358,5.2342,5.2209,5.2192,5.2192,5.2192,5.2192,5.1911,5.1231,5.1181,5.0779,4.9911,4.967,4.9476,4.9279,4.9084,4.9012,4.9012,4.9012,4.9012,4.9012,4.9012,4.9012,4.7095,4.757,4.8049,4.8291,4.8179,4.8001,4.8001,0.0,4.8349,4.9508,4.9988,5.0568,5.1745,5.2192,5.2391,5.2391,5.2391,5.2391,5.2391,0.0,0.0,0.0,0.0,0.0,0.0,0.0,0.0,0.0,0.0,0.0,0.0,5.2391,5.2391,5.2391,5.2391,5.2391,5.2391,5.2391,5.2391,5.2391,5.2391,5.2391,5.2391,5.2391,5.2391,5.2391,0.0,0.0,0.0,5.2391,5.2391,5.2391,5.2391,5.2391,5.2391,5.2391,5.2391,5.2391,5.2391,5.2391,5.2391,5.2391,5.2391,5.2391,5.2391,5.2391,5.2391,5.2391,5.2391,5.2391,5.2391,5.2391,5.2391,5.2391,5.2391,5.2391,5.2391,5.2391,5.2391,5.2391,5.2391,5.2391,5.2391,5.2391,5.2391,5.2391,5.2391,5.2391,5.2391,5.2391,5.2391,5.2391,5.2391,5.2391,5.2391,5.2391,5.2275,5.1977,5.1961,5.1686,5.1069,5.098,5.0765,5.0436,5.0362,5.0325,5.0325,5.0325,5.0325,5.0325,5.0325,5.0325,4.6819,4.7438,4.8001,4.8001,4.8001,4.8001,0.0,0.0,4.8431,4.9889,5.0203,5.0634,5.2126,5.2391,5.2391,5.2391,5.2391,5.2391,5.2391,0.0,0.0,0.0,0.0,0.0,0.0,0.0,0.0,0.0,0.0,0.0,0.0,5.2706,5.2607,5.2408,5.2391,5.2391,5.2391,5.2391,5.2391,5.2391,5.2391,5.2391,5.2391,5.2391,5.2391,5.2391,0.0,0.0,0.0,5.2391,5.2391,5.2391,5.2391,5.2391,5.2391,5.2391,5.2391,5.2391,5.2391,5.2391,5.2391,5.2391,5.2391,5.2391,5.2391,5.2391,5.2391,5.2391,5.2391,5.2391,5.2391,5.2391,5.2391,5.2391,5.2391,5.2391,5.2391,5.2391,5.2391,5.2391,5.2391,5.2391,5.2391,5.2391,5.2391,5.2391,5.2391,5.2391,5.2391,5.2391,5.2391,5.2391,5.2391,5.2391,5.2391,5.2391,5.2391,5.2391,5.2391,5.2248,5.1904,5.1886,5.1702,5.1312,5.1277,5.1258,5.1202,5.1202,5.1202,5.1202,5.1202,5.1202,4.6692,4.7438,4.8001,4.8001,4.8001,4.8001,0.0,0.0,4.8431,4.9889,5.0203,5.0634,5.2126,5.2391,5.2391,5.2391,5.2391,5.2391,5.2391,0.0,0.0,0.0,0.0,0.0,0.0,0.0,0.0,0.0,0.0,0.0,0.0,5.3382,5.3086,5.2424,5.2391,5.2391,5.2391,5.2391,5.2391,5.2391,5.2391,5.2391,5.2391,5.2391,5.2391,0.0,0.0,0.0,0.0,5.2391,5.2391,5.2391,5.2391,5.2391,5.2391,5.2391,5.2391,5.2391,5.2391,5.2391,5.2391,5.2391,5.2391,5.2391,5.2391,5.2391,5.2391,5.2391,5.2391,5.2391,5.2391,5.2391,5.2391,5.2391,5.2391,5.2391,5.2391,5.2391,5.2391,5.2391,5.2391,5.2391,5.2391,5.2391,5.2391,5.2391,5.2391,5.2391,5.2391,5.2391,5.2391,5.2391,5.2391,5.2391,5.2391,5.2391,5.2391,5.2391,5.2391,5.2318,5.2102,5.2102,5.1902,5.1499,5.1499,5.1406,5.1202,5.1202,5.1202,5.1202,5.1202,5.1202,4.7305,4.7819,4.8001,4.8001,4.8001,4.8001,4.8001,0.0,4.8431,4.9889,5.0203,5.0634,5.2126,5.2391,5.2391,5.2391,5.2391,5.2391,0.0,0.0,0.0,0.0,0.0,0.0,0.0,0.0,0.0,0.0,0.0,0.0,0.0,5.4144,5.3597,5.2441,5.2391,5.2391,5.2391,5.2391,5.2391,5.2391,5.2391,5.2391,5.2391,5.2391,0.0,0.0,0.0,0.0,0.0,5.2391,5.2391,5.2391,5.2391,5.2391,5.2391,5.2391,5.2391,5.2391,5.2391,5.2391,5.2391,5.2391,5.2391,5.2391,5.2391,5.2391,5.2391,5.2391,5.2391,5.2391,5.2391,5.2391,5.2391,5.2391,5.2391,5.2391,5.2391,5.2391,5.2391,5.2391,5.2391,5.2391,5.2391,5.2391,5.2391,5.2391,5.2391,5.2391,5.2391,5.2391,5.2391,5.2391,5.2391,5.2391,5.2391,5.2391,5.2391,5.2391,5.2391,5.2318,5.2102,5.2102,5.1921,5.1515,5.1499,5.1406,5.1202,5.1202,5.1202,5.1202,5.1202,5.1202,0.0,4.8001,4.8001,4.8001,4.8001,0.0,0.0,0.0,4.8763,4.9938,5.0419,5.0982,5.2176,5.2391,5.2391,5.2391,5.2391,5.2391,0.0,0.0,0.0,0.0,0.0,0.0,0.0,0.0,0.0,0.0,0.0,0.0,0.0,0.0,5.4392,5.3218,5.3185,5.3185,5.3185,5.3185,5.3185,5.3185,5.3185,5.3185,5.3169,5.2887,0.0,0.0,0.0,0.0,0.0,5.2391,5.2391,5.2391,5.2391,5.2391,5.2391,5.2391,5.2391,5.2391,5.2391,5.2391,5.2391,5.2391,5.2391,5.2391,5.2391,5.2391,5.2391,5.2391,5.2391,5.2391,5.2391,5.2391,5.2391,5.2391,5.2391,5.2391,5.2391,5.2391,5.2391,5.2391,5.2391,5.2391,5.2391,5.2391,5.2391,5.2391,5.2391,5.2391,5.2391,5.2391,5.2391,5.2391,5.2391,5.2391,5.2391,5.2391,5.2391,5.2391,5.2391,5.2338,5.2229,5.2211,5.2013,5.1629,5.161,5.148,5.1202,5.1202,5.1202,5.1202,5.1202,5.1202,0.0,0.0,0.0,0.0,0.0,0.0,0.0,0.0,0.0,5.0038,5.0783,5.1531,5.2259,5.2391,5.2391,5.2391,5.2391,0.0,0.0,0.0,0.0,0.0,0.0,0.0,0.0,0.0,0.0,0.0,0.0,0.0,0.0,0.0,5.5369,5.4674,5.4657,5.4607,5.4508,5.4508,5.4508,5.4508,5.4508,5.4508,5.4475,5.3796,0.0,0.0,0.0,0.0,0.0,5.2491,5.2474,5.2474,5.2424,5.2391,5.2391,5.2391,5.2391,5.2391,5.2391,5.2391,5.2391,5.2391,5.2391,5.2391,5.2391,5.2391,5.2391,5.2391,5.2391,5.2391,5.2391,5.2391,5.2391,5.2391,5.2391,5.2391,5.2391,5.2391,5.2391,5.2391,5.2391,5.2391,5.2391,5.2391,5.2391,5.2391,5.2391,5.2391,5.2391,5.2391,5.2391,5.2391,5.2391,5.2391,5.2391,5.2391,5.2391,5.2391,5.2391,5.2391,5.2391,5.239,5.2194,5.1796,5.176,5.1575,5.1202,5.1202,5.1202,5.1202,5.1202,5.1202,0.0,0.0,0.0,0.0,0.0,0.0,0.0,0.0,0.0,0.0,0.0,5.1531,5.2259,5.2391,5.2391,5.2391,5.2391,0.0,0.0,0.0,0.0,0.0,0.0,0.0,0.0,0.0,0.0,0.0,0.0,0.0,0.0,0.0,5.6349,5.6183,5.6166,5.5636,5.4508,5.4508,5.4508,5.4508,5.4508,5.4508,5.4492,5.4326,0.0,0.0,0.0,0.0,5.3945,5.34,5.315,5.3119,5.2607,5.2391,5.2391,5.2391,5.2391,5.2391,5.2391,5.2391,5.2391,5.2391,5.2391,5.2391,5.2391,5.2391,5.2391,5.2391,5.2391,5.2391,5.2391,5.2391,5.2391,5.2391,5.2391,5.2391,5.2391,5.2391,5.2391,5.2391,5.2391,5.2391,5.2391,5.2391,5.2391,5.2391,5.2391,5.2391,5.2391,5.2391,5.2391,5.2391,5.2391,5.2391,5.2391,5.2391,5.2391,5.2391,5.2391,5.2391,5.2391,5.2247,5.205,5.1796,5.1501,5.1296,5.1202,5.1202,5.1202,5.1202,5.1202,5.1202,0.0,0.0,0.0,0.0,0.0,0.0,0.0,0.0,0.0,0.0,0.0,5.1927,5.2325,5.2391,5.2391,5.2391,5.2391,0.0,0.0,0.0,0.0,0.0,0.0,0.0,0.0,0.0,0.0,0.0,0.0,0.0,0.0,0.0,5.6699,5.6699,5.6699,5.6335,5.5521,5.5521,5.5521,5.5521,5.5521,5.5521,5.5504,5.5154,0.0,0.0,0.0,0.0,5.4475,5.4078,5.3895,5.3829,5.3135,5.2854,5.2821,5.2507,5.2391,5.2391,5.2391,5.2391,5.2391,5.2391,5.2391,5.2391,5.2391,5.2391,5.2391,5.2391,5.2391,5.2391,5.2391,5.2391,5.2391,5.2391,5.2391,5.2391,5.2391,5.2391,5.2391,5.2391,5.2391,5.2391,5.2391,5.2391,5.2391,5.2391,5.2391,5.2391,5.2391,5.2391,5.2391,5.2391,5.2391,5.2391,5.2391,5.2391,5.2391,5.2391,5.2391,5.2391,5.2391,5.2211,5.1975,5.1666,5.1352,5.1202,5.1202,5.1202,5.1202,5.1202,5.1202,5.1202,0.0,0.0,0.0,0.0,0.0,0.0,0.0,0.0,0.0,0.0,0.0,0.0,0.0,5.2391,0.0,0.0,0.0,0.0,0.0,0.0,0.0,0.0,0.0,0.0,0.0,0.0,0.0,0.0,0.0,0.0,0.0,0.0,0.0,5.6699,5.6699,5.6699,5.6699,5.6699,5.6699,5.6699,5.6699,5.6699,5.6683,5.6048,0.0,0.0,0.0,0.0,5.4823,5.4707,5.4674,5.4591,5.3862,5.3564,5.3498,5.292,5.2656,5.254,5.2441,5.2391,5.2391,5.2391,5.2391,5.2391,5.2391,5.2391,5.2391,5.2391,5.2391,5.2391,5.2391,5.2391,5.2391,5.2391,5.2391,5.2391,5.2391,5.2391,5.2391,5.2391,5.2391,5.2391,5.2391,5.2391,5.2391,5.2391,5.2391,5.2391,5.2391,5.2391,5.2391,5.2391,5.2391,5.2391,5.2391,5.2391,5.2391,5.2391,5.2391,5.2373,5.2302,5.214,5.1849,5.1462,5.1277,5.1202,5.1202,5.1202,5.1202,5.1202,5.1202,5.1202,4.7603,4.8001,4.8001,0.0,0.0,0.0,0.0,0.0,0.0,0.0,0.0,0.0,0.0,0.0,0.0,0.0,0.0,0.0,0.0,0.0,0.0,0.0,0.0,0.0,0.0,0.0,0.0,0.0,0.0,0.0,0.0,0.0,0.0,5.6699,5.6699,5.6699,5.6699,5.6699,5.6699,5.6699,5.6699,5.6699,5.6699,5.6581,5.6531,0.0,0.0,5.6349,5.6299,5.5684,5.5435,5.5369,5.4624,5.4326,5.4326,5.421,5.378,5.3185,5.2607,5.2391,5.2391,5.2391,5.2391,5.2391,5.2391,5.2391,5.2391,5.2391,5.2391,5.2391,5.2391,5.2391,5.2391,5.2391,5.2391,5.2391,5.2391,5.2391,5.2391,5.2391,5.2391,5.2391,5.2391,5.2391,5.2391,5.2391,5.2391,5.2391,5.2391,5.2391,5.2391,5.2391,5.2391,5.2391,5.2391,5.2391,5.2391,5.2391,5.2391,5.2248,5.1922,5.1851,5.1649,5.124,5.1221,5.1202,5.1202,5.1202,5.1202,5.1202,5.1202,5.1202,4.7603,4.8001,4.8001,4.8001,0.0,0.0,0.0,0.0,0.0,0.0,0.0,0.0,0.0,0.0,0.0,0.0,0.0,0.0,0.0,0.0,0.0,0.0,0.0,0.0,0.0,0.0,0.0,0.0,0.0,0.0,0.0,0.0,0.0,0.0,5.6699,5.6699,5.6699,5.6699,5.6699,5.6699,5.6699,5.6699,5.6699,5.6699,5.6699,5.6699,0.0,5.6699,5.6663,5.6332,5.62,5.6133,5.5386,5.5104,5.5055,5.4657,5.4293,5.3945,5.3649,5.3533,5.3467,5.3069,5.2937,5.287,5.2507,5.2391,5.2391,5.2391,5.2391,5.2391,5.2391,5.2391,5.2391,5.2391,5.2391,5.2391,5.2391,5.2391,5.2391,5.2391,5.2391,5.2391,5.2391,5.2391,5.2391,5.2391,5.2391,5.2391,5.2391,5.2391,5.2391,5.2391,5.2391,5.2391,5.2391,5.2391,5.2391,5.2391,5.2391,5.2212,5.1831,5.1796,5.1612,5.1202,5.1202,5.1202,5.1202,5.1202,5.1202,5.1202,5.1202,5.1202,4.7653,4.8001,4.805,4.8216,0.0,0.0,0.0,0.0,0.0,0.0,0.0,0.0,0.0,0.0,0.0,0.0,0.0,0.0,0.0,0.0,0.0,0.0,0.0,0.0,0.0,0.0,0.0,0.0,0.0,0.0,0.0,0.0,0.0,0.0,5.6699,5.6699,5.6699,5.6699,5.6699,5.6699,5.6699,5.6699,5.6699,5.6699,5.6699,5.6699,5.6699,5.6699,5.6699,5.6699,5.6699,5.665,5.6084,5.5849,5.5767,5.5038,5.4756,5.474,5.4558,5.4508,5.4409,5.3846,5.3647,5.3531,5.2837,5.264,5.2607,5.2441,5.2391,5.2391,5.2391,5.2391,5.2391,5.2391,5.2391,5.2391,5.2391,5.2391,5.2391,5.2391,5.2391,5.2391,5.2391,5.2391,5.2391,5.2391,5.2391,5.2391,5.2391,5.2391,5.2391,5.2391,5.2391,5.2391,5.2391,5.2391,5.2391,5.2391,5.2391,5.2212,5.1831,5.1796,5.1612,5.1202,5.1202,5.1202,5.1202,5.1202,5.1202,5.1202,5.1202,5.1202,4.7785,4.8001,4.8166,4.8862,4.9061,0.0,5.0021,5.0767,0.0,5.2242,0.0,0.0,0.0,0.0,0.0,0.0,0.0,0.0,0.0,0.0,0.0,0.0,0.0,0.0,0.0,0.0,0.0,0.0,0.0,0.0,0.0,0.0,0.0,0.0,0.0,5.6699,5.6699,5.6699,5.6699,5.6699,5.6699,5.6699,5.6699,5.6699,5.6699,5.6699,5.6699,5.6699,5.6699,5.6699,5.6699,5.6699,5.665,5.6614,5.6531,5.5783,5.5535,5.5435,5.474,5.4508,5.4492,5.4442,5.4425,5.4276,5.3548,5.3316,5.3202,5.2574,5.2391,5.2391,5.2391,5.2391,5.2391,5.2391,5.2391,5.2391,5.2391,5.2391,5.2391,5.2391,5.2391,5.2391,5.2391,5.2391,5.2391,5.2391,5.2391,5.2391,5.2391,5.2391,5.2391,5.2391,5.2391,5.2391,5.2391,5.2391,5.2391,5.2391,5.2391,5.2212,5.1831,5.1796,5.1612,5.1202,5.1202,5.1202,5.1202,5.1202,5.1202,5.1202,5.1202,5.1202,4.7802,4.8001,4.8183,4.8928,4.9441,0.0,0.0,5.1447,5.206,0.0,0.0,0.0,0.0,0.0,0.0,0.0,0.0,0.0,0.0,0.0,0.0,0.0,0.0,0.0,0.0,0.0,0.0,0.0,0.0,0.0,0.0,0.0,0.0,0.0,0.0,5.6699,5.6699,5.6699,5.6699,5.6699,5.6699,5.6699,5.6699,5.6699,5.6699,5.6699,5.6699,5.6699,5.6699,5.6699,5.6699,5.6699,5.6699,5.6699,5.6683,5.6382,5.6282,5.6249,5.5968,5.5868,5.5786,5.5336,5.5187,5.5055,5.4309,5.3763,5.3349,5.3102,5.2721,5.2391,5.2391,5.2391,5.2391,5.2391,5.2391,5.2391,5.2391,5.2391,5.2391,5.2391,5.2391,5.2391,5.2391,5.2391,5.2391,5.2391,5.2391,5.2391,5.2391,5.2391,5.2391,5.2391,5.2391,5.2391,5.2391,5.2391,5.2391,5.2391,5.2391,5.2283,5.1995,5.1868,5.1684,5.1387,5.1258,5.1202,5.1202,5.1202,5.1202,5.1202,5.1202,5.1202,4.7868,4.8166,4.8531,4.9259,0.0,0.0,5.148,5.2043,5.2391,0.0,0.0,0.0,0.0,0.0,0.0,0.0,0.0,0.0,0.0,0.0,0.0,0.0,0.0,0.0,0.0,0.0,0.0,0.0,0.0,0.0,0.0,0.0,0.0,0.0,0.0,0.0,5.7046,5.6815,5.6815,5.703,5.6815,5.6699,5.6699,5.6699,5.6699,5.6699,5.6699,5.6699,5.6699,5.6699,5.6699,5.6699,5.6699,5.6699,5.6699,5.6699,5.6699,5.6699,5.6699,5.6699,5.6633,5.6117,5.5949,5.58,5.5071,5.4326,5.3697,5.3465,5.292,5.2391,5.2391,5.2391,5.2391,5.2391,5.2391,5.2391,5.2391,5.2391,5.2391,5.2391,5.2391,5.2391,5.2391,5.2391,5.2391,5.2391,5.2391,5.2391,5.2391,5.2391,5.2391,5.2391,5.2391,5.2391,5.2391,5.2391,5.2391,5.2391,5.2391,5.2318,5.2102,5.1904,5.1721,5.1499,5.1296,5.1202,5.1202,5.1202,5.1202,5.1202,5.1202,5.1202,4.8001,4.8547,4.9293,0.0,0.0,0.0,5.2226,5.2391,5.2391,0.0,0.0,0.0,0.0,0.0,0.0,0.0,0.0,0.0,0.0,0.0,0.0,0.0,0.0,0.0,0.0,0.0,0.0,0.0,0.0,0.0,0.0,0.0,0.0,0.0,0.0,0.0,5.7796,5.7084,5.7084,5.7796,5.7049,5.6699,5.6699,5.6699,5.6699,5.6699,5.6699,5.6699,5.6699,5.6699,5.6699,5.6699,5.6699,5.6699,5.6699,5.6716,5.6699,5.6699,5.6699,5.6699,5.6699,5.6699,5.6699,5.6547,5.5833,5.5104,5.4343,5.3614,5.292,5.2391,5.2391,5.2391,5.2409,5.2391,5.2391,5.2391,5.2391,5.2391,5.2391,5.2391,5.2391,5.2391,5.2391,5.2391,5.2391,5.2391,5.2391,5.2391,5.2391,5.2391,5.2391,5.2391,5.2391,5.2391,5.2391,5.2391,5.2391,5.2391,5.2391,5.2318,5.2102,5.1904,5.1721,5.1515,5.1296,5.1202,5.1202,5.1202,5.1202,5.1202,5.1202,5.1202,4.8001,4.8547,0.0,5.0021,0.0,0.0,0.0,5.2391,0.0,0.0,0.0,0.0,0.0,0.0,0.0,0.0,0.0,0.0,0.0,0.0,0.0,0.0,0.0,0.0,0.0,0.0,0.0,0.0,0.0,0.0,0.0,0.0,0.0,0.0,0.0,0.0,5.7796,5.7084,5.7084,5.7796,5.7049,5.6699,5.6699,5.6699,5.6699,5.6699,5.6699,5.6699,5.6699,5.6699,5.6699,5.6699,5.6699,5.6699,5.6757,5.7277,5.7482,5.7482,5.7482,5.7482,5.7389,5.6856,5.6699,5.6666,5.6432,5.5504,5.4458,5.4243,5.3318,5.2391,5.2391,5.2746,5.2973,5.2516,5.2391,5.2391,5.2391,5.2391,5.2391,5.2391,5.2391,5.2391,5.2391,5.2391,5.2391,5.2391,5.2391,5.2391,5.2391,5.2391,5.2391,5.2391,5.2391,5.2391,5.2391,5.2391,5.2391,5.2391,5.2391,5.2373,5.2302,5.1979,5.176,5.1721,5.1371,5.1202,5.1202,5.1202,5.1202,5.1202,5.1202,5.1202,4.8365,4.8978,0.0,5.0452,5.1198,0.0,0.0,0.0,0.0,0.0,0.0,0.0,0.0,0.0,0.0,0.0,0.0,0.0,0.0,0.0,0.0,0.0,0.0,0.0,0.0,0.0,0.0,0.0,0.0,0.0,0.0,0.0,0.0,0.0,0.0,0.0,5.8668,5.7925,5.7797,5.8229,5.7483,5.6989,5.6699,5.6699,5.6699,5.6699,5.6699,5.6699,5.6699,5.6699,5.6699,5.6719,5.7011,5.7124,5.7237,5.796,5.8247,5.8211,5.7905,5.7796,5.7668,5.6932,5.6699,5.6699,5.6699,5.567,5.4508,5.4508,5.3684,5.2799,5.2799,5.3094,5.3298,5.2886,5.2799,5.2799,5.2799,5.2588,5.2391,5.2391,5.2391,5.2391,5.2391,5.2391,5.2391,5.2391,5.2391,5.2391,5.2391,5.2391,5.2391,5.2391,5.2391,5.2391,5.2391,5.2391,5.2391,5.2391,5.2391,5.2391,5.2391,5.2086,5.1886,5.1796,5.1483,5.1277,5.1202,5.1202,5.1202,5.1202,5.1202,5.1202,4.8912,0.0,0.0,5.1116,5.1845,0.0,0.0,0.0,0.0,0.0,0.0,0.0,0.0,0.0,0.0,0.0,0.0,0.0,0.0,0.0,0.0,0.0,0.0,0.0,0.0,0.0,0.0,0.0,0.0,0.0,0.0,0.0,0.0,0.0,0.0,0.0,5.9889,5.918,5.8823,0.0,5.814,5.7407,5.6699,5.6699,5.6699,5.6699,5.6699,5.6699,5.6716,5.6776,5.6796,5.6875,5.7613,5.7905,5.7978,5.872,5.8994,5.8892,5.8229,5.7996,5.7868,5.7049,5.6796,5.6796,5.6719,5.5708,5.4584,5.4584,5.4062,5.35,5.35,5.35,5.3516,5.3583,5.3433,5.3315,5.3315,5.2834,5.2391,5.2391,5.2391,5.2391,5.2391,5.2391,5.2391,5.2391,5.2391,5.2391,5.2391,5.2391,5.2391,5.2391,5.2391,5.2391,5.2391,5.2391,5.2391,5.2391,5.2391,5.2391,5.2391,5.2211,5.2013,5.1815,5.161,5.1406,5.1221,5.1202,5.1202,5.1202,5.1202,5.1202,4.8912,4.964,0.0,0.0,5.1845,0.0,0.0,0.0,0.0,0.0,0.0,0.0,0.0,0.0,0.0,0.0,0.0,0.0,0.0,0.0,0.0,0.0,0.0,0.0,0.0,0.0,0.0,0.0,0.0,0.0,0.0,0.0,0.0,0.0,0.0,5.8977,5.9146,5.8406,5.8336,0.0,5.814,5.7407,5.6699,5.6699,5.6699,5.6699,5.6699,5.6699,5.6738,5.7314,5.7557,5.7631,5.8371,5.8651,5.8737,5.9497,5.9759,5.9726,5.9579,5.953,5.9315,5.7996,5.7557,5.7463,5.6891,5.6033,5.5281,5.5281,5.4754,5.4184,5.4184,5.4184,5.4312,5.4841,5.3764,5.2623,5.2623,5.2498,5.2391,5.2391,5.2391,5.2391,5.2391,5.2391,5.2391,5.2391,5.2391,5.2391,5.2391,5.2391,5.2391,5.2391,5.2391,5.2391,5.2391,5.2391,5.2391,5.2391,5.2391,5.2391,5.2391,5.2211,5.2084,5.2048,5.1684,5.148,5.1424,5.1293,5.1202,5.1202,5.1202,5.1202,4.9326,0.0,0.0,5.1546,0.0,0.0,0.0,0.0,0.0,0.0,0.0,0.0,0.0,0.0,0.0,0.0,0.0,0.0,0.0,0.0,0.0,0.0,0.0,0.0,0.0,0.0,0.0,0.0,0.0,0.0,0.0,0.0,0.0,0.0,5.9952,5.9952,5.9952,5.9562,5.9397,5.9414,5.8685,5.7942,5.7202,5.6872,5.6699,5.6699,5.6699,5.6894,5.7256,5.7631,5.8014,5.8406,5.9146,5.943,5.953,6.0241,6.0525,6.0479,6.0114,6.0003,5.976,5.8282,5.805,5.8108,5.7006,5.6354,5.5945,5.5587,5.5206,5.4872,5.4872,5.4872,5.4963,5.5311,5.4359,5.3449,5.3764,5.3315,5.2886,5.2886,5.2886,5.2781,5.2463,5.2391,5.2391,5.2391,5.2391,5.2391,5.2391,5.2391,5.2391,5.2391,5.2391,5.2391,5.2391,5.2391,5.2391,5.2391,5.2391,5.2391,5.2391,5.2301,5.2193,5.2102,5.1794,5.1592,5.1499,5.1312,5.1202,5.1202,5.1202,5.1202,4.9789,0.0,5.0883,5.211,5.2391,0.0,0.0,0.0,0.0,0.0,0.0,0.0,0.0,0.0,0.0,0.0,0.0,0.0,0.0,0.0,0.0,0.0,0.0,0.0,0.0,0.0,0.0,0.0,0.0,0.0,0.0,0.0,6.0971,6.0742,6.0833,6.0866,6.0727,6.0851,6.0602,5.9987,5.9247,5.8564,5.796,5.7351,5.7086,5.7086,5.7086,5.7445,5.7996,5.8122,5.8546,5.9146,5.9905,6.0178,6.0274,6.0881,6.1093,6.1019,6.0399,6.0178,5.9969,5.8616,5.8513,5.8632,5.7204,5.6696,5.6467,5.5846,5.5619,5.5578,5.5578,5.549,5.5429,5.5549,5.5072,5.4688,5.5132,5.4359,5.3566,5.3566,5.3566,5.3365,5.2694,5.257,5.2517,5.2409,5.2391,5.2391,5.2391,5.2391,5.2391,5.2391,5.2391,5.2391,5.2391,5.2391,5.2391,5.2391,5.2391,5.2391,5.2391,5.2391,5.232,5.2157,5.1922,5.1721,5.1555,5.1331,5.1202,5.1202,5.1202,5.1202,4.9789,0.0,5.2143,0.0,5.2391,5.2391,0.0,0.0,0.0,0.0,0.0,0.0,0.0,0.0,0.0,0.0,0.0,0.0,0.0,0.0,0.0,0.0,0.0,0.0,0.0,0.0,0.0,0.0,0.0,0.0,0.0,6.1093,6.0508,5.923,5.9807,5.9841,5.9196,5.9841,6.0099,5.9987,5.9247,5.884,5.8737,5.8651,5.8599,5.8599,5.8599,5.8651,5.8806,5.9448,5.976,5.9921,6.0666,6.0941,6.0974,6.1064,6.1093,6.1078,6.0989,6.0941,6.0821,5.9969,5.9304,5.8662,5.7822,5.7065,5.6484,5.6396,5.6311,5.6273,5.6273,5.5826,5.5549,5.613,5.5754,5.5132,5.4641,5.4391,5.4264,5.4264,5.4264,5.404,5.3382,5.3264,5.3076,5.2498,5.2391,5.2391,5.2391,5.2391,5.2391,5.2391,5.2391,5.2391,5.2391,5.2391,5.2391,5.2391,5.2391,5.2391,5.2391,5.2391,5.239,5.2372,5.1995,5.1778,5.176,5.1371,5.1202,5.1202,5.1202,5.1202,4.9789,5.128,5.2391,0.0,5.2391,5.2391,0.0,0.0,0.0,0.0,0.0,0.0,0.0,0.0,0.0,0.0,0.0,0.0,0.0,0.0,0.0,0.0,0.0,0.0,0.0,0.0,0.0,0.0,0.0,0.0,6.1078,6.1093,6.0803,6.0144,6.0446,6.0461,6.0129,6.0446,6.0399,6.0003,5.9661,5.953,5.953,5.953,5.9297,5.8892,5.8892,5.9129,5.9547,5.9873,6.0243,6.0666,6.0971,6.1093,6.1093,6.1093,6.1093,6.1093,6.1093,6.0808,6.0297,5.9573,5.9058,5.8519,5.7388,5.7072,5.7024,5.6567,5.6424,5.6401,5.6401,5.6172,5.6028,5.6328,5.6172,5.5886,5.5578,5.5236,5.4841,5.4469,5.4407,5.4184,5.3516,5.3399,5.3162,5.2498,5.2391,5.2391,5.2391,5.2391,5.2391,5.2391,5.2391,5.2391,5.2391,5.2391,5.2391,5.2391,5.2391,5.2391,5.2391,5.2391,5.2391,5.2391,5.1997,5.1796,5.1796,5.1389,5.1202,5.1202,5.1202,5.1202,0.0,0.0,5.2159,5.2342,5.2391,5.2391,0.0,0.0,0.0,0.0,0.0,0.0,0.0,0.0,0.0,0.0,0.0,0.0,0.0,0.0,0.0,0.0,0.0,0.0,0.0,0.0,0.0,0.0,0.0,0.0,6.1093,6.1093,6.1001,6.0836,6.1004,6.1019,6.0818,6.1019,6.0818,6.029,6.029,6.029,6.0272,6.0063,5.9671,5.9168,5.9376,5.9775,6.029,6.029,6.0602,6.1093,6.1093,6.1093,6.1093,6.1093,6.0968,6.0808,6.0808,6.0272,5.9507,5.8961,5.8612,5.8228,5.7111,5.7032,5.7164,5.6561,5.6401,5.6401,5.6401,5.6401,5.6401,5.6401,5.6401,5.6401,5.6401,5.6,5.5505,5.5011,5.4903,5.4703,5.4024,5.3911,5.3616,5.2781,5.2641,5.2588,5.2409,5.2391,5.2391,5.2391,5.2391,5.2391,5.2391,5.2391,5.2391,5.2391,5.2391,5.2391,5.2391,5.2391,5.2391,5.2391,5.205,5.1851,5.1796,5.1389,5.1202,5.1202,5.1202,5.1202,0.0,5.0767,0.0,5.2226,5.2391,0.0,0.0,0.0,0.0,0.0,0.0,0.0,0.0,0.0,0.0,0.0,0.0,0.0,0.0,0.0,0.0,0.0,0.0,0.0,0.0,0.0,0.0,0.0,0.0,0.0,6.1093,6.1093,6.0773,6.0083,6.0742,6.0757,6.0067,6.0742,6.1078,6.1049,6.1049,6.1049,6.1031,6.0249,5.9878,5.9888,6.065,6.1019,6.1049,6.1049,6.1064,6.1093,6.1093,6.1093,6.1093,6.1093,6.0629,5.9955,5.9955,5.9437,5.8763,5.8716,5.8228,5.7646,5.7568,5.7047,5.6436,5.6401,5.6401,5.6401,5.6401,5.6401,5.6401,5.6401,5.6401,5.6401,5.6401,5.6369,5.6328,5.63,5.63,5.607,5.5399,5.5296,5.4857,5.355,5.3349,5.3128,5.248,5.2391,5.2391,5.2391,5.2391,5.2391,5.2391,5.2391,5.2391,5.2391,5.2391,5.2391,5.2391,5.2391,5.2391,5.2391,5.2193,5.1977,5.1796,5.1389,5.1202,5.1202,5.1202,5.1202,0.0,0.0,0.0,5.2209,5.2391,0.0,0.0,0.0,0.0,0.0,0.0,0.0,0.0,0.0,0.0,0.0,0.0,0.0,0.0,0.0,0.0,0.0,0.0,0.0,0.0,0.0,0.0,0.0,0.0,0.0,6.1093,6.1093,6.0989,6.0712,6.0956,6.0971,6.0712,6.0956,6.1093,6.1093,6.1093,6.1093,6.1075,6.0272,5.9901,5.9883,5.9651,5.9562,5.9562,5.9562,5.9562,5.9562,5.9562,5.9562,5.9562,5.9562,5.9384,5.9134,5.9134,5.8617,5.7989,5.7989,5.7471,5.6843,5.6843,5.6633,5.6401,5.6401,5.6401,5.6401,5.6401,5.6401,5.6401,5.6401,5.6401,5.6401,5.6401,5.6401,5.6273,5.584,5.6116,5.6042,5.4948,5.5117,5.4948,5.3599,5.3399,5.3145,5.2498,5.2391,5.2391,5.2391,5.2391,5.2391,5.2391,5.2391,5.2391,5.2391,5.2391,5.2391,5.2391,5.2391,5.2391,5.2391,5.2211,5.2066,5.1995,5.1592,5.1387,5.1387,5.1258,5.1202,4.9922,0.0,0.0,0.0,0.0,0.0,0.0,0.0,0.0,0.0,0.0,0.0,0.0,0.0,0.0,0.0,0.0,0.0,0.0,0.0,0.0,0.0,0.0,0.0,0.0,0.0,0.0,0.0,0.0,0.0,6.1093,6.1093,6.1093,6.1093,6.1093,6.1093,6.1093,6.1093,6.1093,6.1093,6.1093,6.0968,6.0665,5.9865,5.9366,5.9077,5.8278,5.8224,5.8692,5.8692,5.8692,5.8692,5.8692,5.8692,5.8692,5.8692,5.8545,5.8331,5.8331,5.7828,5.72,5.72,5.6843,5.6401,5.6401,5.6401,5.6401,5.6401,5.6401,5.6401,5.6401,5.6401,5.6401,5.6401,5.6401,5.6401,5.6401,5.6401,5.6273,5.5812,5.6102,5.6116,5.5221,5.5429,5.5281,5.3944,5.3731,5.3399,5.2533,5.2391,5.2391,5.2391,5.2391,5.2391,5.2391,5.2391,5.2391,5.2391,5.2391,5.2391,5.2391,5.2391,5.2391,5.2391,5.2283,5.2211,5.2211,5.1794,5.1573,5.1499,5.1368,5.1258,0.0,0.0,0.0,0.0,0.0,0.0,0.0,0.0,0.0,0.0,0.0,0.0,0.0,0.0,0.0,0.0,0.0,0.0,0.0,0.0,0.0,0.0,0.0,0.0,0.0,0.0,0.0,0.0,0.0,6.1093,6.1093,6.1093,6.1093,6.1093,6.1093,6.1093,6.1093,6.1093,6.1093,6.1093,6.1075,6.0665,5.9865,5.9045,5.8278,5.7556,5.674,5.7243,5.862,5.862,5.862,5.862,5.862,5.862,5.862,5.862,5.8185,5.7556,5.7556,5.7057,5.6401,5.6401,5.6401,5.6401,5.6401,5.6401,5.6401,5.6401,5.6401,5.6401,5.6401,5.6401,5.6401,5.6401,5.6401,5.6401,5.6401,5.6401,5.6401,5.6401,5.6401,5.6401,5.6401,5.6369,5.5929,5.4595,5.4391,5.3878,5.257,5.2391,5.2391,5.2391,5.2391,5.2391,5.2391,5.2391,5.2391,5.2391,5.2391,5.2391,5.2391,5.2391,5.2391,5.2391,5.2391,5.2391,5.2391,5.2013,5.1721,5.1517,5.1499,5.1406,4.916,0.0,0.0,0.0,0.0,0.0,0.0,0.0,0.0,0.0,0.0,0.0,0.0,0.0,0.0,0.0,0.0,0.0,0.0,0.0,0.0,0.0,0.0,0.0,0.0,0.0,0.0,0.0,6.1093,6.1093,6.1093,6.1093,6.1093,6.1093,6.1093,6.1093,6.1093,6.1093,6.1093,6.1093,6.0504,6.0115,5.9848,5.8506,5.7788,5.7556,5.674,5.6633,5.7043,5.7043,5.7043,5.7043,5.7043,5.7043,5.7043,5.7043,5.69,5.6722,5.6722,5.6579,5.6401,5.6401,5.6401,5.6401,5.6401,5.6401,5.6401,5.6401,5.6401,5.6401,5.6401,5.6401,5.6401,5.6401,5.6401,5.6401,5.6401,5.6401,5.6401,5.6401,5.6401,5.6401,5.6401,5.6,5.5402,5.4532,5.3975,5.3365,5.2516,5.2391,5.2391,5.2391,5.2391,5.2391,5.2391,5.2391,5.2391,5.2391,5.2391,5.2391,5.2391,5.2391,5.2391,5.2391,5.2391,5.2391,5.2391,5.214,5.1993,5.1939,5.1776,5.161,0.0,0.0,0.0,0.0,0.0,0.0,0.0,5.2391,0.0,0.0,0.0,0.0,0.0,0.0,0.0,0.0,0.0,0.0,0.0,0.0,0.0,0.0,0.0,0.0,0.0,0.0,0.0,0.0,6.1093,6.1093,6.1093,6.1093,6.1093,6.1093,6.1093,6.1093,6.1093,6.1093,6.0933,6.0594,6.0115,5.9562,5.8916,5.8021,5.7414,5.7075,5.6611,5.6401,5.6401,5.6401,5.6401,5.6401,5.6401,5.6401,5.6401,5.6401,5.6401,5.6401,5.6401,5.6401,5.6401,5.6401,5.6401,5.6401,5.6401,5.6401,5.6401,5.6401,5.6401,5.6401,5.6401,5.6401,5.6401,5.6401,5.6401,5.6401,5.6401,5.6401,5.6401,5.6401,5.6401,5.6401,5.6401,5.6088,5.5505,5.4548,5.4056,5.3466,5.2517,5.2391,5.2391,5.2391,5.2391,5.2391,5.2391,5.2391,5.2391,5.2391,5.2391,5.2391,5.2391,5.2391,5.2391,5.2391,5.2391,5.2391,5.2391,5.2283,5.2193,5.2102,5.1886,5.1702,0.0,0.0,0.0,0.0,0.0,0.0,5.2375,5.2391,5.2391,0.0,0.0,0.0,0.0,0.0,0.0,0.0,0.0,0.0,0.0,0.0,0.0,0.0,0.0,0.0,0.0,0.0,6.0062,6.079,6.0915,6.0968,6.0968,6.1058,6.1093,6.1093,6.1093,6.1058,6.0968,6.0968,6.0558,5.9758,5.9669,5.8934,5.7592,5.7503,5.7075,5.6401,5.6401,5.6401,5.6401,5.6401,5.6401,5.6401,5.6401,5.6401,5.6401,5.6401,5.6401,5.6401,5.6401,5.6401,5.6401,5.6401,5.6401,5.6401,5.6401,5.6401,5.6401,5.6401,5.6401,5.6401,5.6401,5.6401,5.6401,5.6401,5.6401,5.6401,5.6401,5.6401,5.6401,5.6401,5.6401,5.6401,5.6401,5.6286,5.5769,5.4579,5.428,5.3748,5.2552,5.2391,5.2391,5.2391,5.2391,5.2391,5.2391,5.2391,5.2391,5.2391,5.2391,5.2391,5.2391,5.2391,5.2391,5.2391,5.2391,5.2391,5.2391,5.2391,5.2318,5.2139,5.1959,5.1758,0.0,0.0,0.0,0.0,0.0,0.0,5.2259,5.2391,5.2391,0.0,0.0,0.0,0.0,0.0,0.0,0.0,0.0,0.0,0.0,0.0,0.0,0.0,0.0,0.0,0.0,0.0,5.9009,5.917,5.9776,6.0133,6.0133,6.0754,6.1093,6.1093,6.1093,6.079,6.0133,6.0133,5.9723,5.8938,5.8328,5.7896,5.7574,5.6932,5.6543,5.6401,5.6401,5.6401,5.6401,5.6401,5.6401,5.6401,5.6401,5.6401,5.6401,5.6401,5.6401,5.6401,5.6401,5.6401,5.6401,5.6401,5.6401,5.6401,5.6401,5.6401,5.6401,5.6401,5.6401,5.6401,5.6401,5.6401,5.6401,5.6401,5.6401,5.6401,5.6401,5.6401,5.6401,5.6401,5.6401,5.6401,5.6401,5.5505,5.4703,5.4438,5.3483,5.2694,5.2427,5.2391,5.2391,5.2391,5.2391,5.2391,5.2391,5.2391,5.2391,5.2391,5.2391,5.2391,5.2391,5.2391,5.2391,5.2391,5.2391,5.2391,5.2391,5.2391,5.2373,5.2354,5.2302,5.2193,0.0,0.0,0.0,5.0651,0.0,0.0,0.0,5.2391,5.2391,0.0,0.0,0.0,0.0,0.0,0.0,0.0,0.0,0.0,0.0,0.0,0.0,0.0,0.0,0.0,0.0,0.0,5.8296,5.8656,5.9066,5.9295,5.9295,6.0062,6.0326,5.9919,6.029,6.0115,5.9312,5.9295,5.8902,5.8149,5.7788,5.7396,5.6985,5.6579,5.6401,5.6401,5.6401,5.6401,5.6401,5.6401,5.6401,5.6401,5.6401,5.6401,5.6401,5.6401,5.6401,5.6401,5.6401,5.6401,5.6401,5.6401,5.6401,5.6401,5.6401,5.6401,5.6401,5.6401,5.6401,5.6401,5.6401,5.6401,5.6401,5.6401,5.6401,5.6401,5.6401,5.6401,5.6401,5.6401,5.6401,5.6401,5.6401,5.5563,5.478,5.4454,5.355,5.2781,5.2445,5.2391,5.2391,5.2391,5.2391,5.2391,5.2391,5.2391,5.2391,5.2391,5.2391,5.2391,5.2391,5.2391,5.2391,5.2391,5.2391,5.2391,5.2391,5.2391,5.2391,5.2391,5.2391,5.2301,0.0,0.0,0.0,0.0,0.0,5.2226,0.0,0.0,0.0,0.0,0.0,0.0,0.0,0.0,0.0,0.0,0.0,0.0,0.0,0.0,0.0,0.0,0.0,0.0,0.0,0.0,5.7614,5.8206,5.8403,5.8492,5.8492,5.9241,5.9366,5.8709,5.933,5.9295,5.851,5.8492,5.8113,5.736,5.736,5.7039,5.6401,5.6401,5.6401,5.6401,5.6401,5.6401,5.6401,5.6401,5.6401,5.6401,5.6401,5.6401,5.6401,5.6401,5.6401,5.6401,5.6401,5.6401,5.6401,5.6401,5.6401,5.6401,5.6401,5.6401,5.6401,5.6401,5.6401,5.6401,5.6401,5.6401,5.6401,5.6401,5.6401,5.6401,5.6401,5.6401,5.6401,5.6401,5.6401,5.6373,5.6227,5.565,5.4978,5.4312,5.3649,5.3008,5.2463,5.2391,5.2391,5.2391,5.2391,5.2391,5.2391,5.2391,5.2391,5.2391,5.2391,5.2391,5.2391,5.2391,5.2391,5.2391,5.2391,5.2391,5.2391,5.2391,5.2391,5.2391,5.2391,5.2318,0.0,0.0,0.0,0.0,5.1347,0.0,0.0,0.0,0.0,0.0,0.0,0.0,0.0,0.0,0.0,0.0,0.0,0.0,0.0,0.0,0.0,0.0,0.0,0.0,0.0,0.0,0.0,5.665,5.7324,5.7717,5.7717,5.842,5.8781,5.8692,5.8781,5.8474,5.7735,5.7717,5.7324,5.6543,5.6543,5.649,5.6401,5.6401,5.6401,5.6401,5.6401,5.6401,5.6401,5.6401,5.6401,5.6401,5.6401,5.6401,5.6401,5.6401,5.6401,5.6401,5.6401,5.6401,5.6401,5.6401,5.6401,5.6401,5.6401,5.6401,5.6401,5.6401,5.6401,5.6401,5.6401,5.6401,5.6401,5.6401,5.6401,5.6401,5.6401,5.6401,5.6401,5.6401,5.6401,5.6199,5.5607,5.4948,5.428,5.3599,5.2956,5.2498,5.2409,5.2391,5.2391,5.2391,5.2391,5.2391,5.2391,5.2391,5.2391,5.2391,5.2391,5.2391,5.2391,5.2391,5.2391,5.2391,5.2391,5.2391,5.2391,5.2391,5.2391,5.2391,5.2391,5.239,0.0,0.0,0.0,0.0,0.0,0.0,0.0,0.0,5.2391,0.0,0.0,0.0,0.0,0.0,0.0,0.0,0.0,0.0,0.0,0.0,0.0,0.0,0.0,0.0,0.0,0.0,0.0,0.0,0.0,5.6896,5.6896,5.7632,5.7846,5.7368,5.7828,5.7685,5.6914,5.6896,5.6722,5.6401,5.6401,5.6401,5.6401,5.6401,5.6401,5.6401,5.6401,5.6401,5.6401,5.6401,5.6401,5.6401,5.6401,5.6401,5.6401,5.6401,5.6401,5.6401,5.6401,5.6401,5.6401,5.6401,5.6401,5.6401,5.6401,5.6401,5.6401,5.6401,5.6401,5.6401,5.6401,5.6401,5.6401,5.6401,5.6401,5.6401,5.6401,5.6401,5.6401,5.6401,5.6088,5.5607,5.4933,5.4595,5.4168,5.35,5.2834,5.2391,5.2391,5.2391,5.2391,5.2391,5.2391,5.2391,5.2391,5.2391,5.2391,5.2391,5.2391,5.2391,5.2391,5.2391,5.2391,5.2391,5.2391,5.2391,5.2391,5.2391,5.2391,5.2391,5.2391,5.2391,5.2498,0.0,0.0,0.0,0.0,0.0,0.0,0.0,0.0,0.0,0.0,0.0,0.0,0.0,0.0,0.0,0.0,0.0,0.0,0.0,0.0,0.0,0.0,0.0,0.0,0.0,0.0,0.0,5.6401,0.0,5.6401,5.695,5.7003,5.6418,5.6968,5.7003,5.6401,5.6401,5.6401,5.6401,5.6401,5.6401,5.6401,5.6401,5.6401,5.6401,5.6401,5.6401,5.6401,5.6401,5.6401,5.6401,5.6401,5.6401,5.6401,5.6401,5.6401,5.6401,5.6401,5.6401,5.6401,5.6401,5.6401,5.6401,5.6401,5.6401,5.6401,5.6401,5.6401,5.6401,5.6401,5.6401,5.6401,5.6401,5.6401,5.6401,5.6401,5.6401,5.6401,5.6401,5.5854,5.5192,5.4516,5.4248,5.3911,5.323,5.2712,5.2391,5.2391,5.2391,5.2391,5.2391,5.2391,5.2391,5.2391,5.2391,5.2391,5.2391,5.2391,5.2391,5.2391,5.2391,5.2391,5.2391,5.2391,5.2391,5.2391,5.2391,5.2391,5.2391,5.2391,5.2391,0.0,0.0,0.0,0.0,0.0,0.0,0.0,0.0,5.2391,0.0,0.0,0.0,0.0,0.0,5.2391,5.2391,0.0,0.0,0.0,0.0,0.0,0.0,0.0,0.0,0.0,0.0,0.0,5.6401,5.6401,5.6401,5.6401,5.6418,5.6418,5.6401,5.6418,5.6418,5.6401,5.6401,5.6401,5.6401,5.6401,5.6401,5.6401,5.6401,5.6401,5.6401,5.6401,5.6401,5.6401,5.6401,5.6401,5.6401,5.6401,5.6401,5.6401,5.6401,5.6401,5.6401,5.6401,5.6401,5.6401,5.6401,5.6401,5.6401,5.6401,5.6401,5.6401,5.6401,5.6401,5.6401,5.6401,5.6401,5.6401,5.6401,5.6401,5.6401,5.6401,5.6401,5.6401,5.6401,5.5854,5.5192,5.4516,5.3862,5.3196,5.2517,5.2409,5.2391,5.2391,5.2391,5.2391,5.2391,5.2391,5.2391,5.2391,5.2391,5.2391,5.2391,5.2391,5.2391,5.2391,5.2391,5.2391,5.2391,5.2391,5.2391,5.2391,5.2391,5.2391,5.2391,5.2391,5.2391,0.0,0.0,5.3911,5.323,0.0,0.0,0.0,0.0,0.0,0.0,0.0,0.0,0.0,0.0,5.2391,5.2391,5.2391,0.0,0.0,0.0,0.0,0.0,0.0,0.0,0.0,0.0,0.0,5.6401,5.6401,5.6401,0.0,5.6401,5.6401,5.6401,5.6401,5.6401,5.6401,5.6401,5.6401,5.6401,5.6401,5.6401,5.6401,5.6401,5.6401,5.6401,5.6401,5.6401,5.6401,5.6401,5.6401,5.6401,5.6401,5.6401,5.6401,5.6401,5.6401,5.6401,5.6401,5.6401,5.6401,5.6401,5.6401,5.6401,5.6401,5.6401,5.6401,5.6401,5.6401,5.6401,5.6401,5.6401,5.6401,5.6401,5.6401,5.6401,5.6401,5.6401,5.6273,5.5826,5.5207,5.4672,5.4438,5.3483,5.2659,5.2427,5.2391,5.2391,5.2391,5.2391,5.2391,5.2391,5.2391,5.2391,5.2391,5.2391,5.2391,5.2391,5.2391,5.2391,5.2391,5.2391,5.2391,5.2391,5.2391,5.2391,5.2391,5.2391,5.2391,5.2391,5.2391,5.2391,5.4532,5.4579,0.0,0.0,5.3764,0.0,0.0,0.0,0.0,0.0,0.0,0.0,0.0,0.0,5.248,5.2712,5.2552,5.248,0.0,0.0,0.0,0.0,0.0,0.0,0.0,0.0,5.6401,5.6401,5.6401,5.6401,0.0,0.0,5.6401,5.6401,5.6401,5.6401,5.6401,5.6401,5.6401,5.6401,5.6401,5.6401,5.6401,5.6401,5.6401,5.6401,5.6401,5.6401,5.6401,5.6401,5.6401,5.6401,5.6401,5.6401,5.6401,5.6401,5.6401,5.6401,5.6401,5.6401,5.6401,5.6401,5.6401,5.6401,5.6401,5.6401,5.6508,5.7061,5.6829,5.6525,5.7079,5.6811,5.6401,5.6401,5.6401,5.6401,5.6401,5.6401,5.6273,5.584,5.5221,5.4672,5.4438,5.3483,5.2764,5.2764,5.2552,5.2391,5.2391,5.2391,5.2391,5.2391,5.2391,5.2391,5.2391,5.2391,5.2391,5.2391,5.2391,5.2391,5.2391,5.2391,5.2507,5.2738,5.2524,5.2524,5.2754,5.2524,5.2391,5.2391,5.2391,5.2391]}]]